Date StartTime U_cm/s V_cm/s W_cm/s Ustd_cm/s Vstd_cm/s Wstd_cm/s Uvar_(cm/s)^2 Vvar_(cm/s)^2 Wvar_(cm/s)^2 KE_(m/s)^2 TurbulentKE_(m/s)^2 HorizWindSpeed_cm/s FrictionSpeec_cm/s DragCoef SpeedOfSound_m/s SonicTemperature_C Pressure_mb 
01/08/2015  00:00:00     -104.268      -10.219       -4.965       41.569       34.415       24.896     1727.985     1184.377      619.816        0.727        0.177      104.768       22.724        0.047      332.971        1.979      867.589
01/08/2015  00:01:00     -122.534      -18.619      -11.441       32.125       31.243       18.149     1032.001      976.146      329.374        0.891        0.117      123.941       17.073        0.019      332.958        1.960      867.585
01/08/2015  00:02:00     -101.786      -28.290      -10.252       27.528       26.546       14.616      757.780      704.710      213.638        0.647        0.084      105.644        7.365        0.005      332.982        1.999      867.563
01/08/2015  00:03:00      -89.019      -52.669       -5.829       29.180       33.747       17.978      851.493     1138.891      323.196        0.652        0.116      103.433       14.726        0.020      333.015        2.054      867.550
01/08/2015  00:04:00      -69.358      -24.088       -6.525       43.256       24.839       22.723     1871.064      616.986      516.333        0.422        0.150       73.421       24.753        0.114      332.998        2.026      867.534
01/08/2015  00:05:00     -112.758      -55.310       -7.808       38.428       41.774       20.353     1476.679     1745.057      414.242        0.973        0.182      125.593       18.438        0.022      333.017        2.059      867.533
01/08/2015  00:06:00      -66.216      -44.276       -0.494       40.062       20.698       21.111     1604.997      428.414      445.658        0.441        0.124       79.655       16.850        0.045      332.976        1.988      867.544
01/08/2015  00:07:00     -110.689      -48.128        0.349       27.945       21.999       17.389      780.943      483.974      302.370        0.807        0.078      120.699       17.807        0.022      332.999        2.028      867.557
01/08/2015  00:08:00      -87.610      -55.089       -2.049       17.667       16.604       12.718      312.125      275.688      161.752        0.573        0.037      103.491        8.879        0.007      332.981        1.998      867.558
01/08/2015  00:09:00      -69.466      -61.781       -4.816       23.990       21.859       12.540      575.511      477.833      157.252        0.494        0.061       92.965        9.453        0.010      333.064        2.134      867.561
01/08/2015  00:10:00      -86.447      -43.828       -3.466       28.285       13.158       15.107      800.025      173.125      228.225        0.530        0.060       96.923       16.196        0.028      333.081        2.164      867.561
01/08/2015  00:11:00      -75.209      -39.277        1.177       25.076       19.712       16.546      628.813      388.560      273.764        0.425        0.065       84.847       16.060        0.036      333.123        2.233      867.557
01/08/2015  00:12:00      -49.030      -39.626        3.439       29.836       18.962       16.999      890.180      359.566      288.962        0.276        0.077       63.041       16.415        0.068      333.149        2.274      867.549
01/08/2015  00:13:00      -45.229      -41.024       -0.712       32.558       23.583       16.602     1060.048      556.166      275.637        0.281        0.095       61.062       20.261        0.110      333.113        2.215      867.536
01/08/2015  00:14:00      -68.476      -58.941        0.209       27.859       19.283       16.839      776.110      371.852      283.566        0.480        0.072       90.349       16.342        0.033      333.077        2.157      867.523
01/08/2015  00:15:00      -68.119      -46.768        4.932       31.644       18.766       19.033     1001.322      352.155      362.252        0.428        0.086       82.628       14.211        0.030      333.045        2.103      867.521
01/08/2015  00:16:00      -71.489      -49.174       -2.482       35.893       26.050       16.565     1288.335      678.612      274.410        0.489        0.112       86.769       18.523        0.046      333.089        2.175      867.523
01/08/2015  00:17:00      -57.843      -49.884        0.554       39.521       24.429       20.191     1561.888      596.799      407.690        0.420        0.128       76.382       23.445        0.094      333.064        2.135      867.522
01/08/2015  00:18:00      -75.335      -79.905       -3.237       37.269       29.823       17.215     1388.985      889.389      296.352        0.732        0.129      109.819       14.050        0.016      333.148        2.272      867.531
01/08/2015  00:19:00      -62.963      -64.949        5.722       42.315       40.408       23.868     1790.592     1632.845      569.679        0.610        0.200       90.458       24.589        0.074      333.194        2.349      867.530
01/08/2015  00:20:00      -83.994      -79.603      -10.942       31.272       27.886       18.942      977.955      777.608      358.794        0.781        0.106      115.722       12.438        0.012      333.245        2.434      867.525
01/08/2015  00:21:00      -69.381      -71.680        1.397       30.258       34.538       24.550      915.551     1192.854      602.711        0.633        0.136       99.759       19.992        0.040      333.272        2.477      867.523
01/08/2015  00:22:00      -65.857      -67.477       -1.770       24.495       28.990       18.120      599.986      840.394      328.345        0.533        0.088       94.289       12.773        0.018      333.206        2.369      867.529
01/08/2015  00:23:00      -76.514      -55.950       -2.711       38.253       30.160       22.853     1463.263      909.614      522.242        0.594        0.145       94.789       20.094        0.045      333.175        2.315      867.537
01/08/2015  00:24:00      -58.852      -52.231        7.365       39.635       28.932       15.932     1570.953      837.055      253.820        0.445        0.133       78.687       13.967        0.032      333.154        2.283      867.543
01/08/2015  00:25:00      -57.121      -65.542       -0.053       25.851       31.961       17.991      668.300     1021.512      323.679        0.479        0.101       86.940       14.655        0.028      333.212        2.376      867.549
01/08/2015  00:26:00      -86.907      -43.684       -0.002       33.341       20.895       16.977     1111.640      436.618      288.208        0.565        0.092       97.268       15.793        0.026      333.112        2.214      867.543
01/08/2015  00:27:00      -87.192      -58.638        4.323       48.626       30.324       22.531     2364.450      919.570      507.634        0.742        0.190      105.076       23.681        0.051      333.132        2.247      867.527
01/08/2015  00:28:00      -88.908      -55.667       -1.493       41.664       24.109       19.181     1735.875      581.239      367.896        0.684        0.134      104.898       13.017        0.015      333.135        2.251      867.510
01/08/2015  00:29:00      -75.147      -52.969        1.509       46.264       37.271       25.341     2140.356     1389.148      642.154        0.631        0.209       91.939       27.952        0.092      333.115        2.218      867.492
01/08/2015  00:30:00      -67.946      -45.901        4.780       50.869       35.220       20.627     2587.662     1240.469      425.465        0.550        0.213       81.998       22.030        0.072      333.145        2.267      867.482
01/08/2015  00:31:00      -97.185      -54.592        5.965       37.129       28.702       20.618     1378.595      823.788      425.085        0.754        0.131      111.469       19.057        0.029      333.133        2.248      867.478
01/08/2015  00:32:00     -102.176      -56.719        2.373       30.786       27.873       19.605      947.774      776.891      384.360        0.789        0.105      116.863       16.669        0.020      333.177        2.321      867.463
01/08/2015  00:33:00      -83.486      -31.676        5.815       33.895       21.641       16.553     1148.864      468.317      274.004        0.495        0.095       89.293       17.770        0.040      333.127        2.238      867.456
01/08/2015  00:34:00      -49.920      -11.959        9.892       36.661       27.411       17.203     1344.001      751.380      295.959        0.256        0.120       51.333       16.220        0.100      333.091        2.179      867.446
01/08/2015  00:35:00      -65.403      -15.369        4.333       31.840       20.008       14.098     1013.796      400.303      198.765        0.307        0.081       67.184       16.267        0.059      332.974        1.985      867.443
01/08/2015  00:36:00      -74.678      -14.028        3.922       25.968       16.925       16.858      674.358      286.472      284.187        0.352        0.062       75.984       16.933        0.050      333.019        2.060      867.444
01/08/2015  00:37:00      -60.556      -10.131        1.121       24.886       16.315       14.826      619.317      266.194      219.819        0.244        0.055       61.397       13.822        0.051      332.986        2.006      867.447
01/08/2015  00:38:00      -56.984      -15.350        5.778       34.179       18.831       15.852     1168.199      354.606      251.286        0.264        0.089       59.016       14.936        0.064      332.943        1.935      867.456
01/08/2015  00:39:00      -80.252      -19.037       -3.789       20.947       13.091       11.024      438.760      171.372      121.530        0.377        0.037       82.479        9.372        0.013      332.998        2.025      867.452
01/08/2015  00:40:00      -78.405      -21.363       -4.187       24.739       13.105       10.287      612.006      171.733      105.822        0.376        0.044       81.263       11.185        0.019      332.915        1.889      867.447
01/08/2015  00:41:00      -59.783      -10.313       -3.528       16.820       13.018       12.316      282.907      169.461      151.679        0.215        0.030       60.666       10.719        0.031      332.982        1.999      867.437
01/08/2015  00:42:00      -74.387      -18.815      -12.498        6.664        6.827        3.917       44.408       46.606       15.339        0.307        0.005       76.730        1.959        0.001      333.143        2.265      867.421
01/08/2015  00:43:00      -75.903      -23.075      -13.085        6.129        6.683        5.396       37.568       44.664       29.119        0.329        0.006       79.333        2.842        0.001      333.135        2.251      867.406
01/08/2015  00:44:00      -67.983      -26.063      -12.924       15.330       11.305        5.517      234.995      127.793       30.435        0.293        0.020       72.807        3.484        0.002      333.272        2.478      867.393
01/08/2015  00:45:00      -18.339      -25.687       -7.889       19.785       11.402        7.851      391.437      130.014       61.635        0.082        0.029       31.561        7.975        0.064      333.206        2.368      867.392
01/08/2015  00:46:00      -11.510      -27.245       -9.937       11.342       13.858        9.443      128.645      192.034       89.172        0.069        0.020       29.576        8.825        0.089      333.062        2.131      867.392
01/08/2015  00:47:00      -20.460      -20.694       -7.248        9.818        7.183        8.152       96.400       51.601       66.455        0.056        0.011       29.101        3.521        0.015      332.997        2.024      867.394
01/08/2015  00:48:00      -12.441      -19.849       -5.391       10.984        9.646        4.958      120.649       93.036       24.585        0.041        0.012       23.425        3.763        0.026      332.941        1.933      867.388
01/08/2015  00:49:00      -11.391      -11.717       -3.128       10.461        7.156        6.809      109.428       51.209       46.360        0.024        0.010       16.342        5.331        0.106      332.909        1.878      867.384
01/08/2015  00:50:00      -19.247      -14.347       -4.469       14.963        9.951        9.928      223.900       99.017       98.557        0.051        0.021       24.005        6.941        0.084      332.850        1.783      867.381
01/08/2015  00:51:00      -24.387      -18.142       -7.903       14.041       11.050        7.173      197.161      122.104       51.458        0.068        0.019       30.396        5.485        0.033      332.869        1.813      867.376
01/08/2015  00:52:00       -4.044      -31.006       -2.774        6.557        8.215        8.739       42.995       67.487       76.374        0.059        0.009       31.269        5.665        0.033      332.990        2.014      867.373
01/08/2015  00:53:00       -3.277      -11.026        3.712        5.136        5.537        5.196       26.382       30.664       26.996        0.012        0.004       11.503        4.237        0.136      333.018        2.057      867.367
01/08/2015  00:54:00        1.634       14.307       -0.342       12.750       12.775        4.981      162.562      163.208       24.807        0.028        0.018       14.400        6.167        0.183      333.184        2.332      867.359
01/08/2015  00:55:00       22.772       -2.177        1.909        8.619        9.246        7.493       74.294       85.492       56.139        0.037        0.011       22.875        3.639        0.025      333.082        2.166      867.354
01/08/2015  00:56:00       31.536        6.351        2.040        7.727        5.541        5.169       59.714       30.705       26.723        0.058        0.006       32.169        4.272        0.018      333.082        2.165      867.348
01/08/2015  00:57:00       32.652       12.507        3.893        3.901        5.589        3.961       15.222       31.232       15.692        0.065        0.003       34.965        2.211        0.004      333.094        2.184      867.336
01/08/2015  00:58:00       39.324       25.955       -0.218        8.777       10.210        5.236       77.033      104.246       27.418        0.121        0.010       47.117        2.826        0.004      333.125        2.236      867.321
01/08/2015  00:59:00       35.692       34.492        4.914        5.784        8.309        8.486       33.460       69.041       72.020        0.133        0.009       49.635        5.331        0.012      333.124        2.233      867.306
01/08/2015  01:00:00       14.784       24.588       -4.039        9.403        9.138        5.815       88.411       83.497       33.817        0.052        0.010       28.690        5.480        0.036      333.066        2.139      867.296
01/08/2015  01:01:00       -4.415       29.676       -2.767        6.088        5.930        4.015       37.066       35.161       16.121        0.050        0.004       30.003        3.280        0.012      333.209        2.372      867.293
01/08/2015  01:02:00      -27.338       -7.506       -7.446       10.599       18.867        6.868      112.346      355.946       47.164        0.069        0.026       28.350        6.925        0.060      332.961        1.964      867.299
01/08/2015  01:03:00      -50.778      -29.580      -13.503        8.758        8.400        6.130       76.706       70.554       37.581        0.191        0.009       58.766        2.696        0.002      332.730        1.582      867.312
01/08/2015  01:04:00      -76.338      -22.554      -12.411       10.281       11.940        7.387      105.690      142.566       54.572        0.340        0.015       79.600        5.409        0.005      332.476        1.165      867.335
01/08/2015  01:05:00      -88.575       -9.059       -8.063       22.359       13.484       14.855      499.923      181.811      220.661        0.445        0.045       89.037       12.914        0.021      332.551        1.287      867.358
01/08/2015  01:06:00     -100.101      -23.594      -10.789       23.346       16.455       12.608      545.029      270.769      158.952        0.583        0.049      102.844       11.114        0.012      332.650        1.450      867.377
01/08/2015  01:07:00      -94.707      -25.440       -5.677       20.508       17.963       16.959      420.586      322.680      287.621        0.534        0.052       98.064       13.127        0.018      332.676        1.493      867.389
01/08/2015  01:08:00     -110.501      -30.251       -7.827       19.673       14.801       11.390      387.016      219.061      129.727        0.696        0.037      114.567        7.358        0.004      332.757        1.627      867.397
01/08/2015  01:09:00     -106.647      -16.620       -6.167       24.613       15.625       19.387      605.820      244.140      375.871        0.646        0.061      107.935       17.747        0.027      332.804        1.706      867.417
01/08/2015  01:10:00      -95.090      -34.073       -3.579       30.256       19.900       13.859      915.411      395.991      192.072        0.586        0.075      101.010       15.273        0.023      332.776        1.659      867.427
01/08/2015  01:11:00      -79.230      -27.538        2.835       27.965       17.880       12.437      782.020      319.704      154.678        0.415        0.063       83.879       11.571        0.019      332.692        1.520      867.438
01/08/2015  01:12:00      -83.166      -25.196       -0.179       22.172       13.690       12.545      491.617      187.422      157.371        0.419        0.042       86.899       13.833        0.025      332.711        1.551      867.453
01/08/2015  01:13:00      -78.713      -39.623       -0.944       16.583       13.897       11.940      275.005      193.131      142.565        0.419        0.031       88.124       11.105        0.016      332.651        1.453      867.473
01/08/2015  01:14:00      -72.705      -43.921       -6.317       15.696       13.294       11.253      246.361      176.740      126.630        0.390        0.027       84.941        8.804        0.011      332.564        1.309      867.478
01/08/2015  01:15:00      -47.837      -41.368        7.577       27.243       18.007       17.718      742.200      324.265      313.930        0.272        0.069       63.243       17.360        0.075      332.524        1.243      867.483
01/08/2015  01:16:00      -41.686      -27.463        2.208       30.565       18.225       17.651      934.232      332.166      311.556        0.204        0.079       49.919       17.323        0.120      332.615        1.393      867.482
01/08/2015  01:17:00      -76.579      -32.297       -0.307       23.548       18.959       11.993      554.517      359.441      143.831        0.398        0.053       83.111       11.748        0.020      332.570        1.318      867.475
01/08/2015  01:18:00      -94.166      -28.794       -6.190       15.575       13.846       11.911      242.571      191.715      141.876        0.516        0.029       98.469        7.183        0.005      332.631        1.418      867.465
01/08/2015  01:19:00      -83.836      -34.181       -2.127       21.092       16.464       14.836      444.866      271.067      220.112        0.457        0.047       90.536       14.271        0.025      332.633        1.422      867.449
01/08/2015  01:20:00     -110.419      -35.205      -12.419       12.486       11.849        8.975      155.907      140.403       80.542        0.698        0.019      115.895        4.476        0.001      332.668        1.481      867.439
01/08/2015  01:21:00     -129.741      -29.618      -15.623       11.557       10.097       10.694      133.553      101.942      114.357        0.915        0.017      133.079        7.596        0.003      332.621        1.403      867.430
01/08/2015  01:22:00     -134.285      -21.279      -15.338       17.256       11.894       11.661      297.780      141.471      135.989        0.965        0.029      135.960        8.446        0.004      332.526        1.247      867.430
01/08/2015  01:23:00     -139.884      -18.886      -17.158       22.417       15.331       12.707      502.519      235.036      161.479        1.056        0.045      141.153       10.209        0.005      332.494        1.194      867.437
01/08/2015  01:24:00     -135.720      -23.807      -21.497       22.942       14.816       12.414      526.343      219.507      154.106        1.017        0.045      137.793       11.202        0.007      332.376        0.998      867.441
01/08/2015  01:25:00     -136.123      -31.224      -15.074       19.183       26.000       16.279      367.999      675.997      265.010        1.052        0.065      139.658       11.186        0.006      332.329        0.920      867.452
01/08/2015  01:26:00     -110.588      -38.326       -9.535       38.517       29.198       20.091     1483.558      852.548      403.662        0.826        0.137      117.041       22.902        0.038      332.218        0.739      867.464
01/08/2015  01:27:00     -125.987      -55.356      -15.734       22.500       28.312       18.412      506.253      801.565      339.000        1.042        0.082      137.612       15.637        0.013      332.203        0.714      867.476
01/08/2015  01:28:00     -118.335      -61.303       -9.835       24.890       22.582       15.817      619.490      509.934      250.180        0.962        0.069      133.271       12.064        0.008      332.225        0.751      867.490
01/08/2015  01:29:00     -104.721      -53.043       -4.832       39.638       21.505       22.374     1571.195      462.479      500.611        0.817        0.127      117.389       21.622        0.034      332.238        0.772      867.507
01/08/2015  01:30:00      -88.901      -53.673        5.779       32.484       27.827       20.107     1055.197      774.351      404.290        0.653        0.112      103.847       17.368        0.028      332.214        0.730      867.514
01/08/2015  01:31:00     -135.023      -44.975      -10.412       29.355       24.860       18.391      861.731      618.017      338.223        1.109        0.091      142.317       13.876        0.010      332.276        0.835      867.527
01/08/2015  01:32:00     -130.417      -47.262       -5.057       31.344       31.330       19.397      982.432      981.575      376.262        1.080        0.117      138.717       18.571        0.018      332.332        0.926      867.537
01/08/2015  01:33:00     -108.416      -19.273       -2.930       35.395       35.731       20.450     1252.803     1276.712      418.205        0.754        0.147      110.115       19.887        0.033      332.324        0.913      867.549
01/08/2015  01:34:00      -87.811      -37.768       -5.576       32.181       25.692       16.378     1035.587      660.070      268.227        0.557        0.098       95.589       17.997        0.035      332.374        0.995      867.565
01/08/2015  01:35:00     -103.465      -44.613       -5.132       19.029       18.125       12.222      362.116      328.515      149.388        0.678        0.042      112.673        9.005        0.006      332.402        1.041      867.584
01/08/2015  01:36:00     -129.698      -37.744      -11.956       13.691       10.763        9.087      187.439      115.838       82.575        0.939        0.019      135.078        6.034        0.002      332.494        1.192      867.594
01/08/2015  01:37:00     -132.118      -21.149      -15.846       15.671       11.050       10.011      245.594      122.111      100.224        0.931        0.023      133.800        7.306        0.003      332.547        1.280      867.604
01/08/2015  01:38:00     -125.795      -25.084      -11.673       21.614       17.675       14.430      467.167      312.409      208.232        0.879        0.049      128.272       12.479        0.009      332.533        1.257      867.625
01/08/2015  01:39:00     -127.719      -17.407      -16.260       20.693       14.080       12.226      428.194      198.235      149.471        0.883        0.039      128.900       10.850        0.007      332.626        1.411      867.637
01/08/2015  01:40:00     -127.283      -17.821      -16.262       17.715       11.898       11.082      313.817      141.572      122.812        0.868        0.029      128.524        8.208        0.004      332.739        1.598      867.643
01/08/2015  01:41:00      -96.006      -41.336      -17.079       13.555       13.479        9.772      183.736      181.679       95.485        0.584        0.023      104.527        7.828        0.006      332.554        1.292      867.643
01/08/2015  01:42:00      -81.820      -44.276      -11.773       25.756       17.691       10.577      663.387      312.989      111.882        0.494        0.054       93.032        7.512        0.007      332.442        1.108      867.652
01/08/2015  01:43:00      -73.965      -49.101      -10.411       19.980       18.679       16.731      399.213      348.906      279.941        0.451        0.051       88.779        9.340        0.011      332.389        1.020      867.659
01/08/2015  01:44:00      -70.836      -42.007      -16.773       16.826       20.574       16.334      283.124      423.270      266.810        0.402        0.049       82.355       10.044        0.015      332.462        1.141      867.654
01/08/2015  01:45:00      -68.479      -52.706      -14.294       16.175       18.339       15.291      261.618      336.314      233.807        0.425        0.042       86.413        9.876        0.013      332.415        1.061      867.646
01/08/2015  01:46:00      -84.038      -72.304      -12.671       24.899       24.375       16.038      619.966      594.136      257.222        0.696        0.074      110.861       11.963        0.012      332.450        1.121      867.644
01/08/2015  01:47:00     -114.436      -66.542      -13.973       24.111       17.228       14.624      581.339      296.804      213.873        0.941        0.055      132.376        7.245        0.003      332.397        1.032      867.644
01/08/2015  01:48:00     -122.715      -23.648      -10.330       29.987       21.070       16.576      899.215      443.966      274.772        0.867        0.081      124.973       13.120        0.011      332.369        0.987      867.648
01/08/2015  01:49:00     -106.991      -36.609       -4.797       21.089       25.894       13.428      444.758      670.504      180.324        0.705        0.065      113.081       11.428        0.010      332.474        1.161      867.644
01/08/2015  01:50:00     -104.043      -52.924       -5.238       17.082       17.692       13.268      291.802      312.991      176.037        0.722        0.039      116.730        8.278        0.005      332.431        1.089      867.637
01/08/2015  01:51:00     -107.351      -38.726      -14.017       19.449       23.627        9.771      378.266      558.232       95.465        0.713        0.052      114.122        7.302        0.004      332.348        0.952      867.639
01/08/2015  01:52:00      -94.074      -38.807       -8.899       25.042       14.385       13.644      627.088      206.940      186.161        0.573        0.051      101.764       14.382        0.020      332.364        0.979      867.630
01/08/2015  01:53:00     -112.571      -40.055       -7.375       12.056       14.316       10.118      145.358      204.954      102.379        0.739        0.023      119.485        4.334        0.001      332.321        0.908      867.617
01/08/2015  01:54:00     -122.901      -36.968      -11.903       15.589       14.804       10.297      243.006      219.169      106.028        0.859        0.028      128.341        7.030        0.003      332.340        0.939      867.614
01/08/2015  01:55:00     -114.010      -37.759       -7.657       23.706       16.883       12.656      561.979      285.026      160.178        0.774        0.050      120.100       11.689        0.009      332.253        0.795      867.612
01/08/2015  01:56:00     -112.691      -35.746       -7.026       30.296       22.476       13.029      917.827      505.182      169.752        0.781        0.080      118.224       12.733        0.012      332.197        0.705      867.615
01/08/2015  01:57:00     -121.964      -38.484       -8.776       25.886       18.245       12.990      670.069      332.886      168.753        0.880        0.059      127.892       10.585        0.007      332.193        0.698      867.610
01/08/2015  01:58:00     -114.178      -32.337       -1.608       30.567       26.081       15.854      934.364      680.199      251.359        0.798        0.093      118.669       13.482        0.013      332.243        0.778      867.597
01/08/2015  01:59:00      -95.414      -27.546        1.580       29.615       23.407       16.784      877.032      547.870      281.689        0.579        0.085       99.311       15.194        0.023      332.237        0.770      867.586
01/08/2015  02:00:00     -120.556      -19.213       -9.842       21.509       17.757       12.624      462.618      315.299      159.368        0.797        0.047      122.078       11.516        0.009      332.337        0.933      867.577
01/08/2015  02:01:00     -124.774      -20.891      -12.716       24.038       12.268       12.513      577.801      150.508      156.575        0.853        0.044      126.511       13.923        0.012      332.463        1.141      867.580
01/08/2015  02:02:00     -114.125      -34.469      -14.066       16.653        9.868        9.078      277.315       97.376       82.402        0.743        0.023      119.217        8.366        0.005      332.485        1.176      867.572
01/08/2015  02:03:00      -96.793      -43.660       -5.724       18.839       13.650       11.026      354.920      186.335      121.575        0.599        0.033      106.184        9.276        0.008      332.468        1.149      867.568
01/08/2015  02:04:00      -83.722      -28.301       -6.178       18.259       18.299       14.422      333.401      334.853      208.003        0.436        0.044       88.376       12.025        0.019      332.366        0.981      867.572
01/08/2015  02:05:00     -110.503      -34.157       -8.473       13.714       17.867       10.501      188.077      319.247      110.280        0.703        0.031      115.661        6.115        0.003      332.358        0.968      867.580
01/08/2015  02:06:00     -103.004      -35.617      -10.478       15.917       17.328       13.187      253.353      300.270      173.908        0.636        0.036      108.988       11.247        0.011      332.351        0.956      867.580
01/08/2015  02:07:00      -94.738      -25.259       -8.840       15.043       19.766       10.519      226.300      390.696      110.651        0.521        0.036       98.048        7.272        0.006      332.356        0.965      867.575
01/08/2015  02:08:00      -95.203      -20.624      -10.898       12.426       10.887        8.806      154.417      118.533       77.553        0.498        0.018       97.411        4.809        0.002      332.362        0.975      867.565
01/08/2015  02:09:00      -84.462      -24.356      -13.138        9.254       10.258        7.603       85.635      105.233       57.812        0.407        0.012       87.904        1.778        0.000      332.394        1.026      867.554
01/08/2015  02:10:00      -80.367      -16.782       -9.655        8.895       11.460        8.059       79.121      131.334       64.944        0.355        0.014       82.100        5.177        0.004      332.365        0.980      867.549
01/08/2015  02:11:00      -89.524      -38.406       -8.460        8.298       10.547        7.729       68.856      111.232       59.742        0.490        0.012       97.414        6.138        0.004      332.351        0.955      867.546
01/08/2015  02:12:00      -83.656      -32.066       -0.951       16.781       15.291       12.417      281.606      233.805      154.182        0.435        0.033       89.591        6.806        0.006      332.363        0.976      867.550
01/08/2015  02:13:00      -86.523      -29.500        0.259       19.016       18.062       11.211      361.615      326.225      125.682        0.458        0.041       91.413        8.776        0.009      332.349        0.952      867.556
01/08/2015  02:14:00      -52.266      -34.218        1.885       25.781       17.498       13.489      664.679      306.175      181.962        0.253        0.058       62.471        9.186        0.022      332.298        0.869      867.575
01/08/2015  02:15:00      -80.982      -48.514       -4.688       24.568       18.455       14.952      603.610      340.605      223.576        0.505        0.058       94.401        4.369        0.002      332.143        0.614      867.589
01/08/2015  02:16:00      -80.128      -44.600        4.202       36.977       20.743       16.932     1367.297      430.270      286.693        0.526        0.104       91.704       16.608        0.033      332.121        0.579      867.589
01/08/2015  02:17:00      -93.143      -59.870        4.744       50.179       30.323       20.240     2517.957      919.508      409.648        0.806        0.192      110.725       23.197        0.044      332.191        0.692      867.577
01/08/2015  02:18:00      -93.624      -47.093        4.960       33.435       25.759       15.681     1117.905      663.518      245.904        0.652        0.101      104.800       16.352        0.024      332.190        0.693      867.571
01/08/2015  02:19:00      -88.912      -31.586        8.810       32.850       24.629       16.342     1079.099      606.602      267.073        0.547        0.098       94.356       15.029        0.025      332.139        0.607      867.555
01/08/2015  02:20:00      -91.676      -30.538        1.254       33.161       27.830       16.940     1099.632      774.484      286.949        0.575        0.108       96.628       13.644        0.020      332.235        0.766      867.554
01/08/2015  02:21:00     -106.081      -32.921        1.900       36.624       21.681       16.807     1341.300      470.057      282.479        0.722        0.105      111.072       19.470        0.031      332.156        0.635      867.545
01/08/2015  02:22:00      -93.512      -22.818        0.825       37.581       27.536       17.288     1412.315      758.226      298.873        0.587        0.123       96.256       18.294        0.036      332.118        0.574      867.536
01/08/2015  02:23:00      -81.269      -27.688        3.054       35.691       26.057       16.922     1273.849      678.943      286.345        0.481        0.112       85.856       15.321        0.032      332.223        0.747      867.525
01/08/2015  02:24:00      -75.483      -31.920        1.563       29.577       20.705       15.439      874.810      428.696      238.366        0.413        0.077       81.955       15.731        0.037      332.233        0.764      867.511
01/08/2015  02:25:00      -48.094      -31.884        3.177       25.620       18.756       11.973      656.387      351.787      143.357        0.225        0.058       57.702       12.259        0.045      332.211        0.727      867.494
01/08/2015  02:26:00      -50.478      -10.860       -0.527       15.800       21.709       10.366      249.642      471.279      107.454        0.175        0.041       51.633        7.667        0.022      332.212        0.729      867.470
01/08/2015  02:27:00      -46.238      -20.629       -1.305       14.524       15.238        7.928      210.933      232.209       62.847        0.154        0.025       50.631        7.045        0.019      332.238        0.771      867.439
01/08/2015  02:28:00      -53.690      -12.458       -5.007       13.345       13.332        8.732      178.085      177.733       76.250        0.175        0.022       55.116        7.066        0.016      332.284        0.845      867.410
01/08/2015  02:29:00      -71.643      -18.333       -7.427       10.380        9.521        8.924      107.749       90.650       79.644        0.290        0.014       73.951        4.858        0.004      332.241        0.777      867.393
01/08/2015  02:30:00      -64.726      -10.955       -3.044       20.553       15.427       11.669      422.416      237.995      136.174        0.256        0.040       65.647       11.463        0.030      332.225        0.751      867.382
01/08/2015  02:31:00      -73.358      -20.847       -4.826       17.123       14.972       13.595      293.180      224.163      184.812        0.327        0.035       76.263        9.630        0.016      332.226        0.752      867.369
01/08/2015  02:32:00      -70.487      -20.356      -11.105       15.726       15.226        9.291      247.314      231.832       86.314        0.304        0.028       73.367        7.557        0.011      332.166        0.651      867.357
01/08/2015  02:33:00      -50.666      -15.957       -8.290       13.771       17.054       10.102      189.643      290.833      102.043        0.174        0.029       53.120        6.981        0.017      332.138        0.606      867.348
01/08/2015  02:34:00      -47.781       -3.747       -8.412       14.769       12.673        6.763      218.111      160.599       45.736        0.140        0.021       47.927        7.421        0.024      332.164        0.649      867.334
01/08/2015  02:35:00       -8.689       -9.191       -6.346       12.321        7.501        5.178      151.798       56.269       26.809        0.022        0.012       12.648        4.324        0.117      332.185        0.684      867.316
01/08/2015  02:36:00       17.276       -3.145       -0.075        4.796        6.790        3.695       23.004       46.109       13.652        0.020        0.004       17.560        3.790        0.047      332.208        0.723      867.303
01/08/2015  02:37:00       15.580       -3.278        6.026        8.007       10.850        6.687       64.107      117.717       44.716        0.026        0.011       15.921        5.339        0.112      332.275        0.830      867.285
01/08/2015  02:38:00       14.794       22.630        6.386       13.917       25.085       13.467      193.684      629.241      181.365        0.089        0.050       27.037       13.362        0.244      332.307        0.884      867.282
01/08/2015  02:39:00       -2.354       -0.766       15.361       12.450        5.732        7.081      155.015       32.853       50.145        0.024        0.012        2.476        6.172        6.215      332.114        0.566      867.277
01/08/2015  02:40:00      -25.316       -2.958       -3.251       12.089        8.256        8.417      146.135       68.157       70.852        0.047        0.014       25.488        7.172        0.079      332.137        0.605      867.274
01/08/2015  02:41:00      -53.566      -22.410       -7.656        8.431        8.349        7.291       71.082       69.714       53.157        0.181        0.010       58.065        2.246        0.001      331.964        0.319      867.274
01/08/2015  02:42:00      -68.393      -10.666      -11.750       11.928        9.913        8.923      142.287       98.266       79.623        0.262        0.016       69.220        3.439        0.002      331.924        0.253      867.278
01/08/2015  02:43:00      -60.284      -13.642      -13.173       12.745       12.814       10.013      162.434      164.190      100.257        0.221        0.021       61.808        8.073        0.017      331.896        0.207      867.268
01/08/2015  02:44:00      -51.388      -17.101      -12.334       10.731        8.295        9.688      115.162       68.809       93.857        0.168        0.014       54.159        6.375        0.014      331.934        0.269      867.263
01/08/2015  02:45:00      -52.020      -28.939       -3.101       18.602       10.810        9.514      346.044      116.850       90.524        0.205        0.028       59.527        5.382        0.008      331.850        0.131      867.257
01/08/2015  02:46:00      -84.485      -17.878       -9.188       10.786        7.967        8.248      116.328       63.474       68.028        0.389        0.012       86.356        6.655        0.006      331.774        0.004      867.253
01/08/2015  02:47:00      -83.749      -19.729      -15.848        7.874        9.274        6.189       61.995       86.012       38.299        0.392        0.009       86.041        3.459        0.002      331.812        0.068      867.250
01/08/2015  02:48:00      -84.347      -23.271      -14.133        8.502       10.502        7.392       72.291      110.286       54.641        0.405        0.012       87.498        3.096        0.001      331.812        0.068      867.245
01/08/2015  02:49:00      -76.251      -13.168       -6.946       13.542       10.615        8.668      183.380      112.675       75.130        0.320        0.019       77.380        6.373        0.007      331.805        0.056      867.228
01/08/2015  02:50:00      -88.820       -2.460       -9.017       21.626       12.350       13.500      467.672      152.520      182.245        0.439        0.040       88.854       13.237        0.022      331.784        0.022      867.214
01/08/2015  02:51:00     -112.203      -15.112      -16.026       15.691       12.065       12.169      246.192      145.565      148.092        0.681        0.027      113.216        6.461        0.003      331.841        0.116      867.197
01/08/2015  02:52:00     -118.482      -20.862      -12.775       18.371       14.538       12.348      337.505      211.347      152.476        0.767        0.035      120.305       10.516        0.008      331.857        0.142      867.191
01/08/2015  02:53:00     -115.444      -12.415      -15.470       22.096       12.390       15.521      488.245      153.520      240.891        0.730        0.044      116.110       12.558        0.012      331.793        0.038      867.190
01/08/2015  02:54:00     -112.828       -5.096      -12.154       24.504       17.637       14.869      600.454      311.073      221.079        0.702        0.057      112.943       12.926        0.013      331.776        0.010      867.175
01/08/2015  02:55:00     -121.405       -7.372      -12.749       21.623       15.407       13.818      467.567      237.383      190.930        0.793        0.045      121.629       11.517        0.009      331.796        0.043      867.163
01/08/2015  02:56:00     -103.297      -14.579      -12.936       30.938       15.446       16.217      957.163      238.578      262.979        0.625        0.073      104.321       17.362        0.028      331.765       -0.008      867.149
01/08/2015  02:57:00     -102.560      -24.229      -13.607       26.155       19.307       17.871      684.061      372.774      319.360        0.633        0.069      105.383       17.390        0.027      331.688       -0.136      867.135
01/08/2015  02:58:00     -100.205      -21.531      -14.577       23.357       14.795        9.836      545.569      218.898       96.743        0.579        0.043      102.492        8.324        0.007      331.722       -0.080      867.119
01/08/2015  02:59:00      -80.095      -25.712       -4.455       31.741       23.539       18.454     1007.484      554.097      340.532        0.450        0.095       84.120       20.686        0.060      331.638       -0.218      867.115
01/08/2015  03:00:00     -104.273      -33.313      -12.963       17.662       14.323        9.889      311.943      205.156       97.797        0.638        0.031      109.465        7.213        0.004      331.753       -0.029      867.118
01/08/2015  03:01:00     -111.881      -36.771      -17.043       16.961       15.975       12.731      287.677      255.189      162.081        0.743        0.035      117.769        9.955        0.007      331.795        0.040      867.111
01/08/2015  03:02:00     -110.066      -27.515      -12.359       12.554       13.063       11.487      157.603      170.649      131.951        0.674        0.023      113.453        7.807        0.005      331.808        0.062      867.101
01/08/2015  03:03:00      -92.502      -21.150       -9.302       16.737       13.618       13.859      280.126      185.450      192.081        0.487        0.033       94.890       11.024        0.013      331.818        0.078      867.087
01/08/2015  03:04:00      -88.075      -15.977      -13.403       20.359       17.576       12.526      414.508      308.928      156.905        0.454        0.044       89.512       10.964        0.015      331.838        0.111      867.074
01/08/2015  03:05:00      -57.563       -6.952       -2.915       23.498       14.950       13.975      552.134      223.509      195.301        0.217        0.049       57.981       13.414        0.054      331.767       -0.007      867.062
01/08/2015  03:06:00      -72.264      -32.930      -17.482       18.383       14.947       12.492      337.942      223.405      156.041        0.366        0.036       79.413       10.459        0.017      331.802        0.051      867.067
01/08/2015  03:07:00      -58.629      -29.962      -10.877       19.192       20.018       13.905      368.332      400.709      193.350        0.271        0.048       65.841        9.710        0.022      331.807        0.059      867.063
01/08/2015  03:08:00     -107.199      -31.331      -13.596       14.156       10.945        8.675      200.402      119.793       75.260        0.653        0.020      111.684        5.825        0.003      331.706       -0.105      867.060
01/08/2015  03:09:00     -132.585      -27.557      -14.395       12.763       15.672       12.440      162.888      245.623      154.746        0.955        0.028      135.419        5.883        0.002      331.718       -0.086      867.048
01/08/2015  03:10:00     -131.696      -14.940      -14.174       20.409       14.974       13.102      416.518      224.235      171.653        0.929        0.041      132.541        8.540        0.004      331.695       -0.123      867.037
01/08/2015  03:11:00     -120.380      -22.717      -11.691       21.012       13.018       13.616      441.497      169.475      185.399        0.797        0.040      122.505       11.745        0.009      331.715       -0.091      867.030
01/08/2015  03:12:00     -112.073      -32.030       -8.905       11.873       13.660       13.793      140.977      186.597      190.254        0.709        0.026      116.560        9.144        0.006      331.738       -0.054      867.029
01/08/2015  03:13:00     -118.698      -26.319      -13.065       27.296       21.462       14.976      745.070      460.601      224.281        0.819        0.071      121.581       13.175        0.012      331.714       -0.092      867.028
01/08/2015  03:14:00      -90.197       -7.169       -6.323       41.523       26.141       21.013     1724.173      683.371      441.546        0.554        0.142       90.482       23.319        0.066      331.706       -0.106      867.033
01/08/2015  03:15:00      -95.811       -7.968       -9.339       34.985       25.886       22.331     1223.928      670.073      498.677        0.586        0.120       96.142       21.142        0.048      331.830        0.098      867.023
01/08/2015  03:16:00      -94.077        3.663       -4.708       44.926       34.624       26.223     2018.321     1198.806      687.654        0.639        0.195       94.148       24.351        0.067      331.860        0.148      867.010
01/08/2015  03:17:00      -59.700        0.607        1.362       54.255       29.583       24.392     2943.644      875.153      594.980        0.399        0.221       59.703       25.135        0.177      331.819        0.080      866.990
01/08/2015  03:18:00      -48.852      -15.322       -4.791       41.733       22.085       21.103     1741.667      487.748      445.355        0.266        0.134       51.199       20.753        0.164      331.910        0.229      866.982
01/08/2015  03:19:00      -63.097      -19.585       -0.326       29.976       22.609       16.357      898.576      511.157      267.562        0.302        0.084       66.067       15.296        0.054      331.877        0.177      866.978
01/08/2015  03:20:00      -84.879      -15.000      -10.854       20.565       25.529       12.416      422.899      651.710      154.164        0.439        0.061       86.194       10.750        0.016      331.742       -0.045      866.969
01/08/2015  03:21:00      -74.192      -35.271      -16.510       19.284       30.690       16.006      371.881      941.851      256.195        0.430        0.078       82.149        7.030        0.007      331.698       -0.119      866.951
01/08/2015  03:22:00      -99.021       -9.378      -11.767       16.719       17.998       14.646      279.529      323.945      214.511        0.542        0.041       99.464       10.213        0.011      331.670       -0.164      866.933
01/08/2015  03:23:00      -84.223        8.889      -17.134       20.523       10.266       11.754      421.180      105.389      138.153        0.407        0.033       84.691       11.354        0.018      331.776        0.010      866.913
01/08/2015  03:24:00      -21.004       10.798       -2.043       13.465        8.398        5.465      181.293       70.520       29.867        0.042        0.014       23.617        5.120        0.047      332.424        1.078      866.899
01/08/2015  03:25:00      -29.422      -10.735       -9.940       12.632        9.152        5.676      159.578       83.765       32.212        0.068        0.014       31.319        4.077        0.017      332.065        0.486      866.891
01/08/2015  03:26:00      -50.456      -29.529      -12.442       14.356        8.407       10.125      206.107       70.677      102.518        0.198        0.019       58.461        5.230        0.008      331.878        0.177      866.880
01/08/2015  03:27:00      -71.729      -29.258      -13.755       12.508       10.867        8.781      156.459      118.082       77.103        0.327        0.018       77.467        4.185        0.003      331.822        0.083      866.871
01/08/2015  03:28:00      -60.060      -10.587       -8.650        7.878       12.390        6.213       62.058      153.512       38.602        0.202        0.013       60.985        4.882        0.006      331.795        0.040      866.855
01/08/2015  03:29:00      -15.021       15.361       -3.003       17.306        8.840        9.033      299.490       78.145       81.594        0.046        0.023       21.485        9.278        0.186      332.418        1.067      866.837
01/08/2015  03:30:00       -3.106       -9.510       -6.628        8.630       11.123        6.077       74.485      123.713       36.935        0.019        0.012       10.005        6.390        0.408      332.544        1.275      866.831
01/08/2015  03:31:00      -11.689      -27.102       -1.931        8.617       10.624        9.713       74.260      112.867       94.336        0.058        0.014       29.516        6.259        0.045      332.347        0.950      866.841
01/08/2015  03:32:00      -33.328      -36.988      -12.257       16.169       16.343       16.251      261.432      267.106      264.096        0.171        0.040       49.788       14.307        0.083      331.879        0.178      866.866
01/08/2015  03:33:00      -77.116      -13.218      -12.084       14.325       13.402        8.587      205.202      179.607       73.729        0.336        0.023       78.241        7.514        0.009      331.713       -0.093      866.876
01/08/2015  03:34:00      -78.724      -16.621      -10.325       13.421       12.564        7.834      180.124      157.847       61.377        0.349        0.020       80.459        7.618        0.009      331.722       -0.079      866.881
01/08/2015  03:35:00      -67.531      -27.664      -12.562        9.820        9.985        9.022       96.435       99.703       81.395        0.288        0.014       72.978        4.522        0.004      331.742       -0.048      866.891
01/08/2015  03:36:00     -109.351      -18.576      -15.471       14.192       12.468       10.575      201.405      155.458      111.833        0.651        0.023      110.917        5.646        0.003      331.754       -0.027      866.889
01/08/2015  03:37:00      -87.679      -10.648      -15.809       13.716        9.168        9.501      188.125       84.061       90.270        0.421        0.018       88.323        5.466        0.004      331.716       -0.089      866.889
01/08/2015  03:38:00      -79.137      -16.611      -14.538       16.368       14.336        8.427      267.924      205.529       71.016        0.365        0.027       80.861        6.413        0.006      331.665       -0.173      866.882
01/08/2015  03:39:00     -100.171      -37.591      -13.157       10.517       20.192        8.144      110.611      407.719       66.320        0.610        0.029      106.992        5.827        0.003      331.649       -0.199      866.878
01/08/2015  03:40:00      -94.758      -21.286      -12.802       21.058       14.415       12.379      443.451      207.798      153.242        0.520        0.040       97.119        6.722        0.005      331.633       -0.225      866.872
01/08/2015  03:41:00      -92.398      -21.632      -10.304       21.897       19.550       16.052      479.463      382.218      257.668        0.512        0.056       94.896       13.933        0.022      331.683       -0.145      866.868
01/08/2015  03:42:00     -102.415      -35.352       -8.223       12.698        8.771        8.413      161.238       76.923       70.786        0.606        0.015      108.345        5.607        0.003      331.753       -0.029      866.867
01/08/2015  03:43:00      -84.557      -29.700       -9.913       11.938       12.998        8.255      142.523      168.949       68.141        0.425        0.019       89.622        4.042        0.002      331.796        0.042      866.867
01/08/2015  03:44:00      -80.281      -18.411      -13.782       10.598        8.651        8.768      112.317       74.833       76.885        0.362        0.013       82.365        2.831        0.001      331.796        0.041      866.861
01/08/2015  03:45:00      -82.431       -1.214      -16.511       11.467       10.723        8.031      131.481      114.988       64.497        0.369        0.016       82.440        6.852        0.007      331.774        0.005      866.859
01/08/2015  03:46:00      -62.057       -6.687      -13.089       10.748        8.759        7.891      115.525       76.727       62.269        0.216        0.013       62.416        6.721        0.012      331.771       -0.001      866.851
01/08/2015  03:47:00      -51.433       -5.882       -9.578        7.113        4.913        7.486       50.593       24.140       56.038        0.145        0.007       51.768        4.479        0.007      331.810        0.066      866.844
01/08/2015  03:48:00      -39.458      -13.543       -9.177        6.640        7.725        4.544       44.087       59.680       20.652        0.097        0.006       41.717        2.685        0.004      331.910        0.230      866.837
01/08/2015  03:49:00      -23.686       -8.462       -5.991       13.159        7.492        5.945      173.166       56.127       35.337        0.047        0.013       25.152        6.181        0.060      332.048        0.457      866.838
01/08/2015  03:50:00       -1.844       -0.822        1.416        9.037        7.354        5.673       81.666       54.081       32.184        0.009        0.008        2.019        3.401        2.839      332.291        0.857      866.843
01/08/2015  03:51:00       29.631       -4.420        3.701       12.596       14.162        8.759      158.655      200.561       76.726        0.067        0.022       29.959        7.052        0.055      332.379        1.003      866.835
01/08/2015  03:52:00       39.057        7.457        3.225       10.839        6.302        6.238      117.486       39.711       38.907        0.089        0.010       39.762        2.569        0.004      332.389        1.018      866.836
01/08/2015  03:53:00       31.724        1.147       -1.975        8.953        7.768        5.496       80.150       60.348       30.205        0.059        0.009       31.745        3.851        0.015      332.390        1.020      866.830
01/08/2015  03:54:00       20.238       -2.603       -0.095       13.648        8.604        5.759      186.270       74.025       33.169        0.035        0.015       20.404        6.260        0.094      332.346        0.948      866.827
01/08/2015  03:55:00       12.121        7.035        5.643        6.587        8.076        6.857       43.385       65.225       47.017        0.019        0.008       14.015        6.468        0.213      332.139        0.608      866.818
01/08/2015  03:56:00       27.051       15.641       12.983        7.725        5.254        7.409       59.683       27.599       54.898        0.064        0.007       31.247        5.387        0.030      332.076        0.504      866.809
01/08/2015  03:57:00       31.600       11.911        2.838        4.961        6.183        5.269       24.614       38.233       27.766        0.062        0.005       33.771        2.694        0.006      332.039        0.442      866.800
01/08/2015  03:58:00       25.603       20.620        6.928        6.012        5.198        4.618       36.149       27.020       21.326        0.061        0.004       32.874        1.635        0.002      331.955        0.304      866.805
01/08/2015  03:59:00       32.008       16.720        5.740        5.513        5.589        6.765       30.390       31.235       45.771        0.072        0.005       36.112        5.560        0.024      331.919        0.243      866.799
01/08/2015  04:00:00       37.484       24.048       -2.647       12.970        6.561        7.742      168.230       43.040       59.936        0.113        0.014       44.535        5.126        0.013      331.827        0.093      866.786
01/08/2015  04:01:00       49.497       42.488       17.424       16.686       13.855       12.672      278.420      191.967      160.579        0.259        0.032       65.232       10.827        0.028      331.770       -0.001      866.777
01/08/2015  04:02:00       64.910       47.553       15.507       21.368       13.336       12.838      456.582      177.860      164.820        0.376        0.040       80.465        6.322        0.006      331.845        0.122      866.774
01/08/2015  04:03:00       84.401       39.595       11.322       17.605       13.170       13.242      309.934      173.460      175.344        0.474        0.033       93.227       10.788        0.013      331.950        0.297      866.778
01/08/2015  04:04:00       70.394       33.482        7.911       18.300        9.193       10.363      334.903       84.504      107.392        0.333        0.026       77.951        6.950        0.008      331.915        0.239      866.780
01/08/2015  04:05:00       72.955       34.423       17.745       19.830       17.524       16.026      393.227      307.096      256.842        0.389        0.048       80.669       13.078        0.026      331.940        0.279      866.776
01/08/2015  04:06:00       68.711       36.712        8.968       18.403       14.541       10.985      338.664      211.451      120.674        0.341        0.034       77.904        5.641        0.005      331.949        0.293      866.760
01/08/2015  04:07:00       44.320       36.975       12.559       14.975       12.525       10.975      224.263      156.879      120.456        0.200        0.025       57.718        9.092        0.025      331.902        0.217      866.754
01/08/2015  04:08:00       37.475       17.672        7.387       20.734       14.765       10.989      429.892      218.008      120.756        0.127        0.038       41.433        5.453        0.017      331.828        0.095      866.752
01/08/2015  04:09:00       44.246       13.853       17.067       24.623       13.292       12.991      606.291      176.667      168.761        0.170        0.048       46.364       13.382        0.083      331.712       -0.096      866.754
01/08/2015  04:10:00       50.563       15.003       23.952       21.746       17.742       18.657      472.895      314.766      348.075        0.225        0.057       52.742       16.894        0.103      331.652       -0.194      866.746
01/08/2015  04:11:00       21.513       21.951       19.984       23.288       15.520       19.038      542.313      240.871      362.432        0.124        0.057       30.735       19.164        0.389      331.634       -0.223      866.746
01/08/2015  04:12:00       -0.021       40.181       51.442        9.693       18.481        9.038       93.961      341.558       81.682        0.239        0.026       40.181        6.408        0.025      331.696       -0.122      866.738
01/08/2015  04:13:00       47.507       14.883       33.884       32.530       25.105       19.034     1058.183      630.268      362.277        0.284        0.103       49.784       23.132        0.216      331.828        0.094      866.720
01/08/2015  04:14:00       73.745        4.134       15.962       39.633       21.217       21.891     1570.771      450.152      479.229        0.410        0.125       73.860       22.599        0.094      331.873        0.168      866.698
01/08/2015  04:15:00       33.712        6.991       22.993       30.680       27.286       18.618      941.251      744.544      346.644        0.187        0.102       34.429       19.049        0.306      331.817        0.077      866.675
01/08/2015  04:16:00       35.483       22.954       24.399       17.773       17.471       14.406      315.864      305.233      207.546        0.160        0.041       42.260       10.400        0.061      331.759       -0.019      866.657
01/08/2015  04:17:00       51.704       29.035       12.409       19.034       18.690       14.317      362.283      349.321      204.963        0.229        0.046       59.298        6.448        0.012      331.769       -0.003      866.643
01/08/2015  04:18:00       46.114        9.284       14.153       20.302       14.077       12.708      412.177      198.169      161.485        0.159        0.039       47.039        9.285        0.039      331.787        0.027      866.640
01/08/2015  04:19:00       51.433       33.261       13.197       17.505       14.506       16.031      306.410      210.438      256.988        0.235        0.039       61.251        9.506        0.024      331.746       -0.041      866.648
01/08/2015  04:20:00       37.398       23.858       10.774       13.028        7.688        9.633      169.720       59.101       92.791        0.120        0.016       44.360        5.530        0.016      331.719       -0.083      866.653
01/08/2015  04:21:00       15.716       20.156       13.340       14.002        9.266        6.990      196.066       85.864       48.867        0.058        0.017       25.559        6.589        0.066      331.700       -0.117      866.651
01/08/2015  04:22:00       18.331       22.957        9.476       10.443       15.374        7.380      109.047      236.372       54.461        0.068        0.020       29.377        4.090        0.019      331.714       -0.092      866.640
01/08/2015  04:23:00       -4.472       -3.473        1.173        9.663        7.515        7.370       93.370       56.476       54.318        0.012        0.010        5.662        4.639        0.671      331.637       -0.218      866.626
01/08/2015  04:24:00      -43.814        0.299       -3.099        7.910        6.851        7.494       62.572       46.932       56.153        0.105        0.008       43.815        6.559        0.022      331.562       -0.342      866.614
01/08/2015  04:25:00      -45.386       -5.834       -7.800        7.814        5.004        5.103       61.055       25.039       26.036        0.113        0.006       45.759        3.203        0.005      331.547       -0.368      866.607
01/08/2015  04:26:00      -55.448      -19.249       -7.171        7.270        8.497        5.650       52.846       72.202       31.922        0.183        0.008       58.694        3.961        0.005      331.520       -0.411      866.606
01/08/2015  04:27:00      -76.266      -15.385       -9.907       17.274       24.297       11.030      298.390      590.322      121.669        0.358        0.051       77.803       11.438        0.022      331.425       -0.569      866.610
01/08/2015  04:28:00      -87.440       -4.880      -14.291       12.355       15.415        9.906      152.643      237.626       98.133        0.418        0.024       87.576        6.838        0.006      331.433       -0.557      866.611
01/08/2015  04:29:00      -99.172        7.593      -16.449        7.738        8.870        6.501       59.882       78.668       42.261        0.517        0.009       99.463        2.939        0.001      331.539       -0.381      866.606
01/08/2015  04:30:00      -80.435        3.391      -14.512       14.399        9.914        8.604      207.328       98.278       74.033        0.354        0.019       80.507        7.037        0.008      331.521       -0.411      866.597
01/08/2015  04:31:00      -89.649       -2.712      -12.636       11.900        9.424        9.488      141.604       88.818       90.018        0.426        0.016       89.690        4.476        0.002      331.569       -0.331      866.585
01/08/2015  04:32:00      -92.193        8.854      -12.683       10.242        8.165        5.705      104.902       66.664       32.543        0.447        0.010       92.617        3.301        0.001      331.668       -0.169      866.574
01/08/2015  04:33:00      -85.226        0.601       -8.427       19.356       12.539        7.874      374.662      157.214       61.998        0.396        0.030       85.228        8.134        0.009      331.597       -0.283      866.567
01/08/2015  04:34:00     -106.289        2.620       -7.516       13.430        6.728        7.504      180.356       45.262       56.307        0.582        0.014      106.321        5.681        0.003      331.673       -0.160      866.565
01/08/2015  04:35:00      -87.284      -12.197       -8.728       23.269       18.046       10.886      541.437      325.666      118.503        0.441        0.049       88.132        8.764        0.010      331.516       -0.419      866.571
01/08/2015  04:36:00      -95.601      -10.770       -2.863       22.745       17.873       14.235      517.353      319.437      202.642        0.515        0.052       96.205       11.419        0.014      331.419       -0.579      866.569
01/08/2015  04:37:00      -92.632       -9.241       -6.679       19.310       19.866       10.358      372.878      394.640      107.288        0.479        0.044       93.092        8.586        0.009      331.548       -0.365      866.566
01/08/2015  04:38:00      -72.542      -17.116       -1.993       25.652       25.502       14.032      658.031      650.372      196.892        0.353        0.075       74.534       14.399        0.037      331.622       -0.243      866.558
01/08/2015  04:39:00      -72.288      -24.633        1.204       42.928       24.404       14.103     1842.773      595.555      198.892        0.423        0.132       76.370       19.662        0.066      331.673       -0.160      866.555
01/08/2015  04:40:00      -51.626      -27.081        1.728       26.148       25.682       15.184      683.704      659.553      230.545        0.249        0.079       58.298       13.024        0.050      331.611       -0.261      866.571
01/08/2015  04:41:00      -82.278      -36.048       -3.497       17.009       17.261       10.707      289.300      297.953      114.630        0.439        0.035       89.828        8.320        0.009      331.658       -0.185      866.588
01/08/2015  04:42:00      -84.039      -44.176       -6.157       16.077       15.468       15.932      258.466      239.257      253.822        0.490        0.038       94.943        9.693        0.010      331.418       -0.580      866.604
01/08/2015  04:43:00     -103.554      -28.361       -8.845       22.083       20.264       20.196      487.649      410.640      407.873        0.646        0.065      107.367       16.791        0.024      331.283       -0.803      866.610
01/08/2015  04:44:00      -95.964      -25.280       -5.222       24.794       18.166       16.234      614.720      329.992      263.555        0.554        0.060       99.238       12.878        0.017      331.255       -0.847      866.604
01/08/2015  04:45:00      -73.499      -24.118        1.320       24.230       24.041       19.160      587.086      577.975      367.101        0.376        0.077       77.355       15.863        0.042      331.290       -0.789      866.600
01/08/2015  04:46:00      -96.807      -30.925       -5.315       22.036       20.918       17.390      485.604      437.582      302.416        0.579        0.061      101.626       12.389        0.015      331.215       -0.914      866.611
01/08/2015  04:47:00      -62.743      -16.060        0.088       44.498       37.076       22.528     1980.070     1374.628      507.494        0.403        0.193       64.766       22.155        0.117      331.252       -0.852      866.612
01/08/2015  04:48:00      -51.138       -8.732       -8.578       37.306       30.544       21.702     1391.744      932.958      470.958        0.278        0.140       51.878       17.674        0.116      331.424       -0.571      866.616
01/08/2015  04:49:00     -116.826      -14.602      -14.336       34.768       38.724       25.553     1208.811     1499.584      652.949        0.871        0.168      117.735       21.767        0.034      331.405       -0.601      866.626
01/08/2015  04:50:00      -79.462      -15.598       -5.785       34.632       35.539       19.933     1199.347     1262.994      397.338        0.472        0.143       80.979       15.966        0.039      331.371       -0.658      866.635
01/08/2015  04:51:00      -95.938       -0.481      -10.079       31.907       28.090       18.897     1018.076      789.073      357.087        0.573        0.108       95.939       18.371        0.037      331.359       -0.677      866.637
01/08/2015  04:52:00      -55.027       -5.146       -4.246       33.245       25.129       15.365     1105.244      631.477      236.075        0.252        0.099       55.268       15.158        0.075      331.332       -0.722      866.636
01/08/2015  04:53:00      -46.118        8.524       -8.309       27.477       24.367       14.851      755.000      593.754      220.559        0.192        0.078       46.899        9.201        0.038      331.462       -0.507      866.641
01/08/2015  04:54:00      -73.696       -6.892      -16.736       14.557       23.499       11.947      211.904      552.213      142.725        0.333        0.045       74.018        7.141        0.009      331.418       -0.580      866.642
01/08/2015  04:55:00      -69.872      -11.403      -14.376       24.909       14.657       14.261      620.469      214.827      203.375        0.313        0.052       70.796        9.500        0.018      331.334       -0.718      866.637
01/08/2015  04:56:00      -41.789      -10.612       -7.143       19.850       19.519       12.338      394.032      380.988      152.215        0.142        0.046       43.116        5.988        0.019      331.338       -0.712      866.636
01/08/2015  04:57:00      -49.705       -8.801      -12.401       27.279       24.108       13.093      744.120      581.200      171.438        0.210        0.075       50.479       12.035        0.057      331.413       -0.589      866.629
01/08/2015  04:58:00      -47.134       -3.433       -9.014       31.521       22.107       14.895      993.553      488.739      221.849        0.201        0.085       47.259        6.738        0.020      331.371       -0.655      866.636
01/08/2015  04:59:00     -104.918       -4.148      -14.902       35.862       32.563       23.550     1286.047     1060.337      554.614        0.707        0.145      105.000       18.680        0.032      331.351       -0.690      866.652
01/08/2015  05:00:00      -87.369       -4.843       -5.633       54.556       36.412       25.875     2976.351     1325.807      669.493        0.633        0.249       87.503       28.764        0.108      331.323       -0.736      866.661
01/08/2015  05:01:00      -85.111       15.672      -10.240       38.673       27.754       19.963     1495.630      770.261      398.534        0.513        0.133       86.542       12.060        0.019      331.460       -0.510      866.659
01/08/2015  05:02:00      -76.323       11.024       -7.575       33.432       31.162       19.349     1117.718      971.093      374.399        0.423        0.123       77.115       11.013        0.020      331.457       -0.516      866.657
01/08/2015  05:03:00      -99.084       20.469      -12.118       61.860       32.317       23.067     3826.688     1044.408      532.085        0.789        0.270      101.176       25.246        0.062      331.648       -0.199      866.656
01/08/2015  05:04:00     -166.409       41.895      -16.737       47.622       36.829       30.560     2267.822     1356.406      933.911        1.714        0.228      171.602       22.552        0.017      331.710       -0.101      866.664
01/08/2015  05:05:00     -162.153       41.782      -16.857       36.008       34.138       18.115     1296.605     1165.416      328.159        1.556        0.140      167.450       13.178        0.006      331.651       -0.197      866.678
01/08/2015  05:06:00     -153.994       38.495      -10.160       39.901       31.641       22.529     1592.051     1001.151      507.565        1.420        0.155      158.732        9.200        0.003      331.647       -0.202      866.685
01/08/2015  05:07:00     -116.893       30.459       -9.577       47.313       28.852       22.898     2238.497      832.437      524.333        0.914        0.180      120.797       15.236        0.016      331.614       -0.257      866.682
01/08/2015  05:08:00      -51.698       26.419       -6.062       50.276       27.861       19.554     2527.691      776.257      382.371        0.355        0.184       58.058       14.776        0.065      331.717       -0.087      866.677
01/08/2015  05:09:00      -66.207      -14.702       -8.541       34.535       29.579       15.712     1192.691      874.912      246.870        0.349        0.116       67.820       10.980        0.026      331.669       -0.167      866.676
01/08/2015  05:10:00     -100.750      -36.264       -7.509       26.362       22.687       15.172      694.979      514.693      230.175        0.648        0.072      107.077        9.796        0.008      331.449       -0.530      866.691
01/08/2015  05:11:00     -110.140      -22.944      -10.766       26.819       26.811       18.289      719.263      718.828      334.476        0.727        0.089      112.504       17.049        0.023      331.433       -0.554      866.708
01/08/2015  05:12:00     -100.894      -10.569      -12.728       34.736       37.452       22.105     1206.602     1402.675      488.640        0.677        0.155      101.446       14.551        0.021      331.433       -0.556      866.718
01/08/2015  05:13:00     -130.916       -0.290      -17.425       33.184       42.393       24.686     1101.170     1797.163      609.409        1.047        0.175      130.916       13.846        0.011      331.458       -0.513      866.714
01/08/2015  05:14:00     -174.231       58.928      -15.967       50.711       33.388       24.585     2571.599     1114.726      604.418        1.919        0.215      183.927       11.953        0.004      331.649       -0.200      866.712
01/08/2015  05:15:00     -129.795       59.005       -7.384       67.669       34.354       27.717     4579.038     1180.172      768.237        1.345        0.326      142.578       22.407        0.025      331.702       -0.112      866.713
01/08/2015  05:16:00      -71.967       35.555      -12.753       27.961       29.576       19.219      781.837      874.734      369.368        0.432        0.101       80.271       11.209        0.019      331.799        0.047      866.714
01/08/2015  05:17:00      -47.539        6.726       -5.529       12.008       17.912       12.282      144.201      320.854      150.852        0.148        0.031       48.013        5.756        0.014      331.916        0.239      866.712
01/08/2015  05:18:00      -31.716        4.939       -7.198        9.662       16.581       10.393       93.355      274.946      108.016        0.078        0.024       32.098        4.684        0.021      331.885        0.188      866.699
01/08/2015  05:19:00      -22.247       -4.206      -10.111       16.396       11.894        9.746      268.839      141.478       94.979        0.056        0.025       22.642        7.520        0.110      332.072        0.499      866.691
01/08/2015  05:20:00       10.145       -3.269        2.755       16.879       17.730       11.830      284.892      314.336      139.937        0.043        0.037       10.658        8.903        0.698      332.190        0.692      866.685
01/08/2015  05:21:00      -11.215      -22.537       -4.459       14.360        8.554        9.449      206.205       73.165       89.277        0.051        0.018       25.173        4.803        0.036      332.042        0.448      866.681
01/08/2015  05:22:00      -54.271      -27.513      -10.146       15.125       12.412        9.525      228.764      154.050       90.723        0.214        0.024       60.846        4.887        0.006      331.625       -0.239      866.681
01/08/2015  05:23:00      -85.613      -25.040      -15.679       16.450       14.099       10.275      270.603      198.777      105.577        0.439        0.029       89.199        8.818        0.010      331.500       -0.446      866.692
01/08/2015  05:24:00     -126.121      -21.579      -22.968       18.302       10.111        8.863      334.964      102.240       78.544        0.871        0.026      127.954        5.185        0.002      331.510       -0.427      866.707
01/08/2015  05:25:00     -116.025      -17.681      -19.262       13.623       11.870        9.243      185.583      140.886       85.439        0.728        0.021      117.364        4.892        0.002      331.530       -0.396      866.704
01/08/2015  05:26:00     -129.057      -23.097      -16.971       15.898       18.881       11.010      252.760      356.505      121.214        0.910        0.037      131.107        6.919        0.003      331.455       -0.519      866.696
01/08/2015  05:27:00     -119.167      -21.152       -9.870       22.743       19.020       20.038      517.250      361.774      401.521        0.801        0.064      121.030       14.839        0.015      331.339       -0.709      866.687
01/08/2015  05:28:00     -109.256      -28.772      -10.414       22.500       18.343       12.876      506.256      336.449      165.780        0.694        0.050      112.981       11.180        0.010      331.345       -0.701      866.688
01/08/2015  05:29:00      -76.745      -28.559       -5.647       21.131       19.950       14.983      446.511      397.989      224.498        0.390        0.053       81.887       11.160        0.019      331.329       -0.726      866.689
01/08/2015  05:30:00      -86.615      -35.799       -8.308       21.909       17.695       15.572      480.002      313.121      242.477        0.494        0.052       93.722       14.521        0.024      331.362       -0.672      866.690
01/08/2015  05:31:00      -84.566      -62.576       -3.307       32.210       17.809       17.889     1037.516      317.159      320.021        0.638        0.084      105.201       18.556        0.031      331.353       -0.686      866.713
01/08/2015  05:32:00      -37.502      -42.131       -1.838       48.146       31.652       25.903     2317.989     1001.839      670.967        0.359        0.200       56.404       29.585        0.275      331.314       -0.751      866.733
01/08/2015  05:33:00      -49.868      -44.039        0.145       34.075       30.501       17.144     1161.101      930.308      293.905        0.341        0.119       66.530       17.235        0.067      331.314       -0.749      866.743
01/08/2015  05:34:00      -87.875      -51.863       -8.069       22.599       22.265       16.501      510.720      495.729      272.298        0.588        0.064      102.038       10.064        0.010      331.262       -0.835      866.734
01/08/2015  05:35:00      -94.975      -28.890       -1.958       38.452       34.002       20.611     1478.541     1156.154      424.803        0.646        0.153       99.272       22.353        0.051      331.230       -0.889      866.726
01/08/2015  05:36:00      -80.772      -36.444       -4.055       29.194       20.294       17.045      852.316      411.864      290.532        0.471        0.078       88.613        9.024        0.010      331.221       -0.903      866.726
01/08/2015  05:37:00      -22.345      -27.203        8.272       33.706       22.138       15.575     1136.066      490.078      242.575        0.159        0.093       35.203       13.537        0.148      331.262       -0.836      866.722
01/08/2015  05:38:00      -22.066      -42.805       11.388       27.284       22.081       15.566      744.433      487.588      242.308        0.196        0.074       48.158       13.420        0.078      331.283       -0.800      866.718
01/08/2015  05:39:00        2.851      -20.984       -2.655       16.509       20.600        9.491      272.560      424.363       90.072        0.062        0.039       21.177        4.473        0.045      331.321       -0.739      866.717
01/08/2015  05:40:00      -42.831      -18.863       -4.746       26.163       11.814        8.167      684.515      139.564       66.708        0.155        0.045       46.801        7.450        0.025      331.343       -0.702      866.724
01/08/2015  05:41:00      -44.567      -19.241       -0.992       14.425       11.695        9.704      208.095      136.777       94.161        0.140        0.022       48.543        8.444        0.030      331.370       -0.659      866.726
01/08/2015  05:42:00      -38.899       -7.533       -4.465       13.173        9.363        6.382      173.533       87.659       40.729        0.095        0.015       39.622        1.702        0.002      331.435       -0.552      866.733
01/08/2015  05:43:00      -53.338      -13.961       -6.885       15.157       11.851        6.307      229.738      140.436       39.779        0.175        0.020       55.135        5.371        0.009      331.476       -0.484      866.735
01/08/2015  05:44:00      -60.507       -8.861       -6.729       10.252       13.013        8.261      105.101      169.334       68.250        0.206        0.017       61.152        3.498        0.003      331.505       -0.436      866.741
01/08/2015  05:45:00      -47.664       -7.280       -4.182       15.599       11.845        5.743      243.326      140.299       32.987        0.138        0.021       48.217        5.737        0.014      331.467       -0.500      866.744
01/08/2015  05:46:00      -42.241       -5.648       -4.919       13.625       13.443        5.685      185.632      180.727       32.316        0.112        0.020       42.617        7.001        0.027      331.436       -0.551      866.748
01/08/2015  05:47:00      -35.183        0.395       -5.574        8.700        9.616        8.302       75.684       92.463       68.917        0.075        0.012       35.185        5.369        0.023      331.418       -0.580      866.740
01/08/2015  05:48:00      -40.918        4.743        0.771       13.699        7.769        8.312      187.671       60.361       69.093        0.101        0.016       41.192        8.566        0.043      331.423       -0.571      866.734
01/08/2015  05:49:00      -19.941        2.068       -4.141       13.300        5.637        5.630      176.889       31.774       31.692        0.033        0.012       20.048        4.252        0.045      331.435       -0.551      866.739
01/08/2015  05:50:00       14.820       15.562       -1.749        9.554        6.719        2.738       91.273       45.142        7.497        0.030        0.007       21.490        1.622        0.006      331.403       -0.607      866.746
01/08/2015  05:51:00        7.459       32.178       -4.696        7.209       13.227        5.714       51.965      174.953       32.655        0.069        0.013       33.031        6.660        0.041      331.442       -0.542      866.739
01/08/2015  05:52:00        4.917       48.276       -6.212        3.974        4.134        3.775       15.794       17.091       14.252        0.122        0.002       48.525        2.436        0.003      331.606       -0.269      866.749
01/08/2015  05:53:00       11.112       38.676       -4.688        4.032        6.021        3.156       16.258       36.252        9.961        0.085        0.003       40.240        2.293        0.003      331.698       -0.118      866.755
01/08/2015  05:54:00       21.300       11.150        5.541       12.652       19.729       13.861      160.080      389.252      192.118        0.067        0.037       24.042        9.800        0.166      331.586       -0.303      866.770
01/08/2015  05:55:00       50.728       26.242        2.795       11.562       12.193       11.111      133.690      148.671      123.462        0.184        0.020       57.114        6.187        0.012      331.508       -0.433      866.783
01/08/2015  05:56:00       51.899       32.612        6.399       18.688       17.707       14.369      349.240      313.537      206.474        0.233        0.043       61.295        9.965        0.026      331.322       -0.739      866.793
01/08/2015  05:57:00       50.206       28.496        3.622       15.666       16.705       11.062      245.416      279.057      122.361        0.200        0.032       57.729        3.598        0.004      331.149       -1.022      866.802
01/08/2015  05:58:00       33.922       18.964        4.315       13.054       10.491       10.169      170.410      110.056      103.408        0.096        0.019       38.863        4.249        0.012      331.141       -1.037      866.809
01/08/2015  05:59:00       50.400       42.783       18.931       17.117       13.721       11.224      292.994      188.268      125.969        0.267        0.030       66.110        6.203        0.009      331.154       -1.015      866.805
01/08/2015  06:00:00       71.287       54.978       17.567       11.325       10.485       10.173      128.254      109.926      103.492        0.438        0.017       90.025        3.127        0.001      331.252       -0.853      866.798
01/08/2015  06:01:00       69.010       45.098        9.631       25.536       20.690       15.426      652.068      428.088      237.975        0.410        0.066       82.439        8.894        0.012      331.225       -0.896      866.799
01/08/2015  06:02:00       66.866       36.003        9.007       24.818       17.280       11.746      615.935      298.599      137.968        0.345        0.053       75.943        6.355        0.007      331.191       -0.952      866.796
01/08/2015  06:03:00       34.216       32.183        3.600       25.897       12.090       10.381      670.640      146.161      107.763        0.157        0.046       46.973        6.070        0.017      331.176       -0.978      866.788
01/08/2015  06:04:00       23.844       31.139        2.402       17.917       22.212       16.580      321.023      493.374      274.904        0.132        0.054       39.220       11.809        0.091      331.164       -0.996      866.788
01/08/2015  06:05:00       23.184       40.380       -1.828       19.230       22.434       13.030      369.777      503.272      169.772        0.161        0.052       46.562       12.578        0.073      331.181       -0.970      866.785
01/08/2015  06:06:00       29.723       44.040       -1.898       20.763       22.060       17.037      431.099      486.629      290.249        0.202        0.060       53.132       15.041        0.080      331.168       -0.992      866.787
01/08/2015  06:07:00       27.905       50.264       -5.996       23.616       16.217       14.175      557.728      263.000      200.944        0.218        0.051       57.491       11.677        0.041      331.153       -1.016      866.782
01/08/2015  06:08:00       16.200       40.649       -2.672       13.043       25.647       17.034      170.113      657.754      290.158        0.152        0.056       43.759       17.855        0.166      331.162       -1.003      866.766
01/08/2015  06:09:00       20.111       82.674      -15.103       14.286       11.112        7.906      204.092      123.480       62.499        0.393        0.020       85.085        7.039        0.007      331.241       -0.872      866.744
01/08/2015  06:10:00       11.372       82.177      -14.088       10.116       13.957        7.530      102.335      194.802       56.704        0.372        0.018       82.960        5.104        0.004      331.262       -0.835      866.725
01/08/2015  06:11:00        2.265      103.559      -15.806       12.515       13.826        7.408      156.627      191.147       54.884        0.569        0.020      103.584        4.364        0.002      331.280       -0.807      866.719
01/08/2015  06:12:00       -6.103      117.350      -18.771        6.032       12.039        5.061       36.383      144.927       25.619        0.718        0.010      117.509        4.694        0.002      331.209       -0.923      866.725
01/08/2015  06:13:00      -24.476       62.304        0.372       25.556       49.127       18.364      653.117     2413.498      337.247        0.394        0.170       66.940       16.886        0.064      331.220       -0.906      866.738
01/08/2015  06:14:00      -32.836       -2.286       -4.328       18.224       18.319        8.674      332.096      335.589       75.243        0.092        0.037       32.915        6.735        0.042      331.188       -0.959      866.750
01/08/2015  06:15:00      -40.477      -27.173       -2.645       10.481       13.559       11.337      109.844      183.856      128.530        0.140        0.021       48.752        6.034        0.015      331.127       -1.059      866.751
01/08/2015  06:16:00      -68.698      -35.833       -6.011       22.791       17.631       12.420      519.440      310.861      154.245        0.351        0.049       77.482       11.390        0.022      330.998       -1.271      866.749
01/08/2015  06:17:00      -97.052      -18.037       -9.060       17.586       13.737       10.600      309.259      188.703      112.368        0.522        0.031       98.714        8.260        0.007      331.005       -1.261      866.763
01/08/2015  06:18:00     -105.626      -29.086       -8.537       12.881       12.977        8.629      165.933      168.403       74.457        0.624        0.020      109.558        8.265        0.006      331.014       -1.244      866.779
01/08/2015  06:19:00      -81.765      -42.742       -7.207       10.120        9.782        6.505      102.414       95.689       42.315        0.440        0.012       92.262        4.078        0.002      331.092       -1.117      866.782
01/08/2015  06:20:00      -89.999      -22.266       -9.602       20.587       13.570        9.669      423.844      184.132       93.484        0.469        0.035       92.712        9.889        0.011      331.161       -1.004      866.771
01/08/2015  06:21:00     -103.350      -10.458      -14.450       18.870       10.379        8.133      356.071      107.731       66.153        0.576        0.026      103.878        6.429        0.004      331.178       -0.975      866.747
01/08/2015  06:22:00     -104.824       -4.636      -15.811       12.974        9.217        8.411      168.334       84.959       70.740        0.579        0.016      104.926        4.609        0.002      331.125       -1.060      866.724
01/08/2015  06:23:00      -94.262      -13.865       -8.739       22.673       14.624       13.837      514.051      213.870      191.474        0.504        0.046       95.276       13.137        0.019      331.120       -1.069      866.702
01/08/2015  06:24:00      -97.355      -10.880      -11.416       13.384        9.234        7.671      179.138       85.267       58.848        0.502        0.016       97.961        4.336        0.002      331.075       -1.145      866.693
01/08/2015  06:25:00      -97.032      -13.215      -10.416       18.996       18.381       13.558      360.840      337.850      183.822        0.529        0.044       97.928       11.172        0.013      331.080       -1.136      866.695
01/08/2015  06:26:00      -84.005      -12.406      -14.583       15.051       14.424        9.992      226.547      208.052       99.838        0.398        0.027       84.916        5.496        0.004      331.095       -1.111      866.702
01/08/2015  06:27:00     -101.316      -20.418      -12.581       18.983       11.567       11.704      360.354      133.788      136.985        0.574        0.032      103.353        8.660        0.007      331.072       -1.149      866.710
01/08/2015  06:28:00      -90.638       -7.456      -15.305       19.387       13.651       10.739      375.853      186.363      115.328        0.459        0.034       90.944        5.367        0.003      331.053       -1.182      866.713
01/08/2015  06:29:00      -76.757       -6.978      -14.435       15.569       12.707       10.099      242.379      161.470      101.980        0.333        0.025       77.074        6.754        0.008      331.011       -1.250      866.723
01/08/2015  06:30:00      -79.962       -7.279       -7.984       23.111       23.413       13.844      534.099      548.166      191.646        0.389        0.064       80.293       12.526        0.024      330.979       -1.302      866.738
01/08/2015  06:31:00      -55.552      -18.727        1.636       44.918       36.996       21.537     2017.614     1368.719      463.822        0.364        0.193       58.623       18.496        0.100      330.880       -1.463      866.738
01/08/2015  06:32:00      -30.998       -3.774        0.698       34.594       29.064       19.269     1196.772      844.712      371.279        0.169        0.121       31.227       16.764        0.288      330.891       -1.446      866.735
01/08/2015  06:33:00      -70.040      -34.899       -9.149       28.606       23.782       17.551      818.301      565.588      308.055        0.395        0.085       78.253       13.595        0.030      330.964       -1.325      866.728
01/08/2015  06:34:00     -100.937      -32.240       -9.759       20.108       21.113       15.206      404.331      445.749      231.215        0.620        0.054      105.961       11.106        0.011      330.947       -1.355      866.719
01/08/2015  06:35:00      -73.225      -37.716      -11.006       21.191       21.676       14.970      449.054      469.870      224.102        0.402        0.057       82.368       10.490        0.016      330.960       -1.333      866.711
01/08/2015  06:36:00      -84.744      -16.237      -13.221       14.787       15.363       15.962      218.662      236.012      254.795        0.416        0.035       86.285        8.840        0.010      330.961       -1.331      866.711
01/08/2015  06:37:00      -55.060      -34.723       -3.937       13.741       22.137       11.167      188.826      490.067      124.696        0.253        0.040       65.095        7.238        0.012      330.954       -1.341      866.728
01/08/2015  06:38:00      -79.656      -40.612      -11.981       26.812       13.734       14.136      718.907      188.620      199.827        0.462        0.055       89.412        9.302        0.011      331.067       -1.157      866.732
01/08/2015  06:39:00     -101.642      -16.384      -10.466       21.340       15.891        9.984      455.376      252.522       99.676        0.576        0.040      102.954        9.108        0.008      331.070       -1.153      866.735
01/08/2015  06:40:00     -106.580      -31.666       -9.846       21.214       20.987        9.414      450.016      440.471       88.626        0.672        0.049      111.184        7.996        0.005      331.092       -1.116      866.730
01/08/2015  06:41:00     -120.552      -16.109      -13.193       17.243       13.437       12.963      297.333      180.557      168.030        0.781        0.032      121.623        7.688        0.004      330.976       -1.306      866.729
01/08/2015  06:42:00      -82.322        8.444       -2.424       59.664       30.788       21.373     3559.762      947.920      456.788        0.591        0.248       82.754       23.797        0.083      331.046       -1.190      866.736
01/08/2015  06:43:00     -101.297      -27.010      -13.177       44.831       25.945       19.982     2009.814      673.159      399.274        0.712        0.154      104.836       17.997        0.029      330.981       -1.296      866.740
01/08/2015  06:44:00     -109.298       -5.840       -1.369       43.715       37.143       28.308     1911.004     1379.570      801.350        0.804        0.205      109.454       23.944        0.048      330.956       -1.339      866.747
01/08/2015  06:45:00     -114.430       17.256       -3.242       52.105       32.336       23.646     2714.930     1045.632      559.120        0.886        0.216      115.724       25.007        0.047      330.976       -1.307      866.748
01/08/2015  06:46:00     -124.783        7.019      -12.579       36.635       34.990       21.732     1342.124     1224.335      472.288        0.941        0.152      124.980       17.269        0.019      331.058       -1.173      866.745
01/08/2015  06:47:00     -141.063       22.502       -6.177       42.327       28.619       21.352     1791.555      819.070      455.904        1.175        0.153      142.847       16.628        0.014      331.061       -1.167      866.753
01/08/2015  06:48:00     -127.160       10.863      -14.710       31.736       27.058       20.526     1007.151      732.135      421.308        0.933        0.108      127.623       16.336        0.016      331.046       -1.193      866.758
01/08/2015  06:49:00     -116.018       -5.432      -15.308       38.002       34.922       25.862     1444.185     1219.527      668.833        0.853        0.167      116.145       24.194        0.043      331.053       -1.181      866.757
01/08/2015  06:50:00     -108.292       14.107      -16.247       44.273       30.990       20.646     1960.108      960.357      426.246        0.777        0.167      109.207       12.157        0.012      331.047       -1.191      866.750
01/08/2015  06:51:00      -75.669       29.298       -8.061       43.180       31.927       21.471     1864.514     1019.349      460.983        0.500        0.167       81.143       14.535        0.032      331.148       -1.024      866.758
01/08/2015  06:52:00     -105.821       28.099       -9.623       39.043       31.126       21.886     1524.318      968.814      479.003        0.753        0.149      109.488       18.531        0.029      331.261       -0.838      866.765
01/08/2015  06:53:00      -70.590      -15.830       -6.149       30.560       33.232       21.721      933.902     1104.390      471.809        0.389        0.126       72.343       17.173        0.056      331.143       -1.032      866.785
01/08/2015  06:54:00      -52.522      -23.868        0.192       28.849       23.237       19.975      832.265      539.948      398.981        0.255        0.089       57.691       16.492        0.082      331.017       -1.239      866.810
01/08/2015  06:55:00      -80.881      -41.183       -8.981       19.516       19.224       16.124      380.869      369.553      259.974        0.466        0.051       90.762        8.542        0.009      331.011       -1.249      866.832
01/08/2015  06:56:00      -57.516      -49.341       -5.398       24.311       20.202       14.324      591.015      408.104      205.170        0.349        0.060       75.781        8.320        0.012      330.989       -1.285      866.847
01/08/2015  06:57:00      -37.036      -33.823       -2.640       27.961       14.411       21.555      781.799      207.682      464.615        0.199        0.073       50.157       18.327        0.134      331.025       -1.228      866.851
01/08/2015  06:58:00      -44.687      -24.080       -0.427       15.838       18.384       14.899      250.826      337.968      221.979        0.169        0.041       50.762       12.545        0.061      331.019       -1.236      866.856
01/08/2015  06:59:00      -35.551      -29.291       -2.348       24.117       15.422       12.918      581.646      237.853      166.886        0.156        0.049       46.063       11.923        0.067      331.079       -1.136      866.871
01/08/2015  07:00:00      -63.955      -31.454      -10.035       23.665       14.752       10.702      560.010      217.621      114.542        0.304        0.045       71.271        9.036        0.016      331.116       -1.076      866.894
01/08/2015  07:01:00      -78.044      -32.749      -14.544       16.833       12.970       11.078      283.348      168.229      122.729        0.397        0.029       84.637        6.847        0.007      331.142       -1.034      866.917
01/08/2015  07:02:00      -68.220      -26.713       -8.362       14.989       19.770       17.304      224.675      390.861      299.419        0.318        0.046       73.263       13.082        0.032      331.220       -0.904      866.931
01/08/2015  07:03:00      -69.157      -23.891       -9.960       15.489       17.288       13.016      239.906      298.878      169.409        0.308        0.035       73.168        8.889        0.015      331.168       -0.990      866.926
01/08/2015  07:04:00      -72.626       -6.768       -4.642       19.351       13.539       11.113      374.444      183.295      123.498        0.301        0.034       72.941       10.519        0.021      331.136       -1.042      866.928
01/08/2015  07:05:00      -21.365      -37.246       -5.376       21.961       20.334       16.674      482.299      413.491      278.029        0.152        0.059       42.938       13.275        0.096      331.169       -0.991      866.944
01/08/2015  07:06:00       -8.960      -27.453      -12.885       20.170       24.399       17.999      406.836      595.300      323.949        0.116        0.066       28.878       14.379        0.248      331.176       -0.978      866.962
01/08/2015  07:07:00      -79.370      -33.846       -3.774       43.023       25.554       23.811     1850.946      652.984      566.975        0.526        0.154       86.286       28.260        0.107      331.115       -1.078      866.975
01/08/2015  07:08:00      -84.374      -16.810      -13.016       24.913       24.609       12.005      620.639      605.609      144.111        0.447        0.069       86.032        6.433        0.006      331.151       -1.020      866.967
01/08/2015  07:09:00      -82.531      -45.509      -11.088       26.303       19.555       14.590      691.845      382.403      212.866        0.515        0.064       94.246        8.120        0.007      331.114       -1.081      866.960
01/08/2015  07:10:00      -84.598      -16.398      -10.424       17.980       26.520       11.690      323.282      703.302      136.653        0.435        0.058       86.172        8.170        0.009      331.062       -1.166      866.969
01/08/2015  07:11:00      -89.686       -6.362       -5.665       25.578       14.139        9.711      654.257      199.916       94.297        0.453        0.047       89.911       10.644        0.014      331.166       -0.994      866.990
01/08/2015  07:12:00      -60.682      -22.165       -0.069       29.374       19.271       11.401      862.857      371.376      129.994        0.277        0.068       64.603       10.985        0.029      331.132       -1.051      867.014
01/08/2015  07:13:00      -74.742      -25.124       -5.213       17.069       14.038       11.335      291.349      197.053      128.493        0.343        0.031       78.852        9.578        0.015      331.193       -0.950      867.024
01/08/2015  07:14:00      -66.503      -29.207       -4.051       16.230       13.107        7.372      263.413      171.787       54.340        0.289        0.024       72.634        5.492        0.006      331.285       -0.798      867.031
01/08/2015  07:15:00      -73.199      -34.961       -7.830       19.562       11.511       11.283      382.676      132.493      127.307        0.364        0.032       81.119       11.778        0.021      331.217       -0.911      867.048
01/08/2015  07:16:00      -46.769      -30.219        1.934       22.139       11.038       12.525      490.136      121.836      156.885        0.194        0.038       55.682       14.975        0.072      331.235       -0.880      867.070
01/08/2015  07:17:00      -57.209      -20.113       -4.662       12.870       11.296        5.779      165.639      127.600       33.392        0.201        0.016       60.642        2.519        0.002      331.176       -0.979      867.086
01/08/2015  07:18:00      -54.348      -29.248       -5.750        7.035        6.884        6.323       49.492       47.396       39.982        0.199        0.007       61.718        4.387        0.005      331.206       -0.928      867.093
01/08/2015  07:19:00      -54.219      -22.628       -3.662        9.540       12.825        8.508       91.013      164.483       72.381        0.190        0.016       58.751        6.271        0.011      331.183       -0.967      867.087
01/08/2015  07:20:00      -46.372      -13.819       -0.489       18.963       10.909       12.893      359.587      119.003      166.228        0.149        0.032       48.387       12.407        0.066      331.162       -1.000      867.083
01/08/2015  07:21:00      -57.874      -19.216       -2.505       18.835       17.113       10.621      354.763      292.847      112.804        0.224        0.038       60.981        4.337        0.005      331.135       -1.046      867.082
01/08/2015  07:22:00      -58.443      -24.918       -0.655       17.889       14.864        9.240      320.007      220.929       85.387        0.233        0.031       63.534        8.611        0.018      331.093       -1.114      867.087
01/08/2015  07:23:00      -35.082      -14.860        2.948       22.707       11.470        9.222      515.597      131.557       85.037        0.110        0.037       38.099        5.997        0.025      331.125       -1.061      867.092
01/08/2015  07:24:00      -44.015      -17.679       -2.316       16.760       13.707        8.555      280.904      187.879       73.183        0.140        0.027       47.432        7.763        0.027      331.162       -1.001      867.096
01/08/2015  07:25:00      -55.052      -20.293       -5.103       11.700       11.588        7.509      136.889      134.273       56.378        0.190        0.016       58.673        4.174        0.005      331.202       -0.935      867.109
01/08/2015  07:26:00      -52.610      -22.451       -0.447       18.637       14.082       10.882      347.335      198.305      118.416        0.197        0.033       57.201        8.944        0.024      331.198       -0.941      867.141
01/08/2015  07:27:00      -72.832      -26.480       -3.589       16.568       16.574        9.816      274.488      274.711       96.346        0.333        0.032       77.497        6.863        0.008      331.119       -1.071      867.166
01/08/2015  07:28:00      -65.978      -24.753        0.161       28.240       15.711       15.941      797.481      246.837      254.103        0.313        0.065       70.469       16.850        0.057      331.095       -1.110      867.182
01/08/2015  07:29:00      -56.164      -28.297       -0.632       21.309       27.374       14.007      454.079      749.309      196.200        0.268        0.070       62.890       11.368        0.033      331.082       -1.133      867.192
01/08/2015  07:30:00      -54.100      -34.840        2.923       30.195       25.012       16.203      911.740      625.586      262.537        0.297        0.090       64.348       13.759        0.046      331.099       -1.105      867.193
01/08/2015  07:31:00      -54.639      -25.389        3.719       23.456       24.858       14.709      550.192      617.897      216.365        0.251        0.069       60.249       10.945        0.033      331.079       -1.138      867.188
01/08/2015  07:32:00      -30.127      -13.417        8.024       33.389       20.897       15.710     1114.830      436.666      246.793        0.147        0.090       32.980       15.926        0.233      331.163       -1.001      867.188
01/08/2015  07:33:00      -59.715      -42.758        1.690       26.215       25.344       15.667      687.250      642.307      245.457        0.349        0.079       73.445       14.479        0.039      331.201       -0.935      867.190
01/08/2015  07:34:00      -33.769      -19.987        8.779       38.686       21.556       15.017     1496.618      464.676      225.514        0.190        0.109       39.241       21.091        0.289      331.264       -0.832      867.194
01/08/2015  07:35:00      -17.111       -2.651        4.526       15.259        9.836        8.292      232.841       96.748       68.762        0.036        0.020       17.315        4.395        0.064      331.264       -0.832      867.189
01/08/2015  07:36:00      -19.079       -1.497        4.695        9.680        9.189        7.097       93.705       84.439       50.373        0.031        0.011       19.138        6.713        0.123      331.287       -0.794      867.183
01/08/2015  07:37:00      -25.673      -10.689       -4.992       10.016       10.920        8.611      100.327      119.247       74.153        0.055        0.015       27.809        4.038        0.021      331.335       -0.716      867.180
01/08/2015  07:38:00      -21.342       -0.190       -9.163        6.701        3.587        5.621       44.900       12.868       31.591        0.031        0.004       21.343        2.311        0.012      331.408       -0.595      867.184
01/08/2015  07:39:00      -16.528       -5.680        2.179        5.271        8.333        3.850       27.784       69.433       14.825        0.021        0.006       17.477        3.349        0.037      331.524       -0.406      867.187
01/08/2015  07:40:00      -26.836      -11.538       -1.187       10.583        8.088        4.648      112.009       65.413       21.605        0.053        0.010       29.211        4.825        0.027      331.499       -0.446      867.194
01/08/2015  07:41:00      -39.816        1.626       -2.533        6.832        5.734        6.198       46.675       32.881       38.412        0.086        0.006       39.850        3.518        0.008      331.367       -0.663      867.209
01/08/2015  07:42:00      -33.958       -1.557       -2.208        9.315        8.056        5.343       86.777       64.902       28.551        0.067        0.009       33.994        4.168        0.015      331.398       -0.614      867.223
01/08/2015  07:43:00      -71.458       -5.692       -6.332       10.663        7.351        6.101      113.705       54.032       37.228        0.269        0.010       71.684        4.614        0.004      331.280       -0.805      867.239
01/08/2015  07:44:00      -79.413      -21.892      -11.306       17.775       13.239        9.941      315.951      175.261       98.830        0.375        0.030       82.375        6.666        0.007      331.110       -1.087      867.250
01/08/2015  07:45:00      -68.302      -13.463       -7.407       14.164       16.616       12.308      200.610      276.107      151.477        0.276        0.031       69.617        9.349        0.018      331.084       -1.130      867.259
01/08/2015  07:46:00      -59.454       -9.175       -3.990       10.911       11.582        9.138      119.044      134.145       83.510        0.199        0.017       60.158        6.447        0.011      331.123       -1.064      867.256
01/08/2015  07:47:00      -70.305      -13.569       -7.200       22.647       12.740       11.788      512.874      162.309      138.968        0.300        0.041       71.602       12.383        0.030      331.109       -1.088      867.247
01/08/2015  07:48:00      -60.429      -10.799       -1.133       15.925       11.902       10.271      253.621      141.667      105.499        0.214        0.025       61.387        9.639        0.025      331.149       -1.023      867.251
01/08/2015  07:49:00      -30.686       -4.489      -10.268        6.816        6.750        5.588       46.458       45.557       31.225        0.060        0.006       31.012        2.515        0.007      331.212       -0.918      867.258
01/08/2015  07:50:00      -19.027        0.927       -4.581       13.011        5.512        7.599      169.286       30.382       57.739        0.032        0.013       19.049        5.112        0.072      331.396       -0.615      867.263
01/08/2015  07:51:00       22.638       18.301        6.251       15.447       10.557        8.097      238.621      111.456       65.561        0.065        0.021       29.110        6.621        0.052      331.513       -0.422      867.283
01/08/2015  07:52:00       24.574       30.670       -2.883       14.889       10.255        8.061      221.696      105.169       64.985        0.097        0.020       39.301        6.372        0.026      331.464       -0.505      867.293
01/08/2015  07:53:00        2.198        5.250        4.661        9.744       14.756        6.749       94.937      217.746       45.551        0.021        0.018        5.691        7.864        1.909      331.591       -0.296      867.317
01/08/2015  07:54:00        0.833       15.594       -0.121       11.033       14.058        7.725      121.728      197.640       59.676        0.031        0.019       15.616        5.378        0.119      331.618       -0.251      867.325
01/08/2015  07:55:00       -2.373       14.342        9.213        6.118        9.350        6.662       37.428       87.429       44.388        0.023        0.008       14.537        5.488        0.142      331.762       -0.014      867.355
01/08/2015  07:56:00      -18.140       21.577       -1.030       12.870       11.697       11.556      165.624      136.820      133.532        0.062        0.022       28.189        8.974        0.101      331.579       -0.315      867.372
01/08/2015  07:57:00        4.108       27.470        2.845        7.653       11.943        9.894       58.575      142.627       97.896        0.054        0.015       27.775        8.330        0.090      331.788        0.030      867.392
01/08/2015  07:58:00       22.608       22.645        4.684       14.890       13.712       10.154      221.712      188.013      103.109        0.078        0.026       31.998        7.654        0.057      331.755       -0.025      867.386
01/08/2015  07:59:00       30.237       25.478        0.738       12.705       12.550       10.224      161.429      157.490      104.540        0.099        0.021       39.540        8.769        0.049      331.643       -0.208      867.381
01/08/2015  08:00:00       10.761       38.695       -8.078       16.354       13.052        8.407      267.468      170.349       70.678        0.109        0.025       40.163        5.790        0.021      331.677       -0.154      867.382
01/08/2015  08:01:00        7.024       45.239       -9.932       13.906        9.859       11.226      193.363       97.198      126.029        0.131        0.021       45.781        8.153        0.032      331.760       -0.017      867.376
01/08/2015  08:02:00        3.065       40.454       -0.313       15.580        9.562       13.033      242.745       91.436      169.856        0.107        0.025       40.570        6.754        0.028      331.782        0.019      867.377
01/08/2015  08:03:00       13.526       33.275       -1.253       10.715       14.049       11.480      114.810      197.370      131.791        0.087        0.022       35.919        9.211        0.066      331.822        0.085      867.385
01/08/2015  08:04:00       25.611       34.800        4.246       19.143       16.089       13.116      366.445      258.840      172.028        0.134        0.040       43.208        7.095        0.027      331.817        0.077      867.377
01/08/2015  08:05:00       29.654       32.656        5.055       14.746       13.570       15.448      217.437      184.151      238.626        0.131        0.032       44.111        8.324        0.036      331.835        0.106      867.368
01/08/2015  08:06:00       54.685       36.572       -6.315       17.329       14.301       10.671      300.297      204.532      113.880        0.249        0.031       65.787        7.124        0.012      331.759       -0.018      867.372
01/08/2015  08:07:00       62.854       29.493        5.150       15.761       15.721       15.098      248.395      247.159      227.953        0.279        0.036       69.430        9.821        0.020      331.738       -0.053      867.386
01/08/2015  08:08:00       50.346       40.376        2.066        8.998       10.150        9.937       80.962      103.028       98.747        0.223        0.014       64.536        3.000        0.002      331.669       -0.167      867.404
01/08/2015  08:09:00       48.839       33.673       -1.255       11.168       11.934       11.009      124.735      142.414      121.195        0.195        0.019       59.322        6.233        0.011      331.728       -0.070      867.400
01/08/2015  08:10:00       40.531       14.921       -2.365       13.300       10.411       11.765      176.881      108.394      138.413        0.115        0.021       43.190        5.977        0.019      331.805        0.057      867.402
01/08/2015  08:11:00        4.199        2.102        2.118       13.482       13.584        9.639      181.761      184.527       92.904        0.024        0.023        4.696        8.375        3.181      332.166        0.652      867.401
01/08/2015  08:12:00        7.846        0.968        8.807       13.467       11.577       12.994      181.364      134.022      168.835        0.031        0.024        7.906       10.918        1.907      332.176        0.668      867.396
01/08/2015  08:13:00       26.372       24.985        6.938       18.978       15.329        9.004      360.181      234.968       81.075        0.102        0.034       36.328        8.818        0.059      331.979        0.342      867.388
01/08/2015  08:14:00       62.439       53.357        6.440       12.584       14.783       13.804      158.352      218.527      190.545        0.368        0.028       82.131        6.627        0.007      331.873        0.169      867.382
01/08/2015  08:15:00       48.543       60.517        8.980       21.519       20.488       22.403      463.085      419.741      501.882        0.374        0.069       77.580        5.293        0.005      331.997        0.375      867.387
01/08/2015  08:16:00       32.508       34.115       24.666       22.265       24.436       24.739      495.752      597.132      612.043        0.227        0.085       47.123        9.834        0.044      332.099        0.542      867.397
01/08/2015  08:17:00        9.124       38.036       38.263       16.936       25.020       14.522      286.812      626.021      210.896        0.206        0.056       39.115        9.354        0.057      332.209        0.723      867.397
01/08/2015  08:18:00       35.475       36.339       27.663       27.394       14.403       18.057      750.406      207.436      326.061        0.231        0.064       50.784       14.634        0.083      332.107        0.555      867.401
01/08/2015  08:19:00       46.045       36.809       13.253       16.450       14.318       17.882      270.612      204.996      319.768        0.222        0.040       58.949        8.138        0.019      332.082        0.514      867.408
01/08/2015  08:20:00       61.507       40.068        6.999       19.942       16.326       15.606      397.696      266.554      243.538        0.317        0.045       73.407        7.848        0.011      332.085        0.519      867.419
01/08/2015  08:21:00       67.953       38.103        4.967       18.938       16.306       22.749      358.656      265.884      517.500        0.362        0.057       77.906       10.018        0.017      332.068        0.489      867.423
01/08/2015  08:22:00       69.296       39.502       16.707       28.950       18.838       23.368      838.128      354.888      546.050        0.419        0.087       79.765       15.310        0.037      332.110        0.560      867.427
01/08/2015  08:23:00       34.947       46.126       37.023       29.312       23.392       20.354      859.222      547.164      414.281        0.327        0.091       57.870       12.151        0.044      332.219        0.739      867.439
01/08/2015  08:24:00        9.650       46.258       56.298       26.761       29.822       17.632      716.167      889.372      310.894        0.366        0.096       47.254       10.942        0.054      332.352        0.959      867.446
01/08/2015  08:25:00       45.707       51.915       45.204       41.063       36.597       32.654     1686.150     1339.323     1066.260        0.546        0.205       69.169       30.387        0.193      332.235        0.767      867.447
01/08/2015  08:26:00       38.186       44.417       34.634       34.327       20.473       23.220     1178.349      419.141      539.172        0.338        0.107       58.575       20.172        0.119      332.264        0.814      867.455
01/08/2015  08:27:00       18.482       61.242       59.277       26.514       25.173       19.804      703.018      633.670      392.209        0.467        0.086       63.970       18.704        0.085      332.376        0.998      867.456
01/08/2015  08:28:00       44.252       64.611       48.988       38.799       20.994       25.180     1505.362      440.768      634.017        0.556        0.129       78.312       19.618        0.063      332.263        0.813      867.458
01/08/2015  08:29:00      104.112       63.579       27.102       29.956       18.180       25.562      897.384      330.502      653.391        0.875        0.094      121.990       15.686        0.017      332.129        0.591      867.464
01/08/2015  08:30:00       51.929       66.840       53.171       34.876       42.142       32.930     1216.321     1775.984     1084.389        0.703        0.204       84.641       26.036        0.095      332.277        0.837      867.475
01/08/2015  08:31:00       69.192       71.881       54.812       40.572       28.336       33.897     1646.062      802.932     1149.017        0.828        0.180       99.772       26.263        0.069      332.203        0.713      867.483
01/08/2015  08:32:00       63.217       89.358       75.195       30.279       24.828       22.148      916.794      616.452      490.545        0.983        0.101      109.459       13.904        0.016      332.259        0.805      867.480
01/08/2015  08:33:00       42.153       45.894       42.959       35.243       34.642       26.053     1242.034     1200.054      678.746        0.442        0.156       62.315       18.505        0.088      332.302        0.875      867.483
01/08/2015  08:34:00       13.873       59.087       69.040       38.216       38.883       29.237     1460.439     1511.889      854.820        0.614        0.191       60.694       25.492        0.176      332.460        1.136      867.483
01/08/2015  08:35:00       78.897       61.179       55.702       40.906       45.056       35.315     1673.310     2030.050     1247.165        0.901        0.248       99.838       22.123        0.049      332.223        0.746      867.486
01/08/2015  08:36:00       83.080       68.706       62.542       28.091       33.066       32.778      789.122     1093.358     1074.385        0.925        0.148      107.809       18.472        0.029      332.191        0.694      867.484
01/08/2015  08:37:00       73.223       65.173       63.157       29.957       27.942       29.769      897.412      780.746      886.193        0.808        0.128       98.026       21.875        0.050      332.202        0.712      867.484
01/08/2015  08:38:00       48.684       62.975       64.894       44.105       35.697       29.031     1945.207     1274.262      842.797        0.730        0.203       79.599       23.960        0.091      332.319        0.903      867.485
01/08/2015  08:39:00       35.053       82.605       67.060       52.147       32.631       36.207     2719.292     1064.776     1310.926        0.882        0.255       89.734       35.840        0.160      332.269        0.822      867.488
01/08/2015  08:40:00       99.394       66.638       26.606       26.047       24.169       31.804      678.451      584.124     1011.472        0.865        0.114      119.665       21.994        0.034      332.199        0.705      867.486
01/08/2015  08:41:00       74.688       41.559       38.709       30.314       26.694       31.650      918.965      712.548     1001.752        0.572        0.132       85.472       25.308        0.088      332.303        0.879      867.483
01/08/2015  08:42:00       55.720       47.146       38.831       28.179       21.192       25.833      794.048      449.103      667.348        0.437        0.096       72.990       21.394        0.086      332.384        1.011      867.480
01/08/2015  08:43:00       72.535       51.874       37.385       31.495       22.634       24.586      991.905      512.305      604.493        0.573        0.105       89.175       15.791        0.031      332.374        0.995      867.481
01/08/2015  08:44:00       79.166       58.080       26.646       24.120       20.146       25.929      581.751      405.848      672.321        0.600        0.083       98.186       15.818        0.026      332.388        1.018      867.490
01/08/2015  08:45:00       68.565       64.787       33.397       33.395       21.164       27.898     1115.219      447.933      778.293        0.618        0.117       94.332       21.091        0.050      332.411        1.056      867.492
01/08/2015  08:46:00       75.219       56.667       30.069       52.570       38.098       38.673     2763.653     1451.465     1495.634        0.774        0.286       94.176       29.962        0.101      332.512        1.223      867.485
01/08/2015  08:47:00       63.686       29.044       37.350       57.591       30.043       29.852     3316.700      902.593      891.113        0.570        0.256       69.997       29.349        0.176      332.667        1.478      867.482
01/08/2015  08:48:00       50.951       62.230       40.725       38.067       30.699       35.579     1449.072      942.448     1265.854        0.589        0.183       80.427       25.493        0.100      332.748        1.613      867.480
01/08/2015  08:49:00       29.744       56.194       58.543       33.103       30.739       23.039     1095.813      944.916      530.787        0.502        0.129       63.581       17.650        0.077      332.690        1.516      867.492
01/08/2015  08:50:00       64.011       62.276       20.854       38.853       31.531       33.163     1509.528      994.193     1099.798        0.601        0.180       89.307       26.954        0.091      332.627        1.414      867.511
01/08/2015  08:51:00       10.476       31.429       28.518       20.766       28.840       24.182      431.215      831.754      584.778        0.188        0.092       33.129       14.684        0.196      333.002        2.032      867.522
01/08/2015  08:52:00       20.152       48.980       58.489       33.607       37.397       29.225     1129.409     1398.507      854.088        0.480        0.169       52.963       24.058        0.206      333.008        2.042      867.512
01/08/2015  08:53:00       88.513       73.418       45.719       21.699       19.447       34.262      470.856      378.170     1173.856        0.867        0.101      114.999       18.081        0.025      332.522        1.240      867.518
01/08/2015  08:54:00       44.441       40.063       23.550       44.025       39.299       37.978     1938.185     1544.405     1442.316        0.453        0.246       59.834       31.228        0.272      332.684        1.506      867.523
01/08/2015  08:55:00        0.864       45.710       53.710       23.407       37.312       18.894      547.886     1392.215      356.980        0.364        0.115       45.718       12.233        0.072      332.899        1.861      867.519
01/08/2015  08:56:00       82.331       55.739        2.551       29.040       16.862       25.143      843.310      284.323      632.177        0.583        0.088       99.424       12.728        0.016      332.574        1.323      867.521
01/08/2015  08:57:00       93.843       61.246       -2.606       27.209       21.793       23.733      740.323      474.932      563.274        0.717        0.089      112.060       14.807        0.017      332.626        1.410      867.529
01/08/2015  08:58:00       37.150       28.935       16.145       30.439       37.723       23.995      926.503     1423.031      575.766        0.270        0.146       47.089       19.439        0.170      332.998        2.025      867.553
01/08/2015  08:59:00        0.243       29.334       34.274       19.697       23.097       33.615      387.977      533.480     1129.994        0.204        0.103       29.335       17.604        0.360      333.295        2.516      867.572
01/08/2015  09:00:00       73.344       74.276       44.232       37.620       22.979       25.819     1415.251      528.013      666.603        0.773        0.130      104.385       22.167        0.045      332.867        1.809      867.584
01/08/2015  09:01:00       57.613       68.584       48.847       46.459       21.459       23.329     2158.461      460.488      544.223        0.679        0.158       89.571       27.159        0.092      332.889        1.845      867.592
01/08/2015  09:02:00       48.115       57.093       50.333       31.747       26.453       22.733     1007.861      699.758      516.804        0.517        0.111       74.664       12.078        0.026      332.983        2.002      867.586
01/08/2015  09:03:00       37.114       53.835       34.198       24.873       32.859       37.480      618.657     1079.727     1404.716        0.427        0.155       65.389       20.542        0.099      332.968        1.976      867.588
01/08/2015  09:04:00       63.721       77.673       56.133       46.428       27.103       27.876     2155.579      734.579      777.071        0.846        0.183      100.466       20.131        0.040      332.995        2.021      867.588
01/08/2015  09:05:00       87.241       89.566       50.083       26.615       23.677       34.018      708.368      560.579     1157.226        1.028        0.121      125.032       11.846        0.009      332.970        1.980      867.572
01/08/2015  09:06:00       49.390       36.525       23.814       47.068       32.340       32.930     2215.382     1045.867     1084.410        0.434        0.217       61.428       26.915        0.192      333.191        2.344      867.553
01/08/2015  09:07:00        5.214       43.633       49.812       27.819       33.632       27.767      773.887     1131.145      770.994        0.354        0.134       43.944       20.464        0.217      333.485        2.831      867.537
01/08/2015  09:08:00        4.799       56.161       64.181       32.546       34.355       27.652     1059.257     1180.267      764.628        0.515        0.150       56.366       23.938        0.180      333.498        2.852      867.520
01/08/2015  09:09:00       15.799       36.267       51.507       54.182       40.205       40.265     2935.635     1616.420     1621.278        0.519        0.309       39.559       40.080        1.027      333.465        2.796      867.511
01/08/2015  09:10:00        3.082       81.076       93.940       27.496       35.843       19.840      756.049     1284.704      393.643        0.892        0.122       81.135       17.588        0.047      333.353        2.611      867.496
01/08/2015  09:11:00       20.843       75.174       60.324       33.801       31.226       28.709     1142.520      975.089      824.216        0.633        0.147       78.009       25.327        0.105      333.373        2.646      867.485
01/08/2015  09:12:00       96.089       71.166        3.964       33.509       23.221       32.470     1122.879      539.207     1054.273        0.851        0.136      119.573       14.744        0.015      333.119        2.226      867.479
01/08/2015  09:13:00       99.390       69.050       11.956       39.859       35.029       26.568     1588.716     1227.059      705.880        0.915        0.176      121.022       17.697        0.021      333.137        2.256      867.468
01/08/2015  09:14:00      126.707       73.746        1.538       33.108       27.742       28.196     1096.166      769.620      795.011        1.208        0.133      146.605       18.150        0.015      332.845        1.772      867.460
01/08/2015  09:15:00      100.987       75.697       -1.483       35.089       20.417       20.503     1231.266      416.862      420.384        0.900        0.103      126.208       10.718        0.007      332.906        1.874      867.458
01/08/2015  09:16:00       91.208       74.059       22.421       23.429       17.060       27.322      548.910      291.054      746.513        0.795        0.079      117.489        8.436        0.005      333.067        2.140      867.448
01/08/2015  09:17:00       60.204       45.663       10.081       33.867       44.375       26.313     1146.944     1969.142      692.373        0.481        0.190       75.562       13.837        0.034      333.304        2.531      867.442
01/08/2015  09:18:00       71.508       33.731       15.809       52.226       74.034       33.900     2727.577     5481.042     1149.210        0.793        0.468       79.064       26.332        0.111      333.110        2.211      867.444
01/08/2015  09:19:00       67.350       57.088       10.576       24.364       21.891       26.186      593.623      479.233      685.690        0.483        0.088       88.289       18.265        0.043      333.217        2.387      867.445
01/08/2015  09:20:00       79.059       53.369       17.706       26.774       23.132       22.083      716.823      535.098      487.659        0.558        0.087       95.386       10.336        0.012      333.260        2.457      867.445
01/08/2015  09:21:00        8.501       45.058       22.626       28.717       29.052       28.138      824.654      844.022      791.725        0.254        0.123       45.853       19.057        0.173      333.534        2.911      867.440
01/08/2015  09:22:00       38.164       48.102       34.709       53.623       50.407       27.776     2875.398     2540.848      771.515        0.558        0.309       61.403       15.754        0.066      333.559        2.954      867.428
01/08/2015  09:23:00      115.278       74.534        9.803       26.537       25.013       25.191      704.208      625.671      634.592        1.045        0.098      137.275       12.257        0.008      333.271        2.477      867.417
01/08/2015  09:24:00       78.129       73.505        8.527       22.909       28.332       26.060      524.813      802.729      679.148        0.679        0.100      107.271       13.776        0.016      333.216        2.385      867.412
01/08/2015  09:25:00       81.966       74.586       22.302       24.180       26.483       28.500      584.685      701.328      812.275        0.744        0.105      110.822       17.005        0.024      333.309        2.538      867.409
01/08/2015  09:26:00       65.336       41.071       14.105       38.004       22.962       23.328     1444.315      527.244      544.201        0.433        0.126       77.172       16.384        0.045      333.370        2.639      867.410
01/08/2015  09:27:00       31.312       32.356       25.790       16.223       20.456       26.221      263.192      418.462      687.547        0.203        0.068       45.026       19.003        0.178      333.502        2.858      867.411
01/08/2015  09:28:00       27.867       35.270       15.114       27.699       25.412       27.698      767.223      645.793      767.196        0.221        0.109       44.951       21.567        0.230      333.658        3.117      867.427
01/08/2015  09:29:00       27.690       17.742       10.756       26.865       20.828       16.534      721.718      433.795      273.372        0.131        0.071       32.886        7.240        0.048      333.647        3.100      867.429
01/08/2015  09:30:00       45.378       22.659       17.064       29.097       40.635       24.600      846.633     1651.217      605.181        0.298        0.155       50.721       20.784        0.168      333.670        3.137      867.428
01/08/2015  09:31:00       94.031       74.521        7.202       36.533       27.204       33.960     1334.642      740.066     1153.299        0.884        0.161      119.980       18.171        0.023      333.606        3.033      867.424
01/08/2015  09:32:00       94.132       79.491       15.027       45.122       27.796       33.130     2035.951      772.629     1097.598        0.965        0.195      123.205       24.156        0.038      333.733        3.242      867.401
01/08/2015  09:33:00      119.953       73.438       -5.088       27.361       25.638       24.046      748.634      657.327      578.224        1.090        0.099      140.648        8.726        0.004      333.369        2.639      867.395
01/08/2015  09:34:00       76.520       54.083       25.270       42.397       31.754       37.664     1797.465     1008.340     1418.577        0.682        0.211       93.703       28.894        0.095      333.419        2.721      867.395
01/08/2015  09:35:00       42.876       31.434        1.318       35.440       22.659       21.090     1255.959      513.416      444.791        0.252        0.111       53.164        3.443        0.004      333.451        2.773      867.408
01/08/2015  09:36:00       23.433       60.376       10.084       30.984       32.600       28.989      960.037     1062.748      840.341        0.358        0.143       64.764       22.555        0.121      333.688        3.167      867.405
01/08/2015  09:37:00       17.917       85.720       -1.630       27.431       44.045       31.619      752.485     1939.941      999.769        0.568        0.185       87.573       29.901        0.117      333.695        3.179      867.380
01/08/2015  09:38:00      -15.798      140.828       -7.924       18.830       24.294       19.430      354.582      590.191      377.532        1.073        0.066      141.711       12.191        0.007      333.385        2.666      867.368
01/08/2015  09:39:00        8.381       97.170       -0.551       34.084       44.743       28.004     1161.698     2001.972      784.220        0.673        0.197       97.531       24.604        0.064      333.917        3.547      867.359
01/08/2015  09:40:00       10.953       40.359        5.276       20.308       26.246       25.448      412.406      688.849      647.608        0.176        0.087       41.819       19.996        0.229      334.033        3.739      867.352
01/08/2015  09:41:00       25.654       40.478        8.061       28.833       27.969       26.787      831.353      782.259      717.568        0.235        0.117       47.922       20.822        0.189      334.103        3.856      867.349
01/08/2015  09:42:00        4.391       44.272       11.542       22.033       46.958       25.069      485.451     2205.022      628.467        0.272        0.166       44.489       23.806        0.286      334.065        3.793      867.355
01/08/2015  09:43:00       18.008       26.197        3.961       58.080       45.714       27.629     3373.231     2089.732      763.379        0.363        0.311       31.790       33.922        1.139      333.886        3.496      867.347
01/08/2015  09:44:00       62.986       89.842       -0.693       40.905       22.379       24.000     1673.190      500.822      575.997        0.739        0.138      109.721       15.577        0.020      333.596        3.015      867.351
01/08/2015  09:45:00       -1.393       55.093        9.922       32.043       31.491       26.110     1026.775      991.684      681.717        0.292        0.135       55.110       25.930        0.221      333.791        3.337      867.348
01/08/2015  09:46:00       30.079       21.530       13.897       26.334       15.899       20.799      693.484      252.781      432.608        0.147        0.069       36.990       14.355        0.151      334.117        3.878      867.326
01/08/2015  09:47:00       44.150       42.345       16.140       45.408       37.518       25.665     2061.919     1407.573      658.713        0.406        0.206       61.174        9.396        0.024      334.193        4.004      867.300
01/08/2015  09:48:00      112.208       59.550       16.476       33.019       39.379       37.203     1090.258     1550.711     1384.032        1.022        0.201      127.030       22.873        0.032      333.683        3.157      867.283
01/08/2015  09:49:00       82.795       55.402        0.272       28.968       31.235       23.342      839.139      975.633      544.864        0.614        0.118       99.621       17.473        0.031      333.679        3.150      867.257
01/08/2015  09:50:00       69.742       34.655        6.720       25.904       30.955       22.847      671.040      958.241      521.977        0.413        0.108       77.878       12.155        0.024      333.751        3.271      867.247
01/08/2015  09:51:00       47.057       46.805       11.074       34.586       27.022       26.626     1196.219      730.181      708.937        0.358        0.132       66.371       17.210        0.067      334.005        3.692      867.239
01/08/2015  09:52:00       94.806       59.092       10.494       28.069       23.204       23.576      787.845      538.421      555.806        0.724        0.094      111.714       14.461        0.017      333.787        3.332      867.231
01/08/2015  09:53:00       50.021       33.202       -3.023       39.788       20.220       19.358     1583.082      408.860      374.741        0.299        0.118       60.038       13.426        0.050      333.815        3.377      867.240
01/08/2015  09:54:00       58.444       40.185        9.093       38.092       28.186       28.510     1451.011      794.471      812.822        0.409        0.153       70.926       13.297        0.035      334.086        3.827      867.242
01/08/2015  09:55:00       55.630       55.703       13.283       49.706       29.391       34.972     2470.734      863.809     1223.025        0.546        0.228       78.724       18.608        0.056      334.094        3.841      867.231
01/08/2015  09:56:00       68.052       39.883       -0.057       31.150       37.851       23.954      970.321     1432.698      573.789        0.460        0.149       78.878       21.661        0.075      333.975        3.643      867.220
01/08/2015  09:57:00       97.083       62.679        4.925       28.378       23.573       29.569      805.334      555.667      874.306        0.781        0.112      115.559       12.605        0.012      333.976        3.645      867.208
01/08/2015  09:58:00       71.230       30.737       16.575       37.129       28.838       28.916     1378.556      831.606      836.121        0.467        0.152       77.579       25.181        0.105      334.197        4.010      867.204
01/08/2015  09:59:00       57.241       49.505       -8.018       45.604       32.254       27.889     2079.683     1040.309      777.798        0.484        0.195       75.678       21.596        0.081      334.038        3.746      867.209
01/08/2015  10:00:00       20.263       45.979       50.357       40.163       31.328       31.019     1613.033      981.468      962.153        0.431        0.178       50.246       18.817        0.140      334.351        4.267      867.210
01/08/2015  10:01:00       31.152       47.945       41.563       27.354       24.743       24.691      748.264      612.201      609.644        0.348        0.099       57.177       14.223        0.062      334.075        3.809      867.214
01/08/2015  10:02:00        5.433       45.124       74.821       29.263       26.701       12.322      856.306      712.941      151.823        0.469        0.086       45.450       14.478        0.101      334.304        4.188      867.214
01/08/2015  10:03:00       29.487       70.360       52.583       30.974       30.958       39.987      959.406      958.410     1598.957        0.605        0.176       76.289       24.180        0.100      334.309        4.197      867.205
01/08/2015  10:04:00       37.824       58.340       69.288       43.461       33.904       20.712     1888.883     1149.465      428.986        0.655        0.173       69.529       13.818        0.039      334.434        4.404      867.203
01/08/2015  10:05:00       17.564      -53.728       19.134       30.267       48.352       31.942      916.087     2337.959     1020.275        0.392        0.214       56.526       29.274        0.268      334.632        4.732      867.205
01/08/2015  10:06:00       10.593       47.300       58.888       31.361       27.208       22.882      983.502      740.294      523.602        0.403        0.112       48.471       16.819        0.120      334.785        4.987      867.205
01/08/2015  10:07:00       55.064       47.360       33.601       33.182       25.472       26.650     1101.068      648.843      710.242        0.443        0.123       72.630       10.912        0.023      334.472        4.468      867.197
01/08/2015  10:08:00       42.658       41.063        2.241       23.253       20.652       26.120      540.692      426.524      682.263        0.258        0.082       59.210       14.029        0.056      334.273        4.136      867.175
01/08/2015  10:09:00       52.359       40.127       10.129       33.383       26.062       24.150     1114.415      679.249      583.222        0.342        0.119       65.967       20.031        0.092      334.559        4.611      867.145
01/08/2015  10:10:00       36.254       52.491       37.762       40.322       31.821       25.037     1625.847     1012.589      626.847        0.438        0.163       63.793       24.015        0.142      334.899        5.176      867.130
01/08/2015  10:11:00       31.632       45.498       58.358       38.479       40.478       26.194     1480.623     1638.507      686.144        0.514        0.190       55.414       27.980        0.255      334.890        5.162      867.110
01/08/2015  10:12:00        3.684       22.901       62.299       24.234       29.445       17.328      587.297      867.023      300.276        0.309        0.088       23.195       13.274        0.328      335.182        5.646      867.094
01/08/2015  10:13:00       10.901       53.404       50.111       37.758       27.833       32.215     1425.671      774.656     1037.829        0.436        0.162       54.506       24.443        0.201      335.130        5.561      867.080
01/08/2015  10:14:00       39.992       48.126        9.068       32.533       41.427       24.599     1058.397     1716.164      605.105        0.369        0.169       62.573       18.450        0.087      334.861        5.113      867.078
01/08/2015  10:15:00      -11.699       45.803        0.196       14.714       34.897       19.142      216.492     1217.805      366.427        0.202        0.090       47.274       11.497        0.059      334.925        5.220      867.080
01/08/2015  10:16:00       37.897       43.085       21.222       23.321       30.362       25.813      543.860      921.823      666.303        0.294        0.107       57.380       15.627        0.074      335.012        5.364      867.069
01/08/2015  10:17:00       -3.707       18.369       53.243       28.612       33.008       22.023      818.675     1089.554      485.024        0.279        0.120       18.739       21.805        1.354      335.331        5.895      867.061
01/08/2015  10:18:00       -6.947       15.016       39.256       17.190       24.687       17.169      295.493      609.429      294.786        0.151        0.060       16.545        1.781        0.012      335.299        5.841      867.041
01/08/2015  10:19:00       18.155       40.291       -8.114       35.144       20.236       19.864     1235.111      409.480      394.564        0.203        0.102       44.192       10.000        0.051      334.756        4.938      867.024
01/08/2015  10:20:00       10.244       23.584       13.184       31.718       23.855       26.113     1006.061      569.071      681.872        0.155        0.113       25.713       25.030        0.948      335.020        5.377      867.009
01/08/2015  10:21:00       27.896        6.910      -10.148       18.929       18.183       14.581      358.298      330.609      212.593        0.092        0.045       28.739        7.846        0.075      334.739        4.911      866.995
01/08/2015  10:22:00       29.157       28.996        6.724       33.321       24.077       15.221     1110.267      579.682      231.693        0.183        0.096       41.121       11.282        0.075      334.944        5.250      866.980
01/08/2015  10:23:00       11.810       31.992      -20.818       35.270       16.350       14.003     1244.006      267.307      196.081        0.165        0.085       34.102       16.554        0.236      334.644        4.753      866.959
01/08/2015  10:24:00      -37.164        7.345        4.384       16.547       13.608       14.306      273.790      185.168      204.655        0.106        0.033       37.883        9.295        0.060      334.807        5.024      866.948
01/08/2015  10:25:00      -56.210       -4.179       -0.753       26.610       19.666       15.754      708.082      386.753      248.198        0.226        0.067       56.365       16.161        0.082      334.708        4.858      866.921
01/08/2015  10:26:00      -26.258        3.291       -5.092       15.976        6.435        9.903      255.232       41.413       98.067        0.056        0.020       26.463        7.137        0.073      334.858        5.108      866.900
01/08/2015  10:27:00      -11.715      -32.066        4.076       26.853       49.573       14.608      721.104     2457.471      213.408        0.229        0.170       34.139        9.320        0.075      334.960        5.278      866.871
01/08/2015  10:28:00        9.654      -33.762        7.724       28.996       33.987       22.744      840.760     1155.137      517.269        0.190        0.126       35.115       13.315        0.144      335.356        5.937      866.845
01/08/2015  10:29:00      -53.416      -16.062      -10.429       11.570       18.744       11.594      133.867      351.329      134.414        0.192        0.031       55.778        6.512        0.014      334.882        5.149      866.827
01/08/2015  10:30:00      -48.585      -48.067       -6.183       41.314       40.836       18.099     1706.821     1667.562      327.574        0.420        0.185       68.345       10.811        0.025      334.884        5.151      866.815
01/08/2015  10:31:00       19.962      -43.050      -10.918       25.057       59.262       26.795      627.874     3511.953      717.983        0.361        0.243       47.453       31.254        0.434      335.070        5.460      866.808
01/08/2015  10:32:00      -43.355        0.089        9.028       26.176       31.325       24.001      685.188      981.272      576.031        0.210        0.112       43.355       27.627        0.406      335.021        5.380      866.788
01/08/2015  10:33:00      -33.333      -51.215        1.106       46.700       26.386       23.954     2180.849      696.232      573.805        0.359        0.173       61.107       19.195        0.099      335.094        5.500      866.768
01/08/2015  10:34:00      -62.423      -61.307       -2.316       39.465       27.263       25.977     1557.497      743.268      674.795        0.532        0.149       87.494       17.010        0.038      335.069        5.457      866.758
01/08/2015  10:35:00      -35.969      -15.441        7.004       29.275       25.641       22.735      857.054      657.480      516.867        0.181        0.102       39.143       24.247        0.384      335.428        6.057      866.740
01/08/2015  10:36:00      -26.172       -7.006        6.816       19.400       19.923        9.370      376.356      396.944       87.790        0.082        0.043       27.093        8.421        0.097      335.293        5.832      866.722
01/08/2015  10:37:00      -21.577      -33.121        2.083       21.843       16.589       15.763      477.134      275.207      248.476        0.128        0.050       39.530       10.236        0.067      335.213        5.698      866.698
01/08/2015  10:38:00        2.796      -27.470        7.103       15.973       32.064       23.488      255.135     1028.098      551.708        0.132        0.092       27.612       22.150        0.643      335.565        6.283      866.658
01/08/2015  10:39:00       15.196       40.419       19.659       23.029       22.655       21.853      530.319      513.249      477.551        0.189        0.076       43.181       11.346        0.069      335.815        6.701      866.623
01/08/2015  10:40:00      -12.779       18.815       46.102       20.423       29.898       19.403      417.118      893.883      376.495        0.216        0.084       22.744       13.758        0.366      336.229        7.391      866.586
01/08/2015  10:41:00       -1.945       16.825       50.141       25.523       44.407       30.550      651.400     1971.985      933.300        0.318        0.178       16.937       26.297        2.411      335.890        6.825      866.557
01/08/2015  10:42:00       38.605       76.048       83.179       38.142       32.727       18.279     1454.791     1071.069      334.127        0.853        0.143       85.286       21.150        0.061      335.498        6.173      866.531
01/08/2015  10:43:00       86.827       99.649       80.763       40.138       27.860       29.861     1611.054      776.152      891.659        1.363        0.164      132.170       22.427        0.029      335.317        5.871      866.502
01/08/2015  10:44:00       79.588       88.458       53.879       29.024       23.230       38.448      842.401      539.617     1478.266        0.996        0.143      118.992       20.885        0.031      335.175        5.634      866.481
01/08/2015  10:45:00      112.439       89.876       12.588       38.643       25.239       27.411     1493.316      637.007      751.349        1.188        0.144      143.945       14.092        0.010      335.162        5.613      866.466
01/08/2015  10:46:00      103.624       54.120       19.981       45.452       41.246       41.933     2065.928     1701.203     1758.403        0.979        0.276      116.906       28.511        0.059      335.346        5.919      866.444
01/08/2015  10:47:00      107.613       75.043       22.413       27.329       23.041       28.269      746.869      530.893      799.114        0.990        0.104      131.195        6.847        0.003      335.310        5.859      866.440
01/08/2015  10:48:00      109.303       71.035        4.383       31.545       24.316       25.853      995.096      591.270      668.385        0.963        0.113      130.358       10.530        0.007      335.244        5.749      866.422
01/08/2015  10:49:00       91.495       67.703       15.392       30.019       27.922       37.145      901.129      779.633     1379.753        0.813        0.153      113.820       14.664        0.017      335.393        5.997      866.417
01/08/2015  10:50:00       72.974       85.491        5.518       63.111       31.504       36.431     3983.050      992.477     1327.224        0.948        0.315      112.401       18.425        0.027      335.939        6.907      866.398
01/08/2015  10:51:00       99.029       60.193       18.697       69.882       48.020       47.451     4883.525     2305.944     2251.597        1.161        0.472      115.888       46.482        0.161      335.793        6.663      866.374
01/08/2015  10:52:00       80.503       93.035       -2.984       48.586       34.951       31.097     2360.639     1221.596      967.034        0.985        0.227      123.029       20.644        0.028      335.454        6.098      866.360
01/08/2015  10:53:00       63.246       52.758       12.966       55.494       46.032       37.561     3079.557     2118.963     1410.798        0.678        0.330       82.362       19.535        0.056      335.742        6.579      866.344
01/08/2015  10:54:00       38.953       60.357       65.348       68.649       48.616       37.724     4712.726     2363.564     1423.124        0.896        0.425       71.835       32.564        0.205      336.190        7.326      866.341
01/08/2015  10:55:00      -19.860       11.018       44.474       27.205       49.737       31.280      740.121     2473.790      978.438        0.334        0.210       22.711       22.073        0.945      336.259        7.442      866.333
01/08/2015  10:56:00       53.124      -26.558       32.016       65.665       79.682       52.473     4311.939     6349.208     2753.406        0.898        0.671       59.393       62.695        1.114      335.981        6.978      866.317
01/08/2015  10:57:00       67.655     -124.663      -18.375       36.110       30.363       24.212     1303.967      921.926      586.228        1.163        0.141      141.838       20.098        0.020      335.594        6.332      866.305
01/08/2015  10:58:00       30.672     -112.104       -9.341       38.332       36.492       26.946     1469.371     1331.696      726.072        0.856        0.176      116.225       27.868        0.057      335.796        6.668      866.290
01/08/2015  10:59:00       18.149      -38.816       32.475       29.305       41.672       30.849      858.799     1736.569      951.669        0.322        0.177       42.850       28.803        0.452      336.270        7.461      866.287
01/08/2015  11:00:00       37.478      -31.393       14.912       41.817       47.535       37.874     1748.673     2259.532     1434.441        0.403        0.272       48.889       32.662        0.446      336.082        7.146      866.272
01/08/2015  11:01:00       50.942       57.029       46.376       43.933       35.153       34.087     1930.110     1235.762     1161.922        0.616        0.216       76.468       27.502        0.129      336.169        7.289      866.266
01/08/2015  11:02:00       16.220       38.281       64.780       48.305       54.496       38.001     2333.363     2969.847     1444.112        0.633        0.337       41.576       39.259        0.892      336.199        7.340      866.255
01/08/2015  11:03:00       47.988      -70.756       -5.994       54.924       78.291       49.695     3016.691     6129.518     2469.602        0.948        0.581       85.494       43.443        0.258      336.063        7.114      866.257
01/08/2015  11:04:00       74.628      -34.291       10.798       36.962       46.197       40.177     1366.209     2134.177     1614.214        0.599        0.256       82.129       33.432        0.166      335.976        6.969      866.258
01/08/2015  11:05:00       52.059       48.417       45.683       32.412       35.947       21.731     1050.522     1292.219      472.217        0.498        0.141       71.094       17.885        0.063      335.926        6.885      866.250
01/08/2015  11:06:00       27.762       33.591       52.570       43.292       47.958       27.987     1874.201     2299.930      783.274        0.481        0.248       43.578       29.806        0.468      336.110        7.193      866.234
01/08/2015  11:07:00       18.821       44.726       55.648       29.527       27.742       23.789      871.869      769.618      565.919        0.383        0.110       48.524       17.104        0.124      336.301        7.511      866.205
01/08/2015  11:08:00       27.481       23.610       48.768       36.576       41.104       34.123     1337.832     1689.570     1164.355        0.394        0.210       36.230       27.847        0.591      336.541        7.912      866.182
01/08/2015  11:09:00       42.295       73.613       86.419       48.765       50.755       28.852     2378.047     2576.100      832.466        1.023        0.289       84.898       27.676        0.106      336.260        7.442      866.151
01/08/2015  11:10:00       -3.438       67.005       88.809       42.736       52.739       53.834     1826.351     2781.408     2898.081        0.995        0.375       67.093       44.253        0.435      336.374        7.633      866.124
01/08/2015  11:11:00       47.920       77.660       96.734       69.363       56.525       48.607     4811.193     3195.047     2362.689        1.402        0.518       91.254       49.059        0.289      336.132        7.228      866.110
01/08/2015  11:12:00       69.932        6.298       35.660       49.573       39.277       41.601     2457.451     1542.684     1730.666        0.597        0.287       70.215       19.304        0.076      336.136        7.235      866.100
01/08/2015  11:13:00       18.962        8.564       56.054       40.867       46.916       33.100     1670.119     2201.112     1095.599        0.427        0.248       20.806       24.413        1.377      336.457        7.774      866.080
01/08/2015  11:14:00       90.876      113.015       90.441       76.205       49.383       45.117     5807.245     2438.679     2035.556        1.974        0.514      145.020       46.789        0.104      336.025        7.048      866.059
01/08/2015  11:15:00      108.411       75.202        5.306       40.619       27.868       32.946     1649.892      776.648     1085.452        1.047        0.176      131.941       18.794        0.020      335.805        6.685      866.048
01/08/2015  11:16:00       55.230       52.719      -21.622       57.047       53.113       33.847     3254.414     2820.981     1145.648        0.676        0.361       76.352       28.372        0.138      336.245        7.418      866.014
01/08/2015  11:17:00       39.264      -70.978       22.637       56.734       81.125       59.117     3218.720     6581.319     3494.846        1.019        0.665       81.114       66.070        0.663      336.366        7.620      865.996
01/08/2015  11:18:00       53.634      -22.241       25.777       40.169       42.833       38.350     1613.544     1834.671     1470.692        0.448        0.246       58.063       31.864        0.301      336.418        7.707      865.987
01/08/2015  11:19:00       14.743       31.586       36.594       24.743       40.673       39.544      612.212     1654.314     1563.700        0.319        0.192       34.858       26.190        0.565      336.407        7.687      865.973
01/08/2015  11:20:00       12.228      -57.808       15.209       66.119       64.730       44.383     4371.740     4190.011     1969.831        0.712        0.527       59.087       50.159        0.721      336.485        7.819      865.959
01/08/2015  11:21:00       98.865      -58.734       -2.085       56.390       54.429       45.043     3179.858     2962.514     2028.888        1.070        0.409      114.995       44.858        0.152      336.199        7.340      865.941
01/08/2015  11:22:00       -6.550        3.188       62.041       30.052       71.501       45.244      903.150     5112.364     2047.039        0.598        0.403        7.285       53.620       54.180      336.447        7.755      865.919
01/08/2015  11:23:00       17.978       82.073       87.860       35.794       42.619       33.532     1281.240     1816.377     1124.398        0.950        0.211       84.019       31.418        0.140      336.289        7.491      865.906
01/08/2015  11:24:00       50.101       67.142       89.460       49.486       66.452       34.983     2448.847     4415.901     1223.821        1.155        0.404       83.775       39.654        0.224      336.173        7.296      865.879
01/08/2015  11:25:00       64.450       45.036       40.284       54.897       39.004       33.521     3013.726     1521.274     1123.690        0.673        0.283       78.626       28.244        0.129      336.263        7.447      865.870
01/08/2015  11:26:00       96.688       55.745       43.997       68.810       53.339       37.276     4734.766     2845.034     1389.485        1.168        0.448      111.606       31.777        0.081      336.444        7.749      865.845
01/08/2015  11:27:00      122.519      101.401       22.196       61.984       54.059       43.695     3841.990     2922.392     1909.234        1.723        0.434      159.038       16.377        0.011      336.231        7.394      865.808
01/08/2015  11:28:00       81.989       85.999        0.408       46.522       47.438       36.288     2164.288     2250.343     1316.851        0.992        0.287      118.820       23.067        0.038      336.229        7.391      865.785
01/08/2015  11:29:00       54.460       59.082        7.331       49.177       36.213       25.829     2418.385     1311.394      667.114        0.545        0.220       80.353       23.472        0.085      336.350        7.593      865.767
01/08/2015  11:30:00       30.434       80.162       92.680       43.145       44.726       43.377     1861.467     2000.405     1881.576        1.084        0.287       85.745       31.017        0.131      336.406        7.685      865.738
01/08/2015  11:31:00       65.455       75.584       72.236       57.053       54.987       40.245     3255.090     3023.540     1619.629        1.156        0.395       99.987       37.255        0.139      336.429        7.724      865.713
01/08/2015  11:32:00       19.285      -16.299       58.320       35.912       46.584       35.816     1289.706     2170.062     1282.799        0.439        0.237       25.250       25.878        1.050      336.809        8.360      865.701
01/08/2015  11:33:00       47.299      -14.482       25.064       46.520       61.861       39.787     2164.153     3826.743     1583.012        0.532        0.379       49.467       39.769        0.646      336.503        7.850      865.674
01/08/2015  11:34:00       14.430       35.803       71.441       49.318       70.739       40.781     2432.268     5003.979     1663.051        0.784        0.455       38.601       46.855        1.473      336.800        8.345      865.655
01/08/2015  11:35:00      102.052       95.558       31.397       35.002       25.425       44.046     1225.172      646.409     1940.060        1.217        0.191      139.807       22.232        0.025      336.158        7.272      865.651
01/08/2015  11:36:00       81.716       61.110        8.516       36.735       26.080       31.482     1349.468      680.144      991.133        0.675        0.151      102.039       15.377        0.023      336.206        7.352      865.627
01/08/2015  11:37:00       49.897       34.702       -0.572       30.364       23.079       17.232      921.997      532.659      296.959        0.272        0.088       60.777       11.753        0.037      336.281        7.478      865.612
01/08/2015  11:38:00       52.743       53.769        0.776       49.813       34.633       29.897     2481.306     1199.465      893.860        0.512        0.229       75.318       28.566        0.144      336.659        8.111      865.588
01/08/2015  11:39:00       64.922       55.263       22.359       58.686       35.371       33.882     3444.083     1251.143     1148.004        0.680        0.292       85.258       27.111        0.101      336.804        8.352      865.565
01/08/2015  11:40:00      109.609       70.646       17.755       62.710       34.566       35.654     3932.536     1194.816     1271.184        1.186        0.320      130.403       16.049        0.015      336.502        7.848      865.544
01/08/2015  11:41:00       50.469       65.625       16.809       34.321       42.097       34.582     1177.928     1772.197     1195.941        0.564        0.207       82.787       28.820        0.121      336.656        8.105      865.522
01/08/2015  11:42:00       61.464       69.556       56.743       61.720       40.872       32.931     3809.410     1670.482     1084.451        0.920        0.328       92.822       21.334        0.053      336.820        8.379      865.480
01/08/2015  11:43:00      104.646       64.658       28.093       53.551       60.512       45.893     2867.712     3661.729     2106.207        1.228        0.432      123.010       24.878        0.041      336.841        8.413      865.432
01/08/2015  11:44:00      127.903       84.910       24.525       37.555       32.779       39.430     1410.403     1074.489     1554.693        1.410        0.202      153.521       17.369        0.013      336.586        7.989      865.397
01/08/2015  11:45:00       72.013       78.562       14.979       49.827       39.826       37.350     2482.725     1586.139     1394.991        0.852        0.273      106.573       24.876        0.054      336.616        8.039      865.368
01/08/2015  11:46:00       77.222       84.168       25.330       52.246       44.480       45.647     2729.690     1978.447     2083.686        1.024        0.340      114.226       27.063        0.056      336.628        8.058      865.338
01/08/2015  11:47:00       58.605       83.020       65.140       55.459       38.867       48.692     3075.678     1510.615     2370.866        1.076        0.348      101.621       40.162        0.156      336.778        8.307      865.339
01/08/2015  11:48:00       66.638       69.272       45.715       43.449       40.894       41.395     1887.778     1672.317     1713.518        0.830        0.264       96.121       22.317        0.054      336.844        8.416      865.329
01/08/2015  11:49:00       29.745       47.250       31.975       42.338       46.759       47.855     1792.519     2186.419     2290.105        0.520        0.313       55.833       36.126        0.419      337.046        8.757      865.311
01/08/2015  11:50:00       94.624      114.961       92.939       93.500       58.255       48.682     8742.170     3393.674     2369.976        2.265        0.725      148.895       48.666        0.107      336.845        8.417      865.294
01/08/2015  11:51:00      145.998       94.031       28.254       39.143       37.385       34.979     1532.213     1397.638     1223.511        1.755        0.208      173.658       17.196        0.010      336.377        7.637      865.288
01/08/2015  11:52:00      113.822       73.112        4.830       33.470       25.832       26.667     1120.254      667.282      711.134        1.041        0.125      135.280       10.611        0.006      336.483        7.815      865.260
01/08/2015  11:53:00       89.469       84.709       11.824       39.445       25.274       26.383     1555.881      638.778      696.072        0.910        0.145      123.209        8.521        0.005      336.494        7.834      865.242
01/08/2015  11:54:00       32.834       71.099       -5.620       30.921       26.661       27.686      956.135      710.789      766.506        0.430        0.122       78.314       21.301        0.074      336.720        8.211      865.227
01/08/2015  11:55:00       -7.435       54.573       -0.912       26.847       47.284       20.930      720.770     2235.745      438.085        0.321        0.170       55.077       21.022        0.146      336.778        8.308      865.212
01/08/2015  11:56:00        2.981       66.608       -4.613       29.294       28.107       22.695      858.111      790.028      515.041        0.331        0.108       66.675       15.783        0.056      336.766        8.289      865.204
01/08/2015  11:57:00       74.601       60.223       36.014       41.349       24.676       36.006     1709.737      608.903     1296.419        0.705        0.181       95.875       12.819        0.018      336.809        8.359      865.189
01/08/2015  11:58:00       11.768       76.802      -14.058       29.838       26.086       16.525      890.305      680.479      273.062        0.404        0.092       77.698        9.260        0.014      336.619        8.043      865.181
01/08/2015  11:59:00       20.474       39.684        9.022       28.395       20.569       21.391      806.286      423.072      457.568        0.188        0.084       44.654       19.735        0.195      336.887        8.491      865.174
01/08/2015  12:00:00       15.779      -31.762        7.420       34.732       63.426       23.076     1206.283     4022.796      532.479        0.354        0.288       35.465       16.399        0.214      337.124        8.887      865.157
01/08/2015  12:01:00       55.449       57.350       64.096       89.172       79.148       46.869     7951.694     6264.389     2196.666        1.344        0.821       79.772       49.898        0.391      337.146        8.923      865.126
01/08/2015  12:02:00       39.530       43.852       52.238       57.112       72.724       39.229     3261.809     5288.817     1538.899        0.815        0.504       59.039       36.529        0.383      337.126        8.891      865.105
01/08/2015  12:03:00       29.580       61.460       80.021       33.800       44.879       23.036     1142.463     2014.164      530.666        0.737        0.184       68.207       19.095        0.078      337.078        8.809      865.074
01/08/2015  12:04:00       48.184       34.812       55.263       42.474       37.225       36.606     1804.002     1385.682     1340.014        0.556        0.226       59.444       22.143        0.139      337.043        8.750      865.061
01/08/2015  12:05:00       -1.459      -27.678       26.952       36.309       57.103       33.510     1318.343     3260.793     1122.898        0.360        0.285       27.717       23.365        0.711      337.408        9.363      865.042
01/08/2015  12:06:00       41.620       45.375       57.474       50.329       69.192       37.754     2533.005     4787.528     1425.330        0.792        0.437       61.572       39.095        0.403      337.182        8.984      865.019
01/08/2015  12:07:00       42.089       44.428       39.294       40.046       29.816       29.053     1603.678      888.997      844.066        0.431        0.167       61.199       15.930        0.068      337.040        8.745      865.003
01/08/2015  12:08:00       -1.796       25.722       41.501       25.772       34.150       20.443      664.207     1166.225      417.926        0.232        0.112       25.785       21.239        0.678      337.474        9.473      864.982
01/08/2015  12:09:00        2.506       39.731       52.691       34.491       30.326       32.955     1189.658      919.648     1086.061        0.378        0.160       39.810       20.769        0.272      337.639        9.750      864.966
01/08/2015  12:10:00       42.736       71.271        4.281       33.764       24.379       27.758     1140.026      594.347      770.501        0.471        0.125       83.101       17.938        0.047      337.362        9.286      864.948
01/08/2015  12:11:00       13.131       71.416       78.635       42.519       34.730       43.683     1807.877     1206.158     1908.237        0.819        0.246       72.613       36.099        0.247      337.335        9.239      864.934
01/08/2015  12:12:00      -10.842       93.753      112.530       24.908       46.543       34.382      620.426     2166.244     1182.091        1.277        0.198       94.378       31.621        0.112      337.315        9.206      864.919
01/08/2015  12:13:00       11.438       42.323       73.095       47.076       39.162       36.146     2216.151     1533.643     1306.502        0.616        0.253       43.841       27.570        0.395      337.383        9.320      864.890
01/08/2015  12:14:00       69.159       45.519       57.129       54.935       49.912       40.665     3017.858     2491.164     1653.634        0.864        0.358       82.794       34.322        0.172      337.292        9.167      864.873
01/08/2015  12:15:00       26.916       86.338      101.857       67.413       59.811       42.423     4544.509     3577.355     1799.683        1.424        0.496       90.437       43.065        0.227      337.339        9.246      864.854
01/08/2015  12:16:00       84.369       78.513       65.844       31.847       37.660       40.796     1014.255     1418.276     1664.327        1.086        0.205      115.250       24.979        0.047      337.046        8.754      864.846
01/08/2015  12:17:00       43.271       54.114       12.765       26.191       25.254       26.693      685.994      637.773      712.528        0.350        0.102       69.287       16.137        0.054      337.053        8.768      864.844
01/08/2015  12:18:00       38.543       10.221        7.400       31.542       41.920       35.313      994.869     1757.261     1247.003        0.282        0.200       39.875       30.528        0.586      337.171        8.964      864.839
01/08/2015  12:19:00       14.013        8.622        4.374       22.856       36.985       25.458      522.390     1367.903      648.085        0.141        0.127       16.453       23.579        2.054      337.392        9.334      864.825
01/08/2015  12:20:00       -5.346       55.095       65.980       39.629       42.170       33.249     1570.436     1778.324     1105.465        0.593        0.223       55.354       24.470        0.195      337.590        9.668      864.816
01/08/2015  12:21:00       17.633       64.689       81.248       38.774       35.469       27.267     1503.418     1258.058      743.498        0.730        0.175       67.049       25.804        0.148      337.494        9.508      864.809
01/08/2015  12:22:00       27.127       84.458       96.881       29.983       39.236       19.993      898.983     1539.466      399.703        1.005        0.142       88.707       21.726        0.060      337.400        9.349      864.796
01/08/2015  12:23:00       45.141       72.063       80.351       43.285       44.123       30.799     1873.577     1946.797      948.596        0.923        0.238       85.034       27.499        0.105      337.412        9.368      864.782
01/08/2015  12:24:00       36.116       68.750       67.851       32.089       24.545       20.176     1029.673      602.457      407.085        0.634        0.102       77.659       14.750        0.036      337.434        9.406      864.776
01/08/2015  12:25:00       18.613       52.936       42.504       26.333       24.432       17.850      693.424      596.929      318.622        0.328        0.080       56.113       14.873        0.070      337.453        9.437      864.762
01/08/2015  12:26:00       -8.055       18.153       50.988       13.596       24.795       18.914      184.843      614.767      357.739        0.208        0.058       19.859       15.845        0.637      337.741        9.920      864.759
01/08/2015  12:27:00        2.258       -8.474       17.587       17.275       32.776       32.695      298.435     1074.271     1068.974        0.141        0.122        8.770       23.188        6.991      337.628        9.731      864.760
01/08/2015  12:28:00       -2.023       22.913      -19.779       17.605       19.370        9.838      309.919      375.183       96.786        0.085        0.039       23.002        7.234        0.099      337.290        9.165      864.740
01/08/2015  12:29:00        7.502       13.247      -10.631       26.540       24.318       18.143      704.377      591.379      329.162        0.098        0.081       15.224       18.218        1.432      337.380        9.315      864.734
01/08/2015  12:30:00      -17.303      -26.056        1.888       26.231       22.465       19.155      688.066      504.688      366.906        0.127        0.078       31.278       16.972        0.294      337.750        9.934      864.725
01/08/2015  12:31:00      -43.428      -16.396      -10.548       15.444       14.037       14.169      238.519      197.043      200.773        0.145        0.032       46.421        7.352        0.025      337.536        9.577      864.719
01/08/2015  12:32:00        1.511       -2.625       22.217       44.149       33.534       28.750     1949.108     1124.536      826.548        0.220        0.195        3.029       28.262       87.049      337.851       10.105      864.707
01/08/2015  12:33:00       87.500       56.580       47.367       82.222       63.936       44.642     6760.428     4087.857     1992.906        1.297        0.642      104.199       37.837        0.132      337.928       10.234      864.677
01/08/2015  12:34:00      128.923       82.702       21.328       33.500       27.794       30.381     1122.227      772.487      923.020        1.337        0.141      153.169       13.206        0.007      337.437        9.412      864.674
01/08/2015  12:35:00       23.339       39.039       -8.236       36.620       20.196       17.595     1341.031      407.893      309.582        0.210        0.103       45.483       22.981        0.255      337.338        9.245      864.675
01/08/2015  12:36:00       14.623       45.095       24.012       32.923       33.870       38.991     1083.945     1147.182     1520.326        0.329        0.188       47.406       32.168        0.460      337.695        9.842      864.661
01/08/2015  12:37:00       79.936       54.414       39.920       35.692       30.544       29.096     1273.930      932.938      846.556        0.700        0.153       96.699       17.250        0.032      337.516        9.543      864.649
01/08/2015  12:38:00       34.311       79.389       80.263       50.456       45.981       28.637     2545.814     2114.217      820.061        0.970        0.274       86.486       17.535        0.041      337.928       10.235      864.628
01/08/2015  12:39:00       90.341       50.568       34.044       36.395       35.451       27.809     1324.626     1256.752      773.314        0.762        0.168      103.531       10.844        0.011      337.444        9.421      864.598
01/08/2015  12:40:00       43.873       44.282       43.595       20.758       33.493       19.392      430.895     1121.784      376.045        0.386        0.096       62.336       18.945        0.092      337.515        9.541      864.570
01/08/2015  12:41:00       33.224      -47.082        2.433       28.538       32.144       25.918      814.444     1033.265      671.765        0.292        0.126       57.624       20.312        0.124      337.673        9.807      864.539
01/08/2015  12:42:00       43.885       21.490       48.404       48.557       56.856       49.422     2357.749     3232.617     2442.489        0.638        0.402       48.865       49.197        1.014      337.815       10.045      864.513
01/08/2015  12:43:00       68.160      136.841      106.907       45.453       30.996       39.155     2066.017      960.728     1533.128        1.968        0.228      152.876       30.327        0.039      337.691        9.837      864.498
01/08/2015  12:44:00       43.488       91.890       80.886       49.442       39.243       34.574     2444.510     1540.001     1195.391        1.103        0.259      101.661       26.605        0.068      337.831       10.072      864.474
01/08/2015  12:45:00       23.992       60.158       74.810       49.738       40.427       44.803     2473.883     1634.317     2007.331        0.795        0.306       64.766       42.049        0.422      337.846       10.096      864.471
01/08/2015  12:46:00       33.496       -4.099       13.541       28.052       36.837       28.273      786.914     1356.984      799.384        0.213        0.147       33.745       24.014        0.506      337.727        9.897      864.485
01/08/2015  12:47:00        1.227      -44.242        1.529       43.794       39.272       27.684     1917.935     1542.264      766.402        0.309        0.211       44.259       23.893        0.291      337.848       10.099      864.487
01/08/2015  12:48:00       15.556      -76.569        5.290       34.887       32.872       22.395     1217.126     1080.544      501.546        0.447        0.140       78.133       16.333        0.044      337.812       10.038      864.481
01/08/2015  12:49:00       74.381      -21.447       25.960       39.268       51.463       30.997     1541.967     2648.490      960.787        0.591        0.258       77.412       27.558        0.127      337.812       10.040      864.475
01/08/2015  12:50:00       89.135       63.690       38.029       46.008       31.920       38.875     2116.701     1018.878     1511.234        0.905        0.232      109.552       24.163        0.049      337.852       10.105      864.446
01/08/2015  12:51:00       68.354       56.319       35.635       60.650       34.238       37.415     3678.470     1172.212     1399.853        0.768        0.313       88.567       32.887        0.138      337.819       10.052      864.416
01/08/2015  12:52:00       -4.763       22.484       43.375       37.776       39.155       32.304     1427.031     1533.100     1043.555        0.321        0.200       22.983       29.316        1.627      338.253       10.779      864.394
01/08/2015  12:53:00       95.876       72.689       26.782       41.797       32.941       37.023     1746.986     1085.103     1370.706        0.970        0.210      120.316       23.266        0.037      337.973       10.309      864.384
01/08/2015  12:54:00       60.808       19.929       15.359       49.416       38.802       30.785     2441.905     1505.567      947.722        0.461        0.245       63.991       28.707        0.201      337.977       10.318      864.377
01/08/2015  12:55:00        8.299       25.552       23.185       22.282       19.305       26.255      496.506      372.680      689.328        0.141        0.078       26.866       13.094        0.238      338.162       10.627      864.366
01/08/2015  12:56:00       14.804       26.264       40.607       19.683       18.427       12.973      387.420      339.573      168.296        0.173        0.045       30.149       12.879        0.182      338.273       10.814      864.354
01/08/2015  12:57:00       29.681       12.049       18.300       16.639       24.694       15.977      276.850      609.783      255.271        0.125        0.057       32.033       17.159        0.287      337.967       10.299      864.337
01/08/2015  12:58:00        3.891       -7.095       13.352        9.089       32.223       15.278       82.612     1038.333      233.412        0.080        0.068        8.092       19.015        5.522      338.426       11.070      864.328
01/08/2015  12:59:00       34.951       28.733       37.807       43.822       52.423       38.250     1920.409     2748.180     1463.034        0.480        0.307       45.246       30.468        0.453      338.140       10.590      864.314
01/08/2015  13:00:00       70.134       61.971       64.832       63.294       48.454       35.388     4006.160     2347.827     1252.303        1.028        0.380       93.590       31.693        0.115      338.029       10.404      864.289
01/08/2015  13:01:00       -0.350       40.800       67.475       32.570       47.119       38.161     1060.835     2220.204     1456.257        0.548        0.237       40.801       35.541        0.759      338.281       10.825      864.250
01/08/2015  13:02:00       37.664       59.523       54.816       58.445       41.813       45.967     3415.831     1748.305     2112.987        0.762        0.364       70.438       38.093        0.292      338.198       10.686      864.240
01/08/2015  13:03:00       26.610       38.882       37.966       34.917       27.905       31.511     1219.204      778.678      992.974        0.333        0.150       47.116       21.503        0.208      338.230       10.741      864.246
01/08/2015  13:04:00       38.785       41.523       20.577       27.528       37.794       34.450      757.815     1428.398     1186.795        0.351        0.169       56.819       24.995        0.194      338.219       10.722      864.242
01/08/2015  13:05:00       43.602       66.693       87.186       48.995       46.226       26.839     2400.514     2136.830      720.353        0.960        0.263       79.681       15.949        0.040      338.426       11.070      864.222
01/08/2015  13:06:00       25.144       89.640      100.153       62.655       51.789       44.321     3925.691     2682.065     1964.394        1.363        0.429       93.100       31.771        0.116      338.322       10.894      864.196
01/08/2015  13:07:00       32.467       54.366       83.665       74.272       73.489       33.073     5516.348     5400.653     1093.809        1.151        0.601       63.323       26.070        0.170      338.407       11.038      864.157
01/08/2015  13:08:00       31.067       34.319       73.034       48.509       54.434       32.517     2353.147     2963.042     1057.336        0.692        0.319       46.292       30.463        0.433      338.409       11.040      864.149
01/08/2015  13:09:00       -0.807      -32.945       22.161       24.742       42.062       22.941      612.180     1769.174      526.268        0.224        0.145       32.955       22.843        0.480      338.612       11.381      864.153
01/08/2015  13:10:00       16.425      -93.086       -6.576       33.624       36.060       20.936     1130.597     1300.346      438.309        0.592        0.143       94.524       17.707        0.035      338.389       11.009      864.144
01/08/2015  13:11:00       13.902        9.751       33.179       52.018       47.017       49.328     2705.887     2210.618     2433.295        0.437        0.367       16.981       25.196        2.201      338.706       11.540      864.131
01/08/2015  13:12:00       -2.712        3.479       14.288       49.319       63.223       36.808     2432.358     3997.159     1354.825        0.400        0.389        4.411       16.773       14.457      338.582       11.331      864.115
01/08/2015  13:13:00       65.003       79.466       12.693       57.462       87.733       40.195     3301.924     7697.023     1615.605        1.166        0.631      102.666       45.517        0.197      338.477       11.155      864.102
01/08/2015  13:14:00      104.537       67.267        6.677       52.177       28.519       31.587     2722.408      813.341      997.726        1.001        0.227      124.309       13.459        0.012      338.314       10.882      864.080
01/08/2015  13:15:00       15.741       49.300       70.481       49.724       57.874       31.876     2472.525     3349.399     1016.079        0.724        0.342       51.752       23.803        0.212      338.778       11.661      864.072
01/08/2015  13:16:00       66.409      132.454      104.201       66.723       49.842       49.644     4451.946     2484.197     2464.506        2.110        0.470      148.170       47.813        0.104      338.331       10.908      864.071
01/08/2015  13:17:00       53.196       29.545       21.077       57.270       34.317       34.507     3279.860     1177.652     1190.763        0.490        0.282       60.850       29.716        0.238      338.756       11.624      864.057
01/08/2015  13:18:00       48.389        6.954       48.504       50.109      119.225       47.857     2510.929    14214.550     2290.303        1.188        0.951       48.886       62.229        1.620      338.630       11.413      864.044
01/08/2015  13:19:00       81.559       22.381       53.942       78.470       60.323       53.952     6157.502     3638.889     2910.853        1.138        0.635       84.574       46.816        0.306      338.927       11.911      864.046
01/08/2015  13:20:00       68.706      103.724       91.810       77.894       52.503       49.547     6067.492     2756.556     2454.877        1.759        0.564      124.416       44.126        0.126      338.510       11.210      864.039
01/08/2015  13:21:00       29.077       86.729       94.318       54.208       58.890       37.143     2938.539     3468.050     1379.600        1.252        0.389       91.473       33.883        0.137      338.324       10.896      864.038
01/08/2015  13:22:00       88.275      105.870       90.166       66.292       45.752       52.028     4394.692     2093.207     2706.950        1.816        0.460      137.844       46.195        0.112      338.293       10.848      864.041
01/08/2015  13:23:00       65.334       80.744      112.824       58.227       71.544       48.964     3390.402     5118.477     2397.471        1.721        0.545      103.866       45.848        0.195      338.407       11.037      864.040
01/08/2015  13:24:00      150.686      118.531       84.662       55.378       64.944       59.428     3066.758     4217.735     3531.734        2.737        0.541      191.718       50.228        0.069      338.242       10.757      864.035
01/08/2015  13:25:00        2.549       81.918       93.224       33.699       53.865       49.924     1135.644     2901.483     2492.417        1.097        0.326       81.958       45.182        0.304      338.390       11.008      864.040
01/08/2015  13:26:00       31.895      133.393      123.825       48.797       36.207       28.900     2381.138     1310.924      835.194        1.933        0.226      137.153       28.795        0.044      338.286       10.835      864.046
01/08/2015  13:27:00       35.610       48.717       52.081       40.206       40.976       46.928     1616.498     1679.009     2202.276        0.592        0.275       60.345       36.141        0.359      338.445       11.099      864.062
01/08/2015  13:28:00       14.016       -8.912       13.404       25.163       21.243       20.515      633.194      451.266      420.851        0.098        0.075       16.609       13.515        0.662      338.580       11.327      864.062
01/08/2015  13:29:00       56.697       50.333       38.909       47.855       33.645       37.657     2290.089     1131.977     1418.079        0.605        0.242       75.815       16.293        0.046      338.480       11.160      864.047
01/08/2015  13:30:00       78.727       38.969       72.248       65.946       50.720       35.033     4348.903     2572.563     1227.339        1.054        0.407       87.843       37.499        0.182      338.426       11.069      864.049
01/08/2015  13:31:00       60.570       68.365       93.279       54.486       46.977       31.749     2968.679     2206.850     1008.024        1.161        0.309       91.338       34.302        0.141      338.461       11.128      864.048
01/08/2015  13:32:00       36.636      -47.164        5.985       32.255       60.871       27.881     1040.393     3705.335      777.330        0.456        0.276       59.722       27.481        0.212      338.449       11.108      864.061
01/08/2015  13:33:00       20.892      -78.577      -25.367       33.495       33.348       25.035     1121.882     1112.062      626.729        0.506        0.143       81.307       15.596        0.037      338.595       11.354      864.066
01/08/2015  13:34:00       77.857     -132.689      -28.437       51.618       36.046       28.796     2664.426     1299.295      829.232        1.463        0.240      153.844       20.675        0.018      338.448       11.106      864.067
01/08/2015  13:35:00       84.619     -104.355      -17.929       39.360       33.848       31.162     1549.236     1145.699      971.069        1.102        0.183      134.352       24.955        0.035      338.401       11.028      864.070
01/08/2015  13:36:00       41.844      -80.472       -9.173       39.417       65.137       37.650     1553.662     4242.813     1417.502        0.776        0.361       90.701       36.350        0.161      338.593       11.350      864.066
01/08/2015  13:37:00       47.736      -26.196       12.478       42.838       48.750       25.548     1835.116     2376.574      652.705        0.399        0.243       54.451       27.955        0.264      338.640       11.430      864.065
01/08/2015  13:38:00        6.221      -13.390        9.775       29.543       40.486       28.828      872.818     1639.123      831.074        0.183        0.167       14.764       28.311        3.677      338.790       11.681      864.068
01/08/2015  13:39:00       17.634        4.250       12.253       39.889       48.283       31.115     1591.120     2331.269      968.139        0.268        0.245       18.139       23.983        1.748      338.827       11.744      864.053
01/08/2015  13:40:00       43.838       66.134       60.327       72.602       71.393       53.698     5270.993     5096.990     2883.441        1.159        0.663       79.344       46.816        0.348      338.782       11.667      864.038
01/08/2015  13:41:00       73.275       91.862       63.702       49.422       52.109       45.148     2442.524     2715.315     2038.376        1.253        0.360      117.507       32.851        0.078      338.655       11.453      864.047
01/08/2015  13:42:00       72.224       89.981       74.015       62.294       44.858       40.030     3880.514     2012.198     1602.407        1.314        0.375      115.381       36.083        0.098      338.675       11.490      864.049
01/08/2015  13:43:00      109.036       73.489       51.436       46.029       50.692       45.132     2118.689     2569.725     2036.910        1.333        0.336      131.490       37.332        0.081      338.591       11.346      864.060
01/08/2015  13:44:00       72.150       21.605       20.333       41.098       47.467       28.623     1689.035     2253.163      819.298        0.542        0.238       75.315       22.093        0.086      338.721       11.567      864.071
01/08/2015  13:45:00       38.295       31.821       24.942       40.530       37.585       33.708     1642.653     1412.649     1136.241        0.365        0.210       49.791       29.406        0.349      338.970       11.984      864.077
01/08/2015  13:46:00       53.242        6.058       42.420       37.981       45.139       31.720     1442.537     2037.535     1006.178        0.458        0.224       53.586       28.608        0.285      338.832       11.750      864.081
01/08/2015  13:47:00      107.910       32.815       34.829       54.433       38.161       39.857     2962.976     1456.289     1588.578        0.997        0.300      112.789       23.800        0.045      338.733       11.585      864.067
01/08/2015  13:48:00       51.978       66.426       68.197       54.640       52.254       39.253     2985.511     2730.450     1540.807        0.951        0.363       84.346       38.547        0.209      338.771       11.649      864.057
01/08/2015  13:49:00       92.521       69.277       64.551       71.501       47.388       49.936     5112.364     2245.667     2493.652        1.369        0.493      115.583       44.267        0.147      338.831       11.749      864.031
01/08/2015  13:50:00       54.707       51.947       80.063       58.480       52.752       36.475     3419.930     2782.746     1330.429        0.982        0.377       75.441       34.133        0.205      338.818       11.728      864.039
01/08/2015  13:51:00       24.164       62.486       68.851       48.273       46.084       46.672     2330.312     2123.693     2178.285        0.793        0.332       66.995       40.293        0.362      338.995       12.026      864.030
01/08/2015  13:52:00       42.824       33.791       33.216       36.165       36.570       33.432     1307.893     1337.399     1117.670        0.392        0.188       54.550       19.119        0.123      338.964       11.974      864.040
01/08/2015  13:53:00       13.859       42.935       47.205       42.124       44.564       39.226     1774.453     1985.932     1538.673        0.478        0.265       45.117       26.394        0.342      339.037       12.096      864.040
01/08/2015  13:54:00       67.534       64.969       63.020       64.046       43.926       45.702     4101.888     1929.466     2088.713        1.044        0.406       93.711       34.175        0.133      338.936       11.927      864.050
01/08/2015  13:55:00       63.006       96.910       98.035      102.462       54.241       46.468    10498.425     2942.097     2159.269        1.928        0.780      115.591       44.461        0.148      338.976       11.992      864.051
01/08/2015  13:56:00      113.739       74.843       33.789       64.650       35.572       36.332     4179.610     1265.366     1319.979        1.322        0.338      136.155       37.237        0.075      338.633       11.417      864.055
01/08/2015  13:57:00       32.365       27.458       41.904       37.813       52.937       44.815     1429.799     2802.365     2008.346        0.490        0.312       42.443       37.751        0.791      338.936       11.927      864.047
01/08/2015  13:58:00       37.900       13.320       51.420       55.577       99.170       52.394     3088.780     9834.699     2745.088        0.996        0.783       40.172       70.411        3.072      339.011       12.053      864.047
01/08/2015  13:59:00       58.337      -72.364       28.700       51.445       65.241       55.884     2646.581     4256.336     3123.026        0.974        0.501       92.950       47.834        0.265      338.971       11.985      864.043
01/08/2015  14:00:00       72.473       24.838       73.526       71.866       60.133       42.757     5164.718     3616.037     1828.201        1.094        0.530       76.611       42.941        0.314      339.094       12.192      864.037
01/08/2015  14:01:00       62.585       82.765       79.465       39.653       46.804       36.876     1572.359     2190.602     1359.812        1.110        0.256      103.763       31.137        0.090      338.906       11.875      864.037
01/08/2015  14:02:00      102.834       68.699       61.891       52.078       37.692       44.689     2712.147     1420.718     1997.123        1.263        0.306      123.670       25.179        0.041      338.886       11.841      864.026
01/08/2015  14:03:00      132.628       88.421       44.563       52.747       54.346       43.736     2782.255     2953.442     1912.846        1.752        0.382      159.400       34.124        0.046      338.913       11.885      864.014
01/08/2015  14:04:00       22.032       11.571       27.816       42.763       54.635       31.767     1828.640     2985.031     1009.151        0.361        0.291       24.886       27.606        1.231      339.235       12.429      864.015
01/08/2015  14:05:00       21.576      -15.300       42.944       37.984       78.619       59.412     1442.785     6180.967     3529.791        0.685        0.558       26.450       64.600        5.965      339.194       12.359      864.019
01/08/2015  14:06:00       24.268      111.383      125.174       55.899       60.186       41.181     3124.690     3622.388     1695.855        1.855        0.422      113.996       38.040        0.111      339.034       12.091      864.020
01/08/2015  14:07:00       58.563       94.729       89.411       62.321       59.262       52.813     3883.870     3511.936     2789.201        1.529        0.509      111.370       50.851        0.208      339.008       12.048      864.025
01/08/2015  14:08:00       75.662       84.658       70.752       71.857       39.953       55.044     5163.468     1596.230     3029.868        1.384        0.489      113.542       49.160        0.187      338.952       11.953      864.016
01/08/2015  14:09:00       51.900       77.763       68.907       61.298       48.005       44.456     3757.492     2304.504     1976.317        1.076        0.402       93.491       36.370        0.151      339.046       12.111      863.995
01/08/2015  14:10:00      128.916       98.226       67.541       68.033       45.191       47.671     4628.431     2042.259     2272.513        1.988        0.447      162.073       38.927        0.058      339.004       12.039      863.981
01/08/2015  14:11:00       67.849       35.191       45.081       64.575       55.528       37.274     4169.962     3083.392     1389.346        0.826        0.432       76.433       40.542        0.281      339.120       12.236      863.968
01/08/2015  14:12:00      110.832       25.722       23.083       62.633       44.833       36.552     3922.857     2010.030     1336.013        1.037        0.363      113.778       28.135        0.061      339.184       12.344      863.962
01/08/2015  14:13:00       66.353       64.328       17.456       52.560       39.908       33.283     2762.606     1592.651     1107.791        0.715        0.273       92.416       23.632        0.065      339.127       12.247      863.971
01/08/2015  14:14:00       -2.534       11.379       15.070       22.535       31.610       24.698      507.829      999.215      609.971        0.124        0.106       11.658        6.349        0.297      339.281       12.507      863.975
01/08/2015  14:15:00       11.982      -14.709       39.178       30.508       50.856       28.487      930.736     2586.352      811.529        0.311        0.216       18.971       33.471        3.113      339.500       12.877      863.986
01/08/2015  14:16:00       64.632       49.237       27.684       49.227       41.900       39.875     2423.337     1755.643     1590.040        0.657        0.288       81.250       28.241        0.121      339.227       12.417      863.991
01/08/2015  14:17:00       46.319      -11.249        0.586       33.019       39.122       26.095     1090.234     1530.507      680.939        0.279        0.165       47.666       13.340        0.078      339.330       12.589      863.983
01/08/2015  14:18:00       30.731       46.512       33.543       49.195       31.926       26.548     2420.116     1019.238      704.821        0.419        0.207       55.747       20.907        0.141      339.343       12.611      863.988
01/08/2015  14:19:00       43.012     -121.257      -13.176       76.725       51.037       27.347     5886.765     2604.780      747.864        1.298        0.462      128.660       36.699        0.081      339.275       12.496      863.987
01/08/2015  14:20:00       88.783     -131.494      -28.407       25.114       39.738       18.198      630.731     1579.128      331.162        1.426        0.127      158.660       12.690        0.006      339.036       12.094      863.990
01/08/2015  14:21:00       35.511      -53.052       13.657       41.516       49.554       31.893     1723.556     2455.643     1017.194        0.473        0.260       63.840       30.820        0.233      339.294       12.528      863.999
01/08/2015  14:22:00       62.723       56.540       -1.251       48.445       30.482       26.093     2346.885      929.182      680.840        0.554        0.198       84.445       25.467        0.091      339.184       12.343      864.010
01/08/2015  14:23:00      119.712       74.074       12.925       32.100       26.801       24.151     1030.429      718.280      583.278        1.116        0.117      140.776        9.526        0.005      339.014       12.057      864.018
01/08/2015  14:24:00       67.553       39.430        1.356       34.453       26.025       15.563     1187.022      677.303      242.201        0.411        0.105       78.218       13.419        0.029      338.946       11.942      864.014
01/08/2015  14:25:00       37.538       37.582       10.745       42.552       31.222       30.682     1810.687      974.822      941.373        0.333        0.186       53.118       20.758        0.153      339.037       12.098      864.005
01/08/2015  14:26:00       -7.209       93.457      115.290       38.194       51.817       46.867     1458.773     2684.963     2196.532        1.421        0.317       93.735       44.323        0.224      339.093       12.189      863.989
01/08/2015  14:27:00       77.068       93.076       73.626       65.200       36.271       48.352     4250.985     1315.579     2337.878        1.396        0.395      120.841       47.370        0.154      339.058       12.132      863.988
01/08/2015  14:28:00       93.653       63.125       30.291       26.087       26.524       26.228      680.526      703.517      687.906        0.787        0.104      112.941       14.501        0.016      339.010       12.050      863.998
01/08/2015  14:29:00       47.431       43.655       36.082       59.255       39.378       32.617     3511.188     1550.636     1063.842        0.579        0.306       64.463       29.696        0.212      339.179       12.335      864.001
01/08/2015  14:30:00       52.352       25.998       40.513       35.857       33.782       30.317     1285.730     1141.226      919.104        0.420        0.167       58.452       25.787        0.195      339.218       12.401      864.012
01/08/2015  14:31:00       12.626       34.681       38.491       37.706       24.127       27.237     1421.747      582.094      741.860        0.279        0.137       36.908       15.788        0.183      339.281       12.505      864.009
01/08/2015  14:32:00       43.140       39.216       20.973       36.464       20.264       17.997     1329.647      410.620      323.901        0.295        0.103       58.300       11.264        0.037      339.160       12.302      864.004
01/08/2015  14:33:00        4.065       11.705       10.593       11.020       14.919        9.386      121.438      222.566       88.106        0.035        0.022       12.391        6.062        0.239      339.409       12.721      863.993
01/08/2015  14:34:00       27.344       27.731       24.101       28.997       17.294       18.324      840.841      299.087      335.756        0.179        0.074       38.945       10.117        0.067      339.270       12.489      863.990
01/08/2015  14:35:00       -6.324       50.105       70.619       20.477       34.811       25.454      419.302     1211.796      647.887        0.491        0.114       50.502       22.056        0.191      339.414       12.730      863.992
01/08/2015  14:36:00       42.023       71.288       72.308       46.060       32.181       31.107     2121.551     1035.594      967.619        0.810        0.206       82.752       26.011        0.099      339.294       12.528      863.994
01/08/2015  14:37:00       26.710       82.643       73.935       28.005       24.145       16.231      784.282      582.986      263.448        0.732        0.082       86.852        8.049        0.009      339.215       12.396      863.995
01/08/2015  14:38:00       50.462       53.973       55.415       33.448       34.575       23.726     1118.794     1195.445      562.910        0.570        0.144       73.888       25.880        0.123      339.141       12.270      864.005
01/08/2015  14:39:00       50.670      -21.126       11.478       19.584       27.091       19.237      383.528      733.926      370.045        0.232        0.074       54.898       13.976        0.065      339.142       12.273      864.005
01/08/2015  14:40:00       50.407      -33.848        7.708       28.066       22.977       19.935      787.725      527.950      397.395        0.273        0.086       60.717       15.500        0.065      339.187       12.349      864.002
01/08/2015  14:41:00       39.490       -8.646        1.701       23.352       20.898       21.135      545.311      436.735      446.678        0.153        0.071       40.426       13.418        0.110      339.281       12.505      863.989
01/08/2015  14:42:00       45.395       25.657       12.280       30.647       30.781       23.482      939.236      947.442      551.404        0.265        0.122       52.144       19.344        0.138      339.325       12.580      863.977
01/08/2015  14:43:00        9.111       40.958       -9.228       17.720       14.081        9.827      313.984      198.264       96.575        0.123        0.030       41.960        4.133        0.010      339.274       12.494      863.968
01/08/2015  14:44:00       37.221       30.380        0.730       32.513       26.002       17.496     1057.070      676.112      306.102        0.217        0.102       48.045       12.226        0.065      339.307       12.550      863.963
01/08/2015  14:45:00       14.440       -4.035        4.583       39.752       35.449       17.236     1580.185     1256.643      297.067        0.169        0.157       14.994       13.905        0.860      339.407       12.719      863.974
01/08/2015  14:46:00       65.290       54.875       38.097       42.630       32.452       29.384     1817.314     1053.150      863.429        0.623        0.187       85.288       15.701        0.034      339.354       12.630      863.989
01/08/2015  14:47:00      108.138       74.414       31.392       25.907       20.319       27.563      671.164      412.870      759.737        1.003        0.092      131.268       14.391        0.012      339.239       12.437      863.996
01/08/2015  14:48:00       90.708       56.207       13.992       33.753       22.426       21.782     1139.252      502.938      474.468        0.685        0.106      106.710       17.008        0.025      339.192       12.359      864.010
01/08/2015  14:49:00       43.955       47.736        7.950       25.353       24.513       17.706      642.790      600.882      313.501        0.292        0.078       64.891        8.126        0.016      339.253       12.459      864.002
01/08/2015  14:50:00       14.196       41.117       58.428       27.854       37.822       34.588      775.871     1430.487     1196.343        0.435        0.170       43.499       27.751        0.407      339.396       12.701      863.989
01/08/2015  14:51:00       34.629       79.569       81.332       40.936       36.597       29.059     1675.742     1339.351      844.448        0.900        0.193       86.778       25.914        0.089      339.302       12.542      863.969
01/08/2015  14:52:00       15.912       51.435       54.225       37.480       28.931       26.087     1404.781      837.010      680.550        0.438        0.146       53.840       24.226        0.202      339.448       12.789      863.958
01/08/2015  14:53:00        2.218       24.697       44.554       24.870       27.850       17.654      618.530      775.626      311.679        0.215        0.085       24.797       13.473        0.295      339.588       13.023      863.959
01/08/2015  14:54:00      -27.312       -8.995       -6.298       27.017       20.037       22.761      729.898      401.484      518.051        0.126        0.082       28.755       17.706        0.379      339.520       12.909      863.957
01/08/2015  14:55:00       -1.803       23.055       -1.976        8.748       11.795        9.974       76.532      139.132       99.488        0.043        0.016       23.125        6.538        0.080      339.401       12.709      863.969
01/08/2015  14:56:00       -6.828       12.664        2.045       22.349       13.478       18.869      499.469      181.649      356.038        0.062        0.052       14.388       18.130        1.588      339.460       12.809      863.972
01/08/2015  14:57:00       68.103       19.199       15.076       31.923       29.714       22.652     1019.064      882.927      513.107        0.382        0.121       70.757       13.824        0.038      339.291       12.524      863.974
01/08/2015  14:58:00       29.301       18.996       15.647       30.442       29.154       15.980      926.724      849.980      255.345        0.175        0.102       34.920        9.310        0.071      339.480       12.842      863.966
01/08/2015  14:59:00       43.698       38.206        6.202       23.570       38.903       24.994      555.538     1513.479      624.682        0.305        0.135       58.045       22.716        0.153      339.444       12.782      863.956
01/08/2015  15:00:00       48.852       54.981        0.834       30.667       36.312       27.338      940.472     1318.593      747.364        0.421        0.150       73.549       22.501        0.094      339.366       12.647      863.942
01/08/2015  15:01:00        9.800       41.783       -2.602       29.825       49.235       17.418      889.536     2424.100      303.389        0.273        0.181       42.917       22.978        0.287      339.405       12.716      863.924
01/08/2015  15:02:00        5.991       34.846       35.587       33.282       28.030       41.043     1107.721      785.679     1684.542        0.305        0.179       35.357       18.346        0.269      339.478       12.839      863.916
01/08/2015  15:03:00        4.204       49.765       52.486       26.753       34.372       26.766      715.698     1181.421      716.409        0.393        0.131       49.943       21.165        0.180      339.478       12.840      863.913
01/08/2015  15:04:00       80.718       54.070       13.936       26.729       23.674       23.572      714.429      560.470      555.661        0.573        0.092       97.154        9.983        0.011      339.365       12.646      863.919
01/08/2015  15:05:00       69.151       48.025       10.807       33.337       27.206       20.950     1111.336      740.174      438.911        0.475        0.115       84.192       17.207        0.042      339.345       12.614      863.926
01/08/2015  15:06:00       50.193       24.627        3.162       24.769       22.985       20.749      613.512      528.318      430.505        0.235        0.079       55.909       16.774        0.090      339.402       12.712      863.926
01/08/2015  15:07:00       64.868       56.628       21.205       23.817       23.173       19.093      567.242      537.004      364.534        0.467        0.073       86.108       10.404        0.015      339.414       12.732      863.920
01/08/2015  15:08:00       30.196       25.777        1.483       29.988       18.198       14.711      899.277      331.165      216.418        0.151        0.072       39.702        6.462        0.026      339.464       12.815      863.902
01/08/2015  15:09:00       47.474       46.755       25.069       40.571       27.430       32.028     1646.015      752.409     1025.796        0.425        0.171       66.632       22.474        0.114      339.455       12.799      863.877
01/08/2015  15:10:00      -15.724       32.099       51.697       16.804       27.215       19.882      282.375      740.635      395.287        0.268        0.071       35.743       18.857        0.278      339.571       12.995      863.853
01/08/2015  15:11:00       53.184       41.665       11.345       28.376       20.416       21.279      805.216      416.802      452.810        0.318        0.084       67.561       16.244        0.058      339.402       12.711      863.834
01/08/2015  15:12:00       60.971       50.835       23.054       36.717       26.615       25.432     1348.106      708.361      646.790        0.477        0.135       79.383       22.939        0.083      339.381       12.675      863.819
01/08/2015  15:13:00       85.684       47.296       16.716       37.201       36.106       21.785     1383.888     1303.664      474.574        0.651        0.158       97.871       16.948        0.030      339.397       12.702      863.815
01/08/2015  15:14:00       69.609       30.676       10.370       26.224       21.522       17.791      687.687      463.212      316.510        0.368        0.073       76.069       17.153        0.051      339.360       12.639      863.809
01/08/2015  15:15:00       75.456       48.233       20.434       14.056       17.741       19.607      197.579      314.741      384.443        0.467        0.045       89.555       12.033        0.018      339.404       12.714      863.799
01/08/2015  15:16:00       39.984       48.142        3.016       18.529       19.461       15.491      343.315      378.745      239.962        0.244        0.048       62.581        9.866        0.025      339.439       12.772      863.806
01/08/2015  15:17:00       12.085       18.981       21.402       19.767       19.076       15.297      390.744      363.902      234.011        0.098        0.049       22.501       12.664        0.317      339.576       13.005      863.801
01/08/2015  15:18:00       34.604        3.674        0.563       39.056       15.020       13.226     1525.401      225.589      174.936        0.157        0.096       34.798       14.048        0.163      339.587       13.025      863.801
01/08/2015  15:19:00       33.828       13.002        5.923       24.490       15.918       14.640      599.779      253.382      214.341        0.121        0.053       36.240       14.479        0.160      339.603       13.048      863.804
01/08/2015  15:20:00       42.257       -2.685       -2.823       28.503       24.620       13.377      812.427      606.127      178.954        0.170        0.080       42.342       11.288        0.071      339.526       12.920      863.796
01/08/2015  15:21:00        9.869      -16.180        2.542       10.210       14.542       12.963      104.251      211.469      168.042        0.042        0.024       18.952       11.108        0.344      339.598       13.041      863.795
01/08/2015  15:22:00       13.322       22.094       20.538       17.523       21.934       11.695      307.049      481.080      136.772        0.101        0.046       25.799        6.880        0.071      339.658       13.142      863.786
01/08/2015  15:23:00       49.254       43.108        0.173       29.565       37.763       29.494      874.068     1426.060      869.910        0.373        0.159       65.454       19.404        0.088      339.508       12.888      863.781
01/08/2015  15:24:00       38.902       27.804        0.495       24.878       27.947       16.451      618.912      781.017      270.621        0.198        0.084       47.817        8.552        0.032      339.472       12.828      863.772
01/08/2015  15:25:00       21.944       13.569        6.715       31.519       14.953       16.175      993.461      223.579      261.629        0.109        0.074       25.800        6.762        0.069      339.519       12.907      863.766
01/08/2015  15:26:00        1.169       -3.268       18.499       13.509       31.869       17.326      182.503     1015.602      300.176        0.093        0.075        3.471       17.897       26.590      339.705       13.222      863.759
01/08/2015  15:27:00       14.242        8.190       24.543       25.419       37.804       21.687      646.110     1429.122      470.330        0.171        0.127       16.429       20.815        1.605      339.636       13.105      863.758
01/08/2015  15:28:00       26.784       48.545       44.178       37.316       31.566       32.222     1392.505      996.422     1038.260        0.423        0.171       55.444       27.767        0.251      339.528       12.923      863.754
01/08/2015  15:29:00       32.593      -64.637       15.293       34.460       57.828       28.912     1187.472     3344.051      835.918        0.542        0.268       72.389       34.229        0.224      339.543       12.947      863.754
01/08/2015  15:30:00       36.669      -99.522       -0.095       36.449       44.727       29.306     1328.544     2000.541      858.812        0.772        0.209      106.062       28.239        0.071      339.518       12.907      863.752
01/08/2015  15:31:00       28.481       22.174       35.852       26.562       65.426       39.899      705.518     4280.522     1591.932        0.458        0.329       36.095       45.740        1.606      339.448       12.787      863.745
01/08/2015  15:32:00        2.658        3.957       29.657       12.796       20.189       14.786      163.731      407.614      218.620        0.085        0.039        4.767       13.185        7.649      339.577       13.006      863.740
01/08/2015  15:33:00        9.673       19.631       29.086       16.029       18.034       12.108      256.924      325.240      146.601        0.103        0.036       21.884       11.170        0.261      339.505       12.886      863.733
01/08/2015  15:34:00      -10.152       16.471       16.525       11.535       17.735       15.768      133.058      314.548      248.643        0.067        0.035       19.349        8.035        0.172      339.551       12.962      863.723
01/08/2015  15:35:00        5.089       17.870        5.338       21.490       21.413       12.491      461.833      458.503      156.020        0.072        0.054       18.580       13.168        0.502      339.496       12.869      863.726
01/08/2015  15:36:00       28.193       12.201       -2.026       16.289       15.593       12.578      265.336      243.145      158.208        0.081        0.033       30.719        4.673        0.023      339.453       12.795      863.719
01/08/2015  15:37:00        3.413        6.713        1.997       17.387       30.441       17.409      302.304      926.672      303.066        0.080        0.077        7.531       15.641        4.313      339.497       12.872      863.715
01/08/2015  15:38:00       32.357       25.208       15.469       18.804       21.994       16.494      353.588      483.744      272.040        0.152        0.055       41.017       10.088        0.060      339.445       12.784      863.708
01/08/2015  15:39:00       27.925       13.958       17.006       27.109       15.775       14.025      734.923      248.843      196.698        0.122        0.059       31.220        6.509        0.043      339.416       12.735      863.709
01/08/2015  15:40:00       71.629       42.639       22.484       24.125       15.298       15.565      582.019      234.036      242.257        0.426        0.053       83.359        8.869        0.011      339.430       12.756      863.699
01/08/2015  15:41:00       42.442       25.086       18.010       23.524       17.617       11.396      553.383      310.346      129.870        0.187        0.050       49.302        6.109        0.015      339.421       12.742      863.698
01/08/2015  15:42:00       20.469       22.485       12.600       19.080       13.268       14.152      364.029      176.042      200.268        0.091        0.037       30.406        5.299        0.030      339.466       12.817      863.707
01/08/2015  15:43:00       -3.700       -7.347        5.177        8.246       13.186        9.849       68.002      173.860       97.005        0.022        0.017        8.226        5.093        0.383      339.507       12.887      863.723
01/08/2015  15:44:00        7.779      -12.473        0.905       13.662       15.191       12.963      186.663      230.771      168.043        0.040        0.029       14.700       12.126        0.680      339.593       13.033      863.741
01/08/2015  15:45:00        8.669      -17.030       -1.299       13.968       21.223       11.005      195.102      450.399      121.117        0.057        0.038       19.110        9.197        0.232      339.550       12.961      863.752
01/08/2015  15:46:00        6.048        6.920        3.786        9.326       10.873        8.433       86.980      118.230       71.109        0.019        0.014        9.190        8.155        0.787      339.496       12.868      863.773
01/08/2015  15:47:00      -11.274        3.249       10.304       12.581       11.086        8.912      158.293      122.889       79.424        0.030        0.018       11.733        6.826        0.338      339.629       13.094      863.790
01/08/2015  15:48:00      -14.722       -8.197        5.061       18.404        9.805       11.589      338.690       96.147      134.312        0.044        0.028       16.850        8.318        0.244      339.684       13.186      863.802
01/08/2015  15:49:00      -36.855      -13.750        2.246       40.842       19.847       11.392     1668.093      393.896      129.767        0.187        0.110       39.336       12.367        0.099      339.652       13.132      863.823
01/08/2015  15:50:00      -24.502      -21.224       -1.824       38.209       25.100       16.107     1459.910      630.001      259.437        0.170        0.117       32.416       11.677        0.130      339.635       13.103      863.829
01/08/2015  15:51:00      -73.951      -68.372        3.815       30.054       25.581       18.719      903.268      654.410      350.413        0.603        0.095      100.715       16.797        0.028      339.491       12.860      863.835
01/08/2015  15:52:00      -49.584      -35.953       -0.973       30.638       19.823       11.473      938.670      392.936      131.639        0.261        0.073       61.247       11.288        0.034      339.481       12.844      863.844
01/08/2015  15:53:00      -36.734      -32.701       -2.417       14.094       10.432       11.269      198.651      108.818      126.988        0.143        0.022       49.181        8.255        0.028      339.512       12.896      863.841
01/08/2015  15:54:00      -18.124      -10.304        2.978       21.370       12.677        9.206      456.670      160.705       84.754        0.057        0.035       20.848        7.381        0.125      339.518       12.906      863.847
01/08/2015  15:55:00      -36.170      -32.546        1.296       35.122       24.851       17.456     1233.530      617.575      304.723        0.226        0.108       48.657       13.023        0.072      339.525       12.917      863.855
01/08/2015  15:56:00      -57.397      -43.718       -3.063       37.407       27.169       20.375     1399.284      738.167      415.134        0.388        0.128       72.150       21.783        0.091      339.519       12.907      863.856
01/08/2015  15:57:00      -70.386      -47.779       -5.350       25.710       19.468       12.717      661.016      379.002      161.714        0.423        0.060       85.071       14.946        0.031      339.495       12.867      863.868
01/08/2015  15:58:00      -66.114      -40.823       -5.379       16.408       13.996       10.287      269.228      195.892      105.829        0.332        0.029       77.702        6.391        0.007      339.544       12.951      863.881
01/08/2015  15:59:00      -57.795      -32.635       -1.029       20.488       24.566       15.271      419.747      603.488      233.189        0.283        0.063       66.372       13.150        0.039      339.506       12.885      863.897
01/08/2015  16:00:00      -39.819      -40.561        5.874       27.765       20.176       13.685      770.921      407.067      187.291        0.231        0.068       56.839       10.001        0.031      339.534       12.933      863.909
01/08/2015  16:01:00      -56.472      -28.057       -0.715       32.853       18.648       13.217     1079.299      347.731      174.678        0.279        0.080       63.058       13.387        0.045      339.525       12.918      863.918
01/08/2015  16:02:00      -81.981      -48.794       -1.607       29.003       21.315       12.660      841.184      454.325      160.284        0.528        0.073       95.403        7.294        0.006      339.529       12.925      863.925
01/08/2015  16:03:00      -73.457      -72.188       -5.260       36.135       18.128       12.912     1305.720      328.634      166.721        0.622        0.090      102.990        8.195        0.006      339.498       12.871      863.924
01/08/2015  16:04:00      -65.078      -59.165       -1.537       37.718       22.035       16.635     1422.615      485.531      276.716        0.496        0.109       87.952       15.420        0.031      339.519       12.907      863.927
01/08/2015  16:05:00      -11.011      -39.507        9.390       20.522       39.383       12.705      421.159     1551.048      161.426        0.195        0.107       41.012       16.381        0.160      339.519       12.908      863.925
01/08/2015  16:06:00      -49.157      -40.843       -6.796       17.602       16.160       15.071      309.827      261.158      227.127        0.246        0.040       63.911        4.618        0.005      339.539       12.942      863.928
01/08/2015  16:07:00      -22.519      -39.183        9.578       23.481       17.770       15.414      551.364      315.776      237.602        0.162        0.055       45.193       12.009        0.071      339.541       12.946      863.926
01/08/2015  16:08:00      -15.873      -44.271        6.821       30.796       28.738       17.404      948.391      825.895      302.904        0.217        0.104       47.031       15.856        0.114      339.524       12.917      863.919
01/08/2015  16:09:00      -19.724      -33.565        6.952       30.673       27.015       17.008      940.856      729.815      289.281        0.176        0.098       38.932       17.587        0.204      339.519       12.909      863.905
01/08/2015  16:10:00      -13.242      -79.173        5.023       50.858       34.638       14.107     2586.581     1199.778      199.007        0.523        0.199       80.273       17.930        0.050      339.462       12.810      863.884
01/08/2015  16:11:00       -6.096      -16.017        6.627       28.509       26.132       12.776      812.791      682.880      163.235        0.100        0.083       17.137       14.537        0.720      339.460       12.809      863.867
01/08/2015  16:12:00        0.927        7.030        4.063       17.714       12.695       14.806      313.803      161.160      219.231        0.038        0.035        7.091       11.432        2.600      339.401       12.709      863.848
01/08/2015  16:13:00      -13.603       14.247      -18.312       18.968       16.709        9.398      359.792      279.198       88.331        0.073        0.036       19.698        8.142        0.171      339.406       12.720      863.833
01/08/2015  16:14:00      -21.100       21.502       -8.881       30.099       19.741       15.210      905.933      389.724      231.359        0.126        0.076       30.125       16.045        0.284      339.486       12.851      863.817
01/08/2015  16:15:00        3.935        6.349       -8.887       40.018       17.598       20.067     1601.479      309.702      402.692        0.122        0.116        7.469       15.183        4.132      339.382       12.679      863.812
01/08/2015  16:16:00      -10.586       -0.093      -15.050       20.866       13.281       12.580      435.384      176.390      158.264        0.055        0.039       10.587       11.588        1.198      339.409       12.724      863.818
01/08/2015  16:17:00      -30.402      -16.539      -17.687       15.160       14.914        8.970      229.812      222.442       80.466        0.102        0.027       34.610        6.065        0.031      339.442       12.778      863.821
01/08/2015  16:18:00       25.219      -26.948       -7.703       13.243       14.399       18.451      175.389      207.337      340.440        0.107        0.036       36.908       11.237        0.093      339.438       12.772      863.825
01/08/2015  16:19:00       24.177       18.957        5.594       18.387       16.492       11.353      338.079      271.986      128.899        0.086        0.037       30.723        9.438        0.094      339.259       12.470      863.817
01/08/2015  16:20:00       29.277       15.807        1.438       19.501       16.438        9.339      380.306      270.213       87.224        0.092        0.037       33.271        6.747        0.041      339.139       12.266      863.827
01/08/2015  16:21:00       37.043        2.428        9.167       26.452       16.850       10.404      699.735      283.911      108.238        0.128        0.055       37.122        8.228        0.049      339.181       12.337      863.829
01/08/2015  16:22:00       34.679       13.824        6.547       16.916       17.157       13.303      286.154      294.372      176.970        0.110        0.038       37.333       10.709        0.082      339.122       12.237      863.829
01/08/2015  16:23:00       25.978       11.271        4.789       15.495        9.898        9.390      240.096       97.969       88.169        0.063        0.021       28.317        5.787        0.042      339.092       12.189      863.842
01/08/2015  16:24:00       13.124      -12.183       -1.575       12.847       12.185        5.169      165.039      148.469       26.722        0.033        0.017       17.907        4.147        0.054      339.151       12.286      863.859
01/08/2015  16:25:00      -14.080       -2.874        1.843        6.673        4.496        9.113       44.534       20.211       83.043        0.018        0.007       14.370        3.928        0.075      339.217       12.400      863.876
01/08/2015  16:26:00      -30.131      -16.129       -3.290        8.290        9.427       10.170       68.718       88.870      103.428        0.072        0.013       34.176        8.512        0.062      339.101       12.203      863.911
01/08/2015  16:27:00      -17.330      -25.459       -3.835        9.366        5.910        5.466       87.725       34.934       29.883        0.056        0.008       30.798        3.997        0.017      339.029       12.083      863.935
01/08/2015  16:28:00      -18.674      -27.299       -0.772       10.344        6.992        7.750      106.990       48.893       60.066        0.066        0.011       33.075        6.261        0.036      339.209       12.385      863.949
01/08/2015  16:29:00       14.313      -29.839       -0.384        7.631        5.038        8.106       58.231       25.382       65.705        0.062        0.007       33.094        4.525        0.019      339.245       12.445      863.938
01/08/2015  16:30:00       11.511       -8.816       -2.017       13.084        9.393       10.276      171.195       88.228      105.600        0.029        0.018       14.499        7.911        0.298      339.266       12.481      863.921
01/08/2015  16:31:00       40.020       18.815        7.730       11.058        8.702        9.310      122.283       75.720       86.668        0.115        0.014       44.222        6.023        0.019      339.105       12.213      863.904
01/08/2015  16:32:00       25.504       15.796       10.153       10.964        9.161       10.220      120.210       83.920      104.439        0.066        0.015       30.000        5.639        0.035      338.929       11.915      863.873
01/08/2015  16:33:00       33.327        5.498        6.137       20.052        9.985        8.079      402.096       99.704       65.272        0.087        0.028       33.777        9.702        0.082      338.964       11.973      863.854
01/08/2015  16:34:00       36.143       18.184       18.680       25.278       21.461       13.613      639.002      460.560      185.325        0.164        0.064       40.459       12.222        0.091      338.947       11.946      863.838
01/08/2015  16:35:00       25.669        4.695       17.457       15.135       14.417       12.528      229.063      207.842      156.962        0.079        0.030       26.095        7.274        0.078      338.827       11.743      863.820
01/08/2015  16:36:00       36.862       -5.487       11.410       26.159       14.814       13.378      684.285      219.445      178.973        0.130        0.054       37.268       11.573        0.096      338.891       11.851      863.815
01/08/2015  16:37:00       40.823        1.770       12.643       28.054       22.145       17.011      787.049      490.395      289.373        0.170        0.078       40.862       18.495        0.205      338.883       11.837      863.817
01/08/2015  16:38:00       53.411        8.437       14.920       38.710       26.103       20.472     1498.469      681.390      419.091        0.287        0.130       54.073       20.891        0.149      338.944       11.939      863.837
01/08/2015  16:39:00       38.300       -2.509       15.259       26.073       20.133       17.766      679.819      405.342      315.614        0.155        0.070       38.383       17.616        0.211      338.868       11.813      863.848
01/08/2015  16:40:00       11.403       -2.040        3.223       19.678       17.534       13.111      387.207      307.437      171.893        0.051        0.043       11.584       11.564        0.996      338.852       11.785      863.850
01/08/2015  16:41:00       17.621        7.626       12.528       12.681       15.580       11.120      160.801      242.744      123.658        0.053        0.026       19.201        8.261        0.185      338.854       11.788      863.852
01/08/2015  16:42:00       27.640        7.625        4.260       12.779       14.854       11.550      163.301      220.637      133.394        0.068        0.026       28.673        8.849        0.095      338.852       11.786      863.861
01/08/2015  16:43:00       23.628       16.167        6.183       15.917       12.781       13.376      253.343      163.355      178.907        0.073        0.030       28.629        9.979        0.121      338.893       11.854      863.877
01/08/2015  16:44:00       36.972       21.160       11.913       13.601       10.308       10.301      184.975      106.262      106.110        0.118        0.020       42.599        7.184        0.028      338.889       11.847      863.875
01/08/2015  16:45:00       42.835       10.839        3.293       10.183       14.338       12.245      103.691      205.568      149.941        0.121        0.023       44.185        8.485        0.037      338.929       11.914      863.877
01/08/2015  16:46:00       25.917       24.649       17.818       21.785       16.998       12.645      474.596      288.937      159.898        0.126        0.046       35.767        8.595        0.058      338.780       11.664      863.891
01/08/2015  16:47:00        8.479       19.404       15.992       15.993       16.883        8.475      255.773      285.029       71.828        0.066        0.031       21.176        3.536        0.028      338.718       11.560      863.896
01/08/2015  16:48:00       27.429        6.437        9.642       23.042       12.826       14.516      530.932      164.497      210.702        0.090        0.045       28.175       14.382        0.261      338.746       11.605      863.895
01/08/2015  16:49:00       16.264       -4.363        9.947       26.184       15.175       15.218      685.589      230.288      231.584        0.076        0.057       16.839       10.991        0.426      338.725       11.572      863.900
01/08/2015  16:50:00      -17.284      -40.724       -1.801       20.331       19.763       18.256      413.331      390.593      333.281        0.155        0.057       44.240       18.218        0.170      338.560       11.294      863.909
01/08/2015  16:51:00      -31.521      -31.606        5.512       13.727       10.376       14.065      188.440      107.655      197.816        0.126        0.025       44.637        7.570        0.029      338.512       11.215      863.911
01/08/2015  16:52:00      -35.231      -15.950       -6.660       10.160        6.567        6.101      103.231       43.125       37.223        0.086        0.009       38.673        6.327        0.027      338.371       10.976      863.906
01/08/2015  16:53:00      -33.233      -25.446       -7.836       15.246        8.515        6.417      232.446       72.510       41.184        0.108        0.017       41.856        5.886        0.020      338.205       10.698      863.911
01/08/2015  16:54:00      -41.465      -14.281       -4.322        8.008        8.200        5.161       64.128       67.233       26.635        0.105        0.008       43.855        3.424        0.006      338.431       11.080      863.916
01/08/2015  16:55:00      -23.063       -9.686       -9.466       18.412       11.841        8.274      339.002      140.221       68.467        0.063        0.027       25.014        9.962        0.159      338.297       10.852      863.913
01/08/2015  16:56:00      -30.637       -1.214       -6.729       16.436       14.337       10.929      270.148      205.549      119.436        0.079        0.030       30.661        9.764        0.101      338.453       11.116      863.912
01/08/2015  16:57:00      -27.165       -8.349       -2.173        5.989        6.095        4.567       35.871       37.148       20.856        0.045        0.005       28.419        3.423        0.015      338.271       10.810      863.918
01/08/2015  16:58:00      -11.251        4.478        0.239       14.371        8.408        4.954      206.514       70.702       24.546        0.022        0.015       12.109        3.559        0.086      338.256       10.784      863.914
01/08/2015  16:59:00       16.397       66.286      -14.792       11.476       19.642       11.041      131.692      385.812      121.902        0.276        0.032       68.284       13.430        0.039      338.260       10.791      863.913
01/08/2015  17:00:00       23.551       19.011       -1.771       19.919       25.970        9.637      396.755      674.455       92.862        0.104        0.058       30.266       12.917        0.182      338.633       11.417      863.895
01/08/2015  17:01:00       30.264        2.682        1.808       12.246       10.520        9.181      149.970      110.667       84.295        0.064        0.017       30.383        7.910        0.068      338.717       11.558      863.894
01/08/2015  17:02:00       -4.954        2.966        3.889       11.365       12.094        6.622      129.159      146.275       43.854        0.018        0.016        5.774        5.167        0.801      338.375       10.983      863.887
01/08/2015  17:03:00        8.176       10.531       -5.229       15.138       14.795        7.746      229.163      218.890       59.999        0.036        0.025       13.333        4.816        0.130      338.463       11.130      863.881
01/08/2015  17:04:00        0.422       23.907       -3.355       10.916       16.367        7.536      119.160      267.881       56.794        0.051        0.022       23.910        5.889        0.061      338.479       11.159      863.873
01/08/2015  17:05:00        9.040       21.427       -0.406       13.294       12.861        9.257      176.735      165.414       85.684        0.048        0.021       23.256        4.895        0.044      338.457       11.123      863.857
01/08/2015  17:06:00        7.975       20.803       -0.727       12.420       12.582        9.862      154.256      158.312       97.249        0.045        0.020       22.279        8.193        0.135      338.432       11.080      863.861
01/08/2015  17:07:00        9.515        1.962       -2.732       20.826        8.349        8.297      433.714       69.706       68.835        0.034        0.029        9.715        8.568        0.778      338.439       11.091      863.848
01/08/2015  17:08:00       -8.755        3.740        2.143       14.598       18.664        6.322      213.090      348.348       39.965        0.035        0.030        9.521        7.196        0.571      338.120       10.556      863.853
01/08/2015  17:09:00      -48.528      -29.565       -8.882       18.437        9.746        7.877      339.911       94.976       62.046        0.190        0.025       56.825        7.473        0.017      337.518        9.547      863.846
01/08/2015  17:10:00      -59.837      -26.570      -16.223       10.267       11.016        7.393      105.417      121.352       54.649        0.242        0.014       65.471        4.736        0.005      337.290        9.164      863.851
01/08/2015  17:11:00      -70.841      -19.180      -14.578        9.236       11.103        7.734       85.303      123.273       59.807        0.293        0.013       73.392        5.260        0.005      337.278        9.145      863.841
01/08/2015  17:12:00      -56.476      -29.825      -14.264        9.944       11.647        6.630       98.892      135.660       43.955        0.228        0.014       63.867        2.165        0.001      337.292        9.168      863.847
01/08/2015  17:13:00      -70.748      -12.534      -15.442       11.833       13.748       10.173      140.012      189.015      103.499        0.292        0.022       71.849        6.042        0.007      337.308        9.194      863.849
01/08/2015  17:14:00      -85.864      -16.629      -16.565       15.936       17.576       11.110      253.958      308.903      123.438        0.430        0.034       87.459        4.393        0.003      337.355        9.273      863.850
01/08/2015  17:15:00      -81.157      -20.816      -11.961       15.687       14.592       11.756      246.077      212.925      138.204        0.388        0.030       83.784        4.541        0.003      337.052        8.764      863.849
01/08/2015  17:16:00      -96.015      -11.650      -15.758       15.641       23.456       11.120      244.634      550.170      123.650        0.526        0.046       96.719        8.613        0.008      337.074        8.802      863.865
01/08/2015  17:17:00     -103.212      -21.680      -15.973       22.412       18.502       18.254      502.312      342.339      333.221        0.628        0.059      105.465       15.069        0.020      337.051        8.764      863.877
01/08/2015  17:18:00     -108.365      -23.879      -16.153       16.622       18.609       12.395      276.276      346.286      153.643        0.667        0.039      110.965        4.691        0.002      336.923        8.550      863.888
01/08/2015  17:19:00     -109.572      -16.375      -14.288       18.673       25.022       18.599      348.669      626.123      345.913        0.690        0.066      110.789       12.924        0.014      336.964        8.618      863.891
01/08/2015  17:20:00     -109.163      -16.177      -19.954       28.709       24.966       15.137      824.194      623.288      229.132        0.713        0.084      110.356       15.972        0.021      336.970        8.627      863.896
01/08/2015  17:21:00      -91.949      -51.777      -15.848       20.646       30.854       17.147      426.240      951.950      294.029        0.653        0.084      105.525       11.853        0.013      336.890        8.496      863.897
01/08/2015  17:22:00     -101.411      -13.760      -21.871       19.435       15.477       14.576      377.711      239.536      212.468        0.589        0.041      102.340       11.934        0.014      337.173        8.968      863.881
01/08/2015  17:23:00     -109.311      -28.212      -14.408       21.624       25.756       17.081      467.617      663.376      291.765        0.719        0.071      112.893        8.178        0.005      337.058        8.776      863.870
01/08/2015  17:24:00      -90.513      -39.821       -2.781       18.656       26.704       20.311      348.036      713.080      412.549        0.563        0.074       98.885       13.680        0.019      336.802        8.349      863.865
01/08/2015  17:25:00     -107.779      -18.065      -22.274       20.424       18.748       12.219      417.135      351.494      149.312        0.668        0.046      109.282        6.007        0.003      336.787        8.323      863.861
01/08/2015  17:26:00     -122.905      -10.995      -19.252       29.666       17.760       15.403      880.051      315.404      237.254        0.851        0.072      123.396       13.751        0.012      336.691        8.165      863.852
01/08/2015  17:27:00     -119.925      -19.111      -10.988       22.048       24.536       19.077      486.100      601.999      363.921        0.816        0.073      121.438       14.276        0.014      336.613        8.033      863.858
01/08/2015  17:28:00     -104.574       -1.204      -19.864       24.109       22.577       21.531      581.228      509.733      463.581        0.644        0.078      104.581       15.063        0.021      336.543        7.915      863.863
01/08/2015  17:29:00     -110.846       21.624      -24.838       25.196       20.963       21.731      634.849      439.428      472.218        0.746        0.077      112.936        2.039        0.000      336.587        7.990      863.870
01/08/2015  17:30:00     -146.095       16.126      -22.255       29.867       25.313       18.947      892.014      640.728      358.999        1.200        0.095      146.983        8.244        0.003      336.669        8.127      863.868
01/08/2015  17:31:00     -110.941       -1.344      -20.084       25.337       28.245       20.400      641.955      797.773      416.174        0.728        0.093      110.949       14.476        0.017      336.525        7.885      863.874
01/08/2015  17:32:00     -112.422       -3.546      -19.547       25.659       16.941       17.034      658.374      287.010      290.156        0.713        0.062      112.478       11.139        0.010      336.480        7.809      863.874
01/08/2015  17:33:00     -128.322      -11.153      -25.955       29.881       25.096       21.170      892.868      629.802      448.148        0.962        0.099      128.806       18.183        0.020      336.567        7.956      863.870
01/08/2015  17:34:00      -93.210      -21.238       -6.458       27.666       24.907       16.727      765.408      620.365      279.806        0.542        0.083       95.599       15.661        0.027      336.572        7.964      863.866
01/08/2015  17:35:00     -110.291       -6.146      -24.475       25.878       12.842       17.516      669.691      164.910      306.799        0.697        0.057      110.462        7.917        0.005      336.885        8.488      863.860
01/08/2015  17:36:00      -56.851       -2.922      -17.676       41.552       31.021       18.322     1726.534      962.286      335.684        0.329        0.151       56.926       10.807        0.036      336.899        8.513      863.856
01/08/2015  17:37:00      -13.461      -16.038       12.255       20.884       10.927       15.296      436.161      119.408      233.964        0.069        0.039       20.938        9.046        0.187      337.224        9.054      863.859
01/08/2015  17:38:00      -22.484      -30.696       -7.741       12.487       13.050        9.793      155.933      170.290       95.897        0.096        0.021       38.050        6.972        0.034      337.178        8.975      863.858
01/08/2015  17:39:00      -13.473      -29.396       -5.140       17.071       11.201       13.484      291.404      125.459      181.814        0.084        0.030       32.337        7.955        0.061      337.055        8.771      863.855
01/08/2015  17:40:00      -10.433      -26.306        0.927        8.951       11.463       11.233       80.129      131.392      126.174        0.057        0.017       28.299        4.962        0.031      337.169        8.962      863.867
01/08/2015  17:41:00      -19.267      -33.465        0.869       17.606       13.342       13.776      309.977      178.022      189.775        0.108        0.034       38.615        6.665        0.030      337.368        9.295      863.874
01/08/2015  17:42:00      -39.378      -10.980       -2.273       11.774       14.678        7.997      138.634      215.437       63.956        0.105        0.021       40.880        3.432        0.007      336.944        8.587      863.882
01/08/2015  17:43:00      -29.782        0.813       -2.391        9.865        9.193        4.910       97.313       84.516       24.110        0.055        0.010       29.794        4.645        0.024      337.079        8.810      863.900
01/08/2015  17:44:00      -44.822      -26.914      -10.315        7.530        7.884        6.633       56.702       62.164       43.992        0.150        0.008       52.281        4.572        0.008      336.688        8.157      863.909
01/08/2015  17:45:00      -63.892      -34.511      -15.627        9.626        9.330        7.649       92.665       87.043       58.509        0.288        0.012       72.616        3.006        0.002      336.254        7.433      863.911
01/08/2015  17:46:00     -101.266       -6.245      -17.664       27.013       27.923       11.731      729.708      779.720      137.616        0.613        0.082      101.459        6.731        0.004      336.236        7.402      863.932
01/08/2015  17:47:00     -111.319        1.922      -18.128       16.677       16.487       11.273      278.135      271.823      127.082        0.670        0.034      111.336        6.526        0.003      336.129        7.223      863.943
01/08/2015  17:48:00     -113.835        3.318      -23.085       22.037       16.334       13.543      485.608      266.806      183.405        0.722        0.047      113.884        9.054        0.006      336.195        7.334      863.949
01/08/2015  17:49:00      -93.166        2.888      -18.813       19.540       17.379       13.858      381.793      302.035      192.042        0.496        0.044       93.211       10.393        0.012      336.294        7.498      863.966
01/08/2015  17:50:00      -78.562        4.593      -12.426       26.596       19.566       13.898      707.324      382.830      193.167        0.382        0.064       78.697       12.277        0.024      336.354        7.599      863.967
01/08/2015  17:51:00      -97.896        0.111      -18.386       19.675       14.722       15.402      387.109      216.735      237.214        0.538        0.042       97.896        9.680        0.010      336.361        7.612      863.973
01/08/2015  17:52:00      -92.566      -16.306      -13.893       14.225       15.329       14.460      202.343      234.977      209.100        0.484        0.032       93.991       11.130        0.014      336.185        7.317      863.971
01/08/2015  17:53:00      -76.497      -38.941      -13.735       21.806       21.918       14.944      475.521      480.408      223.312        0.437        0.059       85.839        6.474        0.006      336.179        7.307      863.956
01/08/2015  17:54:00     -106.397      -16.350      -21.354       16.305       19.140       14.671      265.855      366.348      215.226        0.645        0.042      107.646        9.783        0.008      336.262        7.445      863.940
01/08/2015  17:55:00      -85.297      -13.987      -13.953       12.553       16.093       10.302      157.580      258.998      106.130        0.409        0.026       86.436        6.657        0.006      336.261        7.444      863.923
01/08/2015  17:56:00      -86.018      -13.661      -15.219       20.428       15.031       13.683      417.304      225.937      187.224        0.432        0.042       87.096       12.911        0.022      336.302        7.512      863.903
01/08/2015  17:57:00      -84.912      -23.321      -13.090       17.183       18.828       12.971      295.243      354.501      168.252        0.437        0.041       88.056        9.665        0.012      336.326        7.554      863.890
01/08/2015  17:58:00      -63.982      -14.460       -7.019       41.127       13.795       15.810     1691.425      190.307      249.943        0.324        0.107       65.595       20.405        0.097      336.283        7.480      863.891
01/08/2015  17:59:00      -69.880      -25.294       -6.407       21.507       17.659       11.409      462.569      311.853      130.167        0.323        0.045       74.317       10.066        0.018      336.212        7.363      863.894
01/08/2015  18:00:00      -78.677      -13.156      -14.848       13.562       11.358       11.594      183.937      129.005      134.419        0.352        0.022       79.770        6.913        0.008      336.074        7.132      863.899
01/08/2015  18:01:00     -104.164      -13.231      -15.820       20.271       14.990       14.134      410.905      224.711      199.778        0.606        0.042      105.001        8.744        0.007      335.967        6.953      863.912
01/08/2015  18:02:00     -102.094       -3.765      -17.049       23.665       18.196       11.888      560.011      331.077      141.318        0.588        0.052      102.163        8.590        0.007      335.888        6.821      863.919
01/08/2015  18:03:00     -104.671        1.000      -14.135       33.480       22.161       16.216     1120.885      491.129      262.958        0.652        0.094      104.676       13.059        0.016      335.918        6.871      863.919
01/08/2015  18:04:00      -85.739        3.243      -13.839       26.484       33.564       16.045      701.420     1126.529      257.447        0.482        0.104       85.800        9.740        0.013      335.792        6.663      863.926
01/08/2015  18:05:00      -73.784      -12.954      -15.559       22.026       19.610       14.032      485.166      384.559      196.907        0.346        0.053       74.912       10.906        0.021      335.719        6.541      863.918
01/08/2015  18:06:00     -121.876      -21.612      -24.775       11.997       20.560       10.826      143.931      422.726      117.201        0.831        0.034      123.778        1.615        0.000      335.777        6.639      863.918
01/08/2015  18:07:00     -122.885      -37.845      -15.992       18.467       17.978       14.276      341.019      323.194      203.817        0.883        0.043      128.581       12.664        0.010      335.876        6.801      863.907
01/08/2015  18:08:00     -145.042      -36.898      -22.742       12.568       12.585       10.962      157.961      158.394      120.168        1.168        0.022      149.662        6.150        0.002      336.028        7.056      863.909
01/08/2015  18:09:00     -122.179      -38.425      -19.440       19.074       18.169       11.893      363.821      330.109      141.437        0.881        0.042      128.079        9.159        0.005      336.096        7.169      863.905
01/08/2015  18:10:00     -123.293      -17.883      -22.737        9.765       12.356        8.013       95.347      152.669       64.208        0.818        0.016      124.583        4.927        0.002      336.225        7.383      863.921
01/08/2015  18:11:00     -116.453      -29.006      -18.126       10.560        8.097        8.060      111.519       65.557       64.956        0.749        0.012      120.011        1.605        0.000      336.461        7.778      863.930
01/08/2015  18:12:00     -111.990      -35.562      -16.666       10.854        8.009        8.539      117.808       64.137       72.915        0.717        0.013      117.500        3.719        0.001      336.488        7.823      863.938
01/08/2015  18:13:00     -108.211      -26.585      -15.339        8.806       10.436        6.260       77.545      108.920       39.182        0.644        0.011      111.429        2.611        0.001      336.292        7.496      863.943
01/08/2015  18:14:00     -121.299      -20.428      -16.091       18.271       16.662        9.623      333.833      277.633       92.609        0.805        0.035      123.008        9.467        0.006      336.130        7.224      863.948
01/08/2015  18:15:00     -130.538       -4.889      -16.226       20.024       12.474       12.061      400.945      155.610      145.471        0.901        0.035      130.630        8.436        0.004      335.949        6.924      863.966
01/08/2015  18:16:00     -106.282        5.060      -10.098       43.965       25.870       20.219     1932.908      669.266      408.813        0.722        0.151      106.403       17.194        0.026      335.625        6.383      863.969
01/08/2015  18:17:00      -77.125       12.188       -2.486       58.633       49.003       29.592     3437.853     2401.266      875.661        0.641        0.336       78.082       20.021        0.066      335.615        6.366      863.981
01/08/2015  18:18:00     -113.374       -0.247       -8.820       38.988       38.408       22.261     1520.062     1475.183      495.554        0.821        0.175      113.375       17.017        0.023      335.633        6.397      863.984
01/08/2015  18:19:00     -101.142      -42.602       -7.975       32.542       39.037       23.489     1058.952     1523.909      551.736        0.762        0.157      109.748       15.612        0.020      335.478        6.139      863.999
01/08/2015  18:20:00      -88.184       -3.847       -0.154       55.672       35.417       22.055     3099.414     1254.367      486.425        0.631        0.242       88.268       20.356        0.053      335.498        6.172      864.005
01/08/2015  18:21:00      -81.234      -28.376      -10.731       27.389       33.683       17.707      750.177     1134.561      313.548        0.486        0.110       86.047       10.712        0.015      335.430        6.058      864.012
01/08/2015  18:22:00      -64.155      -15.565      -11.482       31.807       27.631       16.579     1011.710      763.486      274.872        0.327        0.103       66.016        4.793        0.005      335.473        6.129      864.019
01/08/2015  18:23:00      -51.316       -2.493       -9.824       31.325       29.736       24.991      981.252      884.227      624.549        0.261        0.125       51.376       19.810        0.149      335.502        6.178      864.019
01/08/2015  18:24:00      -71.267       -5.008      -18.440       11.464       10.989       11.174      131.415      120.748      124.850        0.291        0.019       71.442        8.245        0.013      335.569        6.290      864.021
01/08/2015  18:25:00      -65.771      -24.761      -15.467       15.403       11.017       11.075      237.242      121.369      122.647        0.283        0.024       70.278        8.815        0.016      335.953        6.930      863.999
01/08/2015  18:26:00      -66.237      -29.490      -18.155       20.490       12.358       12.243      419.830      152.717      149.892        0.315        0.036       72.505        7.236        0.010      335.820        6.709      863.987
01/08/2015  18:27:00      -79.115      -35.141      -16.814       14.858       14.552       11.801      220.747      211.757      139.267        0.417        0.029       86.568        5.869        0.005      335.673        6.463      863.956
01/08/2015  18:28:00      -82.440      -40.764      -11.010       18.914       16.200       11.024      357.725      262.425      121.521        0.466        0.037       91.968        7.059        0.006      335.637        6.403      863.956
01/08/2015  18:29:00     -121.511      -17.427      -19.731       17.915       11.030       10.642      320.959      121.660      113.247        0.801        0.028      122.754        6.764        0.003      335.671        6.462      863.935
01/08/2015  18:30:00     -122.807      -19.195      -19.609       17.249       18.667       13.494      297.535      348.472      182.092        0.833        0.041      124.298       11.142        0.008      335.623        6.382      863.941
01/08/2015  18:31:00     -119.833      -15.469      -18.465       26.964       22.330       18.228      727.057      498.628      332.247        0.825        0.078      120.827       18.266        0.023      335.632        6.395      863.945
01/08/2015  18:32:00     -139.253      -21.888      -23.561       26.229       15.143       14.069      687.972      229.319      197.940        1.077        0.056      140.963       12.432        0.008      335.609        6.357      863.948
01/08/2015  18:33:00     -104.440      -29.697      -12.946       16.723       23.736       16.376      279.645      563.391      268.163        0.653        0.056      108.580       11.568        0.011      335.591        6.328      863.975
01/08/2015  18:34:00     -115.892      -11.482      -13.704       42.627       29.634       19.284     1817.098      878.203      371.872        0.841        0.153      116.460       17.006        0.021      335.533        6.230      863.989
01/08/2015  18:35:00     -105.601       -0.883      -14.427       28.667       25.548       19.652      821.814      652.712      386.186        0.661        0.093      105.605       12.650        0.014      335.386        5.984      864.010
01/08/2015  18:36:00     -115.002       -9.991      -19.731       24.193       25.152       20.367      585.309      632.616      414.819        0.767        0.082      115.435       10.724        0.009      335.300        5.843      864.021
01/08/2015  18:37:00     -133.941      -20.306      -15.002       35.362       28.986       18.316     1250.489      840.213      335.478        1.050        0.121      135.471       14.911        0.012      335.264        5.781      864.036
01/08/2015  18:38:00     -120.358       -5.519      -10.080       54.741       40.286       28.322     2996.570     1623.001      802.138        1.002        0.271      120.485       28.374        0.055      335.278        5.805      864.044
01/08/2015  18:39:00     -105.917        7.570      -14.065       58.561       37.763       23.128     3429.369     1426.061      534.926        0.843        0.270      106.188       23.576        0.049      335.312        5.860      864.037
01/08/2015  18:40:00      -84.211      -13.300       -5.847       31.352       27.510       20.743      982.957      756.780      430.267        0.474        0.109       85.255       13.373        0.025      335.270        5.792      864.047
01/08/2015  18:41:00     -109.164      -19.571      -12.903       32.896       25.142       17.365     1082.144      632.096      301.554        0.724        0.101      110.905       12.607        0.013      335.331        5.893      864.038
01/08/2015  18:42:00     -123.154      -16.610      -22.342       20.913       16.928       13.620      437.364      286.544      185.510        0.843        0.045      124.269        6.410        0.003      335.483        6.147      864.034
01/08/2015  18:43:00     -145.107      -15.161      -23.894       14.421       11.608       11.533      207.979      134.748      133.012        1.117        0.024      145.897        5.452        0.001      335.638        6.405      864.038
01/08/2015  18:44:00     -143.556      -25.568      -19.697       17.009       17.916       13.004      289.318      320.996      169.095        1.121        0.039      145.815        6.663        0.002      335.473        6.129      864.027
01/08/2015  18:45:00     -116.144      -21.309      -13.156       27.922       18.652       18.890      779.613      347.915      356.847        0.780        0.074      118.083       16.117        0.019      335.401        6.010      864.030
01/08/2015  18:46:00     -133.311       -9.328      -25.827       27.414       20.419       17.534      751.540      416.935      307.449        1.000        0.074      133.637       13.246        0.010      335.386        5.985      864.031
01/08/2015  18:47:00     -123.695      -35.549      -13.729       27.466       26.751       20.367      754.382      715.593      414.820        0.932        0.094      128.702       17.999        0.020      335.365        5.949      864.042
01/08/2015  18:48:00     -127.419      -28.177      -16.739       32.418       31.924       23.487     1050.938     1019.132      551.626        0.997        0.131      130.497       16.275        0.016      335.334        5.897      864.053
01/08/2015  18:49:00     -131.697      -29.872      -21.787       28.851       28.081       19.522      832.366      788.547      381.114        1.036        0.100      135.042       15.653        0.013      335.350        5.925      864.058
01/08/2015  18:50:00     -136.925      -20.289      -22.235       33.424       25.564       17.131     1117.161      653.541      293.479        1.086        0.103      138.420       11.689        0.007      335.343        5.913      864.065
01/08/2015  18:51:00     -163.837      -31.016      -20.565       27.859       23.475       20.577      776.137      551.054      423.404        1.499        0.088      166.747       14.394        0.007      335.315        5.866      864.068
01/08/2015  18:52:00     -113.757      -39.074      -21.446       26.349       24.334       13.129      694.278      592.131      172.379        0.819        0.073      120.281       11.593        0.009      335.307        5.852      864.081
01/08/2015  18:53:00     -112.050      -49.362      -18.008       39.594       34.047       16.617     1567.698     1159.228      276.109        0.916        0.150      122.441       13.506        0.012      335.310        5.858      864.089
01/08/2015  18:54:00      -97.622      -55.490      -12.924       24.355       30.498       17.928      593.186      930.115      321.400        0.731        0.092      112.291       14.088        0.016      335.269        5.789      864.082
01/08/2015  18:55:00      -99.597      -57.132       -7.479       46.438       44.617       28.440     2156.454     1990.679      808.850        0.910        0.248      114.820       27.799        0.059      335.232        5.729      864.085
01/08/2015  18:56:00     -109.009      -36.332      -18.186       32.360       31.170       21.076     1047.153      971.566      444.185        0.800        0.123      114.904        8.987        0.006      335.249        5.756      864.077
01/08/2015  18:57:00     -128.046      -71.932      -21.016       36.389       36.449       22.124     1324.146     1328.559      489.491        1.258        0.157      146.867       13.477        0.008      335.226        5.718      864.068
01/08/2015  18:58:00      -91.602      -33.933      -15.810       43.984       25.612       27.301     1934.594      655.981      745.333        0.656        0.167       97.686       14.574        0.022      335.145        5.584      864.065
01/08/2015  18:59:00      -65.085      -65.014      -11.912       33.277       34.386       18.814     1107.336     1182.396      353.954        0.562        0.132       91.994       12.497        0.018      335.155        5.602      864.052
01/08/2015  19:00:00      -77.083      -54.791      -14.162       37.018       21.823       20.542     1370.325      476.228      421.957        0.571        0.113       94.572       13.663        0.021      335.138        5.575      864.046
01/08/2015  19:01:00     -121.513      -28.730      -19.479       28.457       27.488       17.415      809.776      755.615      303.270        0.892        0.093      124.863       12.477        0.010      335.223        5.714      864.038
01/08/2015  19:02:00      -93.441      -33.455      -16.019       27.729       21.290       15.496      768.905      453.264      240.112        0.578        0.073       99.250        9.845        0.010      335.204        5.682      864.024
01/08/2015  19:03:00     -123.640      -19.961      -18.996       29.881       18.311       16.090      892.899      335.304      258.882        0.877        0.074      125.241       10.697        0.007      335.175        5.632      864.021
01/08/2015  19:04:00      -96.805      -31.090      -19.483       21.502       22.812       17.079      462.355      520.406      291.685        0.600        0.064      101.675       10.656        0.011      335.171        5.627      864.012
01/08/2015  19:05:00      -84.576      -39.566      -23.284       31.883       33.658       25.893     1016.506     1132.855      670.436        0.604        0.141       93.373       18.251        0.038      335.162        5.612      864.007
01/08/2015  19:06:00      -80.498      -54.000      -16.949       36.222       32.759       24.977     1312.069     1073.176      623.856        0.635        0.150       96.932       19.820        0.042      335.080        5.478      864.009
01/08/2015  19:07:00     -115.587      -61.945       -9.052       23.424       19.103       19.624      548.674      364.933      385.096        0.929        0.065      131.139       14.973        0.013      335.074        5.468      864.008
01/08/2015  19:08:00      -89.322      -32.985       -8.313       39.409       24.727       16.949     1553.106      611.422      287.261        0.579        0.123       95.218       15.912        0.028      335.034        5.401      864.003
01/08/2015  19:09:00      -94.357      -20.856      -20.445       24.688       28.256       18.922      609.516      798.406      358.040        0.576        0.088       96.635       15.224        0.025      334.983        5.317      864.017
01/08/2015  19:10:00     -104.898      -27.868      -16.392       18.994       23.464       16.809      360.779      550.561      282.543        0.662        0.060      108.537        8.824        0.007      334.989        5.327      864.029
01/08/2015  19:11:00     -118.061      -39.297      -10.000       25.032       32.219       21.473      626.624     1038.091      461.092        0.885        0.106      124.430       18.455        0.022      335.105        5.518      864.033
01/08/2015  19:12:00     -133.249      -38.304       -3.699       36.215       36.796       20.127     1311.553     1353.939      405.101        1.115        0.154      138.645       19.527        0.020      335.122        5.545      864.060
01/08/2015  19:13:00     -107.104      -34.753       -0.804       30.846       38.117       18.143      951.497     1452.871      329.169        0.771        0.137      112.601       15.496        0.019      335.141        5.579      864.071
01/08/2015  19:14:00      -78.073      -29.173        0.299       42.606       37.163       19.949     1815.263     1381.096      397.953        0.527        0.180       83.346       18.633        0.050      335.080        5.478      864.085
01/08/2015  19:15:00     -111.776      -28.358       -3.515       36.050       26.768       18.495     1299.568      716.535      342.057        0.783        0.118      115.317       16.016        0.019      335.160        5.609      864.101
01/08/2015  19:16:00     -101.754      -24.699       -9.434       36.552       37.052       21.284     1336.064     1372.827      452.998        0.711        0.158      104.709       18.551        0.031      335.131        5.562      864.109
01/08/2015  19:17:00      -75.145      -37.091        8.491       45.445       42.734       22.463     2065.265     1826.154      504.579        0.574        0.220       83.800       22.736        0.074      335.074        5.467      864.110
01/08/2015  19:18:00      -86.986      -39.239       -6.189       35.872       37.938       18.378     1286.797     1439.294      337.755        0.610        0.153       95.427        7.914        0.007      335.086        5.487      864.111
01/08/2015  19:19:00     -101.622      -34.656       -2.733       31.338       30.087       19.492      982.056      905.234      379.921        0.690        0.113      107.369       17.818        0.028      335.030        5.395      864.121
01/08/2015  19:20:00      -81.934      -38.161       -4.797       33.291       26.926       16.955     1108.265      725.023      287.483        0.516        0.106       90.385       12.189        0.018      335.052        5.432      864.114
01/08/2015  19:21:00     -109.972      -35.328      -16.355       19.559       26.173       12.716      382.572      685.006      161.702        0.742        0.061      115.507        7.376        0.004      335.028        5.388      864.103
01/08/2015  19:22:00      -99.520      -57.711       -7.218       28.185       24.196       13.694      794.410      585.440      187.539        0.743        0.078      115.043       12.627        0.012      335.025        5.386      864.099
01/08/2015  19:23:00      -78.440      -28.201       -8.019       47.039       17.234       10.770     2212.682      297.004      115.993        0.482        0.131       83.355       12.432        0.022      335.038        5.409      864.100
01/08/2015  19:24:00      -65.110      -41.736        0.289       37.242       32.013       21.418     1386.996     1024.822      458.714        0.443        0.144       77.339       19.209        0.062      335.004        5.350      864.094
01/08/2015  19:25:00     -155.803      -50.739      -15.777       19.498       21.361       12.845      380.183      456.296      164.999        1.405        0.050      163.856       10.615        0.004      335.089        5.493      864.086
01/08/2015  19:26:00     -146.008      -58.023      -11.230       12.575       15.753       13.399      158.127      248.172      179.539        1.270        0.029      157.114        7.673        0.002      335.073        5.466      864.076
01/08/2015  19:27:00     -141.716      -52.458       -8.682       15.840       15.256       14.783      250.893      232.739      218.551        1.181        0.035      151.113       10.929        0.005      335.049        5.427      864.070
01/08/2015  19:28:00     -139.030      -76.911       -4.233       26.040       23.136       19.063      678.095      535.279      363.407        1.342        0.079      158.885       15.098        0.009      335.014        5.368      864.068
01/08/2015  19:29:00     -113.317      -59.353       -6.816       33.658       30.397       19.554     1132.870      924.003      382.366        0.942        0.122      127.920       11.327        0.008      335.004        5.350      864.052
01/08/2015  19:30:00      -62.991      -54.749        4.168       45.066       38.718       22.487     2030.924     1499.089      505.650        0.551        0.202       83.459       19.995        0.057      334.972        5.297      864.042
01/08/2015  19:31:00     -105.152      -47.468       -2.555       42.758       30.199       21.100     1828.248      911.959      445.212        0.825        0.159      115.370       18.907        0.027      335.000        5.345      864.046
01/08/2015  19:32:00      -79.573      -44.845       -2.584       41.587       32.533       19.284     1729.445     1058.428      371.854        0.575        0.158       91.340       18.496        0.041      334.986        5.321      864.068
01/08/2015  19:33:00     -114.117      -57.216       -4.484       31.942       24.390       14.289     1020.320      594.848      204.180        0.907        0.091      127.657       16.104        0.016      334.968        5.291      864.086
01/08/2015  19:34:00     -104.427      -65.237        3.432       35.580       29.718       20.420     1265.951      883.147      416.961        0.887        0.128      123.130       17.961        0.021      334.975        5.304      864.090
01/08/2015  19:35:00     -100.450      -79.020        4.073       44.278       33.896       22.387     1960.510     1148.910      501.193        0.998        0.181      127.806       18.108        0.020      335.067        5.456      864.088
01/08/2015  19:36:00     -138.795      -79.395       -6.539       25.197       26.521       19.792      634.895      703.380      391.739        1.367        0.087      159.899       12.338        0.006      335.088        5.491      864.088
01/08/2015  19:37:00     -116.772      -68.094       -4.208       36.688       26.995       21.232     1345.976      728.716      450.810        1.041        0.126      135.176       20.701        0.023      335.070        5.461      864.086
01/08/2015  19:38:00     -144.630      -64.780       -3.112       37.265       25.905       25.070     1388.691      671.051      628.486        1.391        0.134      158.475       22.545        0.020      335.082        5.482      864.080
01/08/2015  19:39:00     -139.706      -68.113       -3.168       31.789       29.284       20.513     1010.554      857.547      420.785        1.323        0.114      155.425       18.264        0.014      335.068        5.457      864.073
01/08/2015  19:40:00     -147.128      -57.545       -5.095       27.431       33.818       17.747      752.457     1143.681      314.953        1.360        0.111      157.982       11.301        0.005      335.063        5.451      864.078
01/08/2015  19:41:00     -157.565      -56.197       -3.083       26.078       29.196       22.019      680.083      852.410      484.847        1.501        0.101      167.287       14.804        0.008      334.991        5.329      864.090
01/08/2015  19:42:00     -129.268      -35.181       -5.501       30.509       36.445       22.214      930.769     1328.204      493.449        1.036        0.138      133.970       20.254        0.023      334.985        5.320      864.092
01/08/2015  19:43:00     -133.151      -59.186       -3.837       35.922       26.500       19.341     1290.376      702.269      374.057        1.181        0.118      145.713       15.137        0.011      334.931        5.230      864.090
01/08/2015  19:44:00     -109.335      -69.514        0.220       38.858       30.315       18.516     1509.927      918.976      342.829        0.978        0.139      129.562       15.012        0.013      334.921        5.212      864.095
01/08/2015  19:45:00     -128.504      -54.679       -5.985       21.840       20.108       15.259      476.983      404.341      232.836        1.033        0.056      139.654       10.580        0.006      334.906        5.187      864.105
01/08/2015  19:46:00     -141.693      -60.487      -12.258       32.209       25.167       16.574     1037.414      633.398      274.684        1.292        0.097      154.064       16.080        0.011      334.852        5.098      864.109
01/08/2015  19:47:00     -143.770      -35.078      -11.921       24.663       22.733       16.677      608.245      516.770      278.134        1.172        0.070      147.988       11.852        0.006      334.812        5.032      864.113
01/08/2015  19:48:00     -132.808      -58.458      -15.417       34.097       21.200       17.251     1162.603      449.455      297.603        1.160        0.095      145.105       14.472        0.010      334.739        4.911      864.115
01/08/2015  19:49:00     -148.988      -39.398       -9.568       29.253       25.940       21.063      855.746      672.901      443.644        1.291        0.099      154.109       16.361        0.011      334.717        4.875      864.112
01/08/2015  19:50:00     -141.002      -40.204      -13.318       27.508       21.284       13.879      756.667      453.024      192.637        1.154        0.070      146.621       14.694        0.010      334.723        4.884      864.108
01/08/2015  19:51:00     -117.000      -42.794      -12.957       19.607       19.282       12.800      384.430      371.808      163.848        0.830        0.046      124.581        6.304        0.003      334.701        4.847      864.105
01/08/2015  19:52:00     -113.429      -41.151      -14.765       20.373       20.979       15.142      415.060      440.124      229.288        0.793        0.054      120.663       12.411        0.011      334.668        4.792      864.098
01/08/2015  19:53:00      -96.648      -28.276      -15.405       18.152       20.065       14.358      329.487      402.595      206.140        0.566        0.047      100.699       11.495        0.013      334.649        4.762      864.090
01/08/2015  19:54:00      -94.985      -21.363      -13.955       17.895       17.076       14.494      320.230      291.603      210.069        0.525        0.041       97.357        5.547        0.003      334.561        4.614      864.087
01/08/2015  19:55:00      -87.699        0.841      -14.824       15.311       14.498       12.877      234.433      210.204      165.816        0.426        0.031       87.703        7.150        0.007      334.557        4.607      864.088
01/08/2015  19:56:00      -96.757      -24.216      -17.561       20.665       20.308       12.659      427.024      412.400      160.263        0.563        0.050       99.742        7.741        0.006      334.621        4.714      864.095
01/08/2015  19:57:00      -96.106      -17.760      -20.814       15.759       16.272       11.622      248.360      264.786      135.076        0.532        0.032       97.733        9.766        0.010      334.730        4.895      864.105
01/08/2015  19:58:00      -88.120      -21.736      -14.865       17.443       15.509       11.672      304.273      240.539      136.247        0.457        0.034       90.761        5.370        0.004      334.599        4.677      864.106
01/08/2015  19:59:00      -93.200      -14.867      -20.671       14.381       16.691       10.640      206.814      278.589      113.220        0.497        0.030       94.379        9.340        0.010      334.614        4.702      864.105
01/08/2015  20:00:00      -87.441      -37.943      -20.171       20.528       20.968       11.084      421.405      439.656      122.865        0.524        0.049       95.318        6.392        0.004      334.574        4.636      864.096
01/08/2015  20:01:00     -105.873      -42.393      -20.880       17.053       15.679       10.572      290.807      245.834      111.772        0.705        0.032      114.045        5.782        0.003      334.463        4.452      864.097
01/08/2015  20:02:00     -115.921      -35.241      -18.006       27.736       24.644       16.148      769.287      607.349      260.748        0.832        0.082      121.160       11.032        0.008      334.356        4.275      864.102
01/08/2015  20:03:00     -110.489      -36.358      -20.933       17.996       20.856       13.172      323.873      434.981      173.491        0.745        0.047      116.317        3.376        0.001      334.402        4.352      864.092
01/08/2015  20:04:00      -72.871      -41.947      -14.557       24.185       31.094       16.887      584.893      966.822      285.187        0.456        0.092       84.082        8.818        0.011      334.388        4.328      864.078
01/08/2015  20:05:00     -100.826      -22.336      -18.677       22.799       17.471       14.000      519.795      305.231      195.992        0.602        0.051      103.270       11.553        0.013      334.449        4.429      864.066
01/08/2015  20:06:00      -96.557      -15.186      -14.794       20.054       13.812       15.963      402.177      190.765      254.816        0.531        0.042       97.744       11.390        0.014      334.385        4.323      864.070
01/08/2015  20:07:00      -95.317      -20.390      -12.975       17.290       16.627       12.585      298.961      276.473      158.388        0.520        0.037       97.473       10.425        0.011      334.387        4.327      864.072
01/08/2015  20:08:00     -112.388      -22.770      -14.801       20.665       16.045       15.117      427.061      257.434      228.528        0.714        0.046      114.672       12.922        0.013      334.397        4.343      864.070
01/08/2015  20:09:00     -125.433       -7.962      -13.844       23.261       20.233       15.504      541.082      409.362      240.387        0.859        0.060      125.685        6.912        0.003      334.370        4.298      864.070
01/08/2015  20:10:00     -129.050       -3.626      -25.387       14.116       17.536       14.415      199.250      307.518      207.789        0.901        0.036      129.101        1.660        0.000      334.398        4.345      864.074
01/08/2015  20:11:00     -126.052        1.820      -20.581       20.616       18.759       13.501      425.030      351.892      182.270        0.864        0.048      126.065       10.081        0.006      334.402        4.351      864.075
01/08/2015  20:12:00     -110.617      -13.435      -19.926       21.207       15.030       12.697      449.757      225.897      161.217        0.683        0.042      111.430       10.245        0.008      334.350        4.265      864.074
01/08/2015  20:13:00     -107.346      -13.061      -18.515       17.140       15.343       11.501      293.778      235.409      132.277        0.635        0.033      108.138        6.553        0.004      334.340        4.249      864.078
01/08/2015  20:14:00      -94.250      -32.484      -16.201       20.004       22.538       15.019      400.160      507.970      225.583        0.567        0.057       99.690        9.698        0.009      334.315        4.208      864.086
01/08/2015  20:15:00      -85.825      -50.514       -4.056       43.161       31.446       20.595     1862.894      988.875      424.137        0.660        0.164       99.588       11.420        0.013      334.228        4.062      864.090
01/08/2015  20:16:00     -126.572      -42.041      -13.433       30.188       34.324       21.573      911.314     1178.124      465.388        1.026        0.128      133.371       16.753        0.016      334.221        4.052      864.090
01/08/2015  20:17:00     -162.382      -21.048      -15.780       34.799       45.581       23.048     1210.959     2077.599      531.214        1.544        0.191      163.740       16.961        0.011      334.194        4.006      864.090
01/08/2015  20:18:00     -111.098      -30.791       -0.592       36.754       41.964       21.477     1350.843     1760.940      461.243        0.843        0.179      115.286       18.928        0.027      334.180        3.983      864.085
01/08/2015  20:19:00     -119.446      -23.057       -7.378       33.507       39.352       22.189     1122.721     1548.546      492.344        0.901        0.158      121.651       16.613        0.019      334.184        3.989      864.081
01/08/2015  20:20:00      -58.351      -41.153       -1.033       32.255       22.218       21.516     1040.411      493.639      462.927        0.355        0.100       71.403        9.836        0.019      334.196        4.009      864.068
01/08/2015  20:21:00      -69.640      -21.150       -9.865       21.537       25.375       16.121      463.827      643.909      259.891        0.338        0.068       72.781       10.975        0.023      334.287        4.160      864.068
01/08/2015  20:22:00      -75.586      -52.316       -9.595       18.493       18.516       16.653      342.009      342.843      277.318        0.475        0.048       91.926       11.281        0.015      334.291        4.167      864.059
01/08/2015  20:23:00      -90.532      -26.125      -20.356       20.319       27.943       17.096      412.874      780.794      292.283        0.539        0.074       94.226       16.751        0.032      334.302        4.185      864.045
01/08/2015  20:24:00      -78.825      -31.132      -17.091       14.650       14.857       12.426      214.610      220.744      154.406        0.403        0.029       84.751        9.005        0.011      334.363        4.287      864.034
01/08/2015  20:25:00     -114.743      -23.118      -19.586       17.443       13.190       12.543      304.246      173.977      157.324        0.736        0.032      117.049        7.453        0.004      334.347        4.262      864.030
01/08/2015  20:26:00     -109.976      -21.717      -20.242       12.500       16.324        8.953      156.256      266.489       80.151        0.674        0.025      112.099        7.252        0.004      334.273        4.138      864.016
01/08/2015  20:27:00     -109.412      -28.298      -15.110       12.485       19.447       11.319      155.863      378.183      128.116        0.683        0.033      113.012        6.870        0.004      334.291        4.167      864.006
01/08/2015  20:28:00     -108.898      -27.500      -15.493       19.810       15.003       14.875      392.434      225.084      221.255        0.685        0.042      112.317       13.285        0.014      334.311        4.201      864.004
01/08/2015  20:29:00     -106.928      -25.203      -15.123       14.214       13.667       12.598      202.037      186.797      158.711        0.642        0.027      109.859        6.258        0.003      334.334        4.239      864.010
01/08/2015  20:30:00     -116.049      -21.802      -19.258       14.781       13.257       10.909      218.479      175.738      119.013        0.741        0.026      118.079        4.435        0.001      334.314        4.206      864.004
01/08/2015  20:31:00     -126.081      -21.793      -21.659       15.476       13.254       13.562      239.508      175.678      183.926        0.872        0.030      127.951        9.691        0.006      334.324        4.222      864.013
01/08/2015  20:32:00     -120.937      -30.037      -17.516       17.526       16.899       11.461      307.174      285.588      131.349        0.828        0.036      124.611       10.074        0.007      334.297        4.178      864.034
01/08/2015  20:33:00     -120.741      -29.319      -16.203       20.065       17.391       16.455      402.601      302.436      270.764        0.834        0.049      124.249       11.414        0.008      334.275        4.140      864.042
01/08/2015  20:34:00     -111.780      -31.716      -14.788       14.246       17.459       13.397      202.957      304.800      179.473        0.720        0.034      116.193        6.882        0.004      334.297        4.178      864.044
01/08/2015  20:35:00     -106.535      -16.587      -15.430       26.980       25.182       18.688      727.942      634.153      349.238        0.679        0.086      107.819       13.169        0.015      334.265        4.125      864.035
01/08/2015  20:36:00     -115.772      -21.003      -19.085       24.954       34.159       15.692      622.707     1166.852      246.249        0.812        0.102      117.662       10.411        0.008      334.135        3.908      864.032
01/08/2015  20:37:00     -112.595      -32.630       -4.741       38.098       27.029       16.964     1451.440      730.581      287.768        0.812        0.123      117.227       16.014        0.019      334.140        3.917      864.021
01/08/2015  20:38:00      -99.404      -18.089       -8.913       34.333       29.759       23.974     1178.721      885.606      574.762        0.646        0.132      101.036       20.271        0.040      334.115        3.875      864.006
01/08/2015  20:39:00     -106.561      -27.883       -9.779       37.578       25.507       21.278     1412.132      650.628      452.767        0.737        0.126      110.149       22.044        0.040      334.126        3.891      863.988
01/08/2015  20:40:00     -106.396      -15.767      -13.075       26.387       22.015       17.571      696.294      484.677      308.746        0.661        0.074      107.558       15.266        0.020      334.143        3.921      863.979
01/08/2015  20:41:00      -87.575      -16.624      -10.566       28.821       26.156       16.503      830.631      684.160      272.356        0.492        0.089       89.139       15.226        0.029      334.111        3.869      863.964
01/08/2015  20:42:00     -111.183      -13.782      -14.191       24.013       19.918       17.424      576.625      396.720      303.583        0.701        0.064      112.034       13.211        0.014      334.134        3.907      863.952
01/08/2015  20:43:00      -95.903      -11.401      -10.041       28.811       17.200       16.758      830.102      295.848      280.825        0.542        0.070       96.578       13.321        0.019      334.167        3.961      863.950
01/08/2015  20:44:00      -83.458      -26.728      -15.340       33.104       20.746       16.500     1095.853      430.380      272.241        0.486        0.090       87.633       11.736        0.018      334.082        3.819      863.958
01/08/2015  20:45:00      -94.795      -20.623      -14.651       26.245       18.962       16.450      688.804      359.554      270.608        0.547        0.066       97.013       13.606        0.020      334.077        3.812      863.950
01/08/2015  20:46:00      -80.802      -33.561       -3.665       37.383       29.701       21.055     1397.465      882.127      443.323        0.520        0.136       87.494       17.473        0.040      334.097        3.845      863.951
01/08/2015  20:47:00      -87.194      -39.092      -12.588       28.152       16.964       21.198      792.533      287.764      449.372        0.541        0.076       95.556       19.845        0.043      334.126        3.895      863.962
01/08/2015  20:48:00      -77.084      -48.772      -13.067       24.793       25.554       19.733      614.671      653.005      389.387        0.507        0.083       91.218       10.946        0.014      334.160        3.951      863.977
01/08/2015  20:49:00      -94.937      -27.434      -25.764       16.112       20.332       15.144      259.604      413.379      229.329        0.567        0.045       98.821        9.775        0.010      334.145        3.924      863.989
01/08/2015  20:50:00     -111.023      -29.740      -15.630       35.523       20.652       17.127     1261.856      426.512      293.337        0.772        0.099      114.937       15.410        0.018      334.085        3.825      863.997
01/08/2015  20:51:00     -103.347      -28.048      -18.938       17.669       21.076       14.284      312.187      444.212      204.037        0.639        0.048      107.085        8.978        0.007      334.094        3.840      864.015
01/08/2015  20:52:00     -115.626      -25.565      -14.274       29.145       19.984       18.539      849.424      399.353      343.709        0.791        0.080      118.419       18.209        0.024      334.083        3.820      864.036
01/08/2015  20:53:00      -99.807      -20.387       -5.658       40.110       33.282       22.953     1608.829     1107.720      526.822        0.683        0.162      101.868       23.281        0.052      334.042        3.754      864.049
01/08/2015  20:54:00     -110.046      -35.393       -1.622       30.955       23.903       14.804      958.208      571.367      219.145        0.756        0.087      115.598       11.551        0.010      334.093        3.839      864.052
01/08/2015  20:55:00     -128.585      -35.827       -4.692       31.914       21.420       13.976     1018.500      458.830      195.331        0.976        0.084      133.483        8.841        0.004      334.164        3.958      864.067
01/08/2015  20:56:00      -65.514      -34.122       -0.592       29.249       20.156       12.993      855.512      406.245      168.828        0.344        0.072       73.867       14.219        0.037      334.192        4.002      864.069
01/08/2015  20:57:00      -67.032      -35.754       -6.464       12.626       15.230        9.118      159.417      231.957       83.134        0.314        0.024       75.972        5.945        0.006      334.206        4.026      864.061
01/08/2015  20:58:00      -58.162      -30.561       -4.375       22.351       19.376       14.769      499.557      375.431      218.130        0.271        0.055       65.702       15.719        0.057      334.223        4.054      864.045
01/08/2015  20:59:00      -92.842      -28.181      -11.349       21.162        9.229       15.103      447.812       85.176      228.095        0.515        0.038       97.025       15.619        0.026      334.296        4.175      864.022
01/08/2015  21:00:00      -85.736      -37.968       -9.057       13.067       11.241        9.049      170.750      126.366       81.887        0.463        0.019       93.767        7.061        0.006      334.262        4.120      864.013
01/08/2015  21:01:00      -91.259      -47.927       -6.881       17.292       17.196       11.019      299.017      295.687      121.426        0.569        0.036      103.078        9.552        0.009      334.279        4.148      864.012
01/08/2015  21:02:00     -104.626      -57.669      -10.270       17.444       14.696        9.075      304.291      215.962       82.353        0.749        0.030      119.467        4.848        0.002      334.276        4.143      864.013
01/08/2015  21:03:00     -106.554      -48.566      -18.095       10.251       16.353       11.912      105.079      267.434      141.903        0.728        0.026      117.100        7.484        0.004      334.348        4.262      864.015
01/08/2015  21:04:00      -96.181      -36.932      -11.947       10.606       14.631        9.396      112.494      214.078       88.289        0.559        0.021      103.028        5.288        0.003      334.251        4.101      864.017
01/08/2015  21:05:00      -87.364      -36.440      -10.856       12.639       12.364        7.714      159.742      152.858       59.502        0.473        0.019       94.659        6.169        0.004      334.208        4.029      864.011
01/08/2015  21:06:00      -84.588      -35.193      -11.625        8.736       11.890       10.309       76.314      141.375      106.273        0.443        0.016       91.617        6.256        0.005      334.216        4.042      864.010
01/08/2015  21:07:00      -83.977      -36.912      -10.263        6.847       10.848        7.576       46.884      117.672       57.396        0.437        0.011       91.732        3.986        0.002      334.207        4.029      864.000
01/08/2015  21:08:00      -87.635      -26.695      -12.293       10.633        6.739        6.390      113.062       45.419       40.827        0.437        0.010       91.610        3.451        0.001      334.219        4.047      863.982
01/08/2015  21:09:00      -89.076      -21.713      -14.643        8.256       10.468        9.257       68.160      109.583       85.688        0.444        0.013       91.684        5.388        0.003      334.258        4.112      863.960
01/08/2015  21:10:00      -98.427      -20.691      -15.243        7.593        7.855        7.802       57.660       61.704       60.876        0.526        0.009      100.579        4.413        0.002      334.293        4.171      863.938
01/08/2015  21:11:00     -102.966      -34.574       -7.702        7.681       13.051        8.228       58.995      170.316       67.694        0.608        0.015      108.616        4.951        0.002      334.260        4.116      863.928
01/08/2015  21:12:00     -102.442      -33.399       -7.609        6.320        9.115        5.510       39.941       83.091       30.355        0.591        0.008      107.749        3.212        0.001      334.207        4.028      863.924
01/08/2015  21:13:00     -101.794      -33.012       -8.205        9.800       12.298        5.700       96.039      151.238       32.492        0.590        0.014      107.014        2.701        0.001      334.063        3.788      863.929
01/08/2015  21:14:00      -87.948      -14.419       -5.660       18.061       14.931       12.236      326.217      222.924      149.728        0.434        0.035       89.122       12.615        0.020      334.013        3.708      863.927
01/08/2015  21:15:00      -86.437      -19.157      -12.581        7.703        6.778        7.274       59.343       45.943       52.913        0.408        0.008       88.535        2.736        0.001      334.117        3.878      863.917
01/08/2015  21:16:00      -88.806      -16.559      -15.248        6.138        6.862        5.561       37.671       47.081       30.924        0.425        0.006       90.336        4.465        0.002      334.240        4.082      863.905
01/08/2015  21:17:00      -92.811      -12.969      -13.054       10.347        8.682        8.119      107.058       75.369       65.923        0.460        0.012       93.713        5.420        0.003      334.229        4.065      863.894
01/08/2015  21:18:00      -93.038      -22.850      -14.004        7.335        9.405        7.284       53.798       88.446       53.057        0.478        0.010       95.803        1.601        0.000      334.248        4.097      863.882
01/08/2015  21:19:00      -93.336      -34.294       -9.140        6.243        5.462        5.040       38.979       29.839       25.402        0.503        0.005       99.437        3.947        0.002      334.187        3.995      863.874
01/08/2015  21:20:00     -106.627      -31.740      -13.550       13.003        5.299        5.593      169.080       28.083       31.284        0.639        0.011      111.251        4.569        0.002      334.169        3.965      863.869
01/08/2015  21:21:00     -123.943      -24.789      -16.934        7.263       11.552        8.415       52.749      133.452       70.818        0.826        0.013      126.398        2.980        0.001      334.173        3.970      863.864
01/08/2015  21:22:00     -132.310      -26.566      -19.978        8.108       12.301        7.110       65.742      151.315       50.552        0.944        0.013      134.951        5.041        0.001      334.096        3.843      863.863
01/08/2015  21:23:00     -139.129      -51.635      -13.565       13.038       12.213       10.672      169.990      149.151      113.883        1.132        0.022      148.401        8.274        0.003      334.083        3.821      863.863
01/08/2015  21:24:00     -112.964      -38.914      -11.477       14.626       11.155        7.471      213.917      124.435       55.817        0.740        0.020      119.479        4.575        0.001      333.962        3.622      863.871
01/08/2015  21:25:00     -108.007      -53.984      -11.124       16.205       10.574        8.883      262.616      111.807       78.916        0.758        0.023      120.746        8.736        0.005      333.943        3.590      863.882
01/08/2015  21:26:00     -113.926      -54.333       -9.934       21.088       13.692       10.220      444.724      187.483      104.439        0.838        0.037      126.219        4.214        0.001      333.945        3.593      863.890
01/08/2015  21:27:00      -83.114      -48.703      -10.874       33.567       20.789       15.073     1126.715      432.178      227.197        0.559        0.089       96.332       11.990        0.015      333.953        3.607      863.902
01/08/2015  21:28:00     -104.664      -62.165       -3.588       31.201       19.127       19.700      973.525      365.826      388.105        0.828        0.086      121.733       19.316        0.025      333.917        3.546      863.924
01/08/2015  21:29:00     -109.267      -67.685       -1.807       28.317       25.859       17.536      801.844      668.668      307.497        0.915        0.089      128.532       15.987        0.015      333.855        3.443      863.935
01/08/2015  21:30:00      -90.153      -67.308        4.118       41.930       24.670       20.353     1758.163      608.613      414.226        0.773        0.139      112.508       21.452        0.036      333.829        3.400      863.941
01/08/2015  21:31:00      -81.459      -51.310        8.650       43.902       35.260       25.774     1927.429     1243.302      664.280        0.659        0.192       96.272       23.920        0.062      333.819        3.382      863.944
01/08/2015  21:32:00      -80.714      -53.481        1.726       34.790       28.473       21.200     1210.337      810.684      449.434        0.592        0.124       96.824       15.946        0.027      333.848        3.434      863.953
01/08/2015  21:33:00      -97.131      -69.364       -3.523       37.999       35.121       20.093     1443.962     1233.481      403.727        0.867        0.154      119.356       20.400        0.029      333.850        3.435      863.961
01/08/2015  21:34:00      -94.993      -51.932       -4.657       30.815       22.714       19.747      949.573      515.918      389.961        0.680        0.093      108.261       14.031        0.017      333.799        3.349      863.968
01/08/2015  21:35:00     -103.558      -63.730      -13.089       22.356       17.919       16.947      499.791      321.089      287.191        0.803        0.055      121.597        7.235        0.004      333.782        3.322      863.975
01/08/2015  21:36:00      -88.452      -50.674       -8.323       30.553       17.578       15.413      933.474      308.990      237.558        0.597        0.074      101.939       12.158        0.014      333.754        3.276      863.972
01/08/2015  21:37:00     -101.160      -41.641       -1.883       26.029       17.253       21.589      677.487      297.653      466.068        0.671        0.072      109.395       15.391        0.020      333.722        3.224      863.959
01/08/2015  21:38:00      -91.833      -44.736        2.751       28.903       16.073       14.933      835.371      258.330      223.008        0.588        0.066      102.150       13.387        0.017      333.791        3.338      863.943
01/08/2015  21:39:00      -90.684      -33.950        3.582       27.147       21.914       16.514      736.950      480.208      272.715        0.544        0.074       96.831       11.525        0.014      333.797        3.348      863.937
01/08/2015  21:40:00      -71.376      -41.485       -3.621       29.515       20.783       14.406      871.113      431.925      207.543        0.417        0.076       82.557        7.839        0.009      333.775        3.311      863.922
01/08/2015  21:41:00      -48.229      -42.618       -1.044       26.750       25.549       13.350      715.568      652.731      178.230        0.284        0.077       64.361       13.454        0.044      333.881        3.488      863.922
01/08/2015  21:42:00      -55.143      -41.768       -1.421       28.964       18.883       13.582      838.927      356.569      184.479        0.308        0.069       69.176        9.414        0.019      333.868        3.466      863.918
01/08/2015  21:43:00      -68.108      -51.281       -6.575       17.415       13.103       12.911      303.287      171.693      166.706        0.398        0.032       85.255        5.739        0.005      333.987        3.664      863.918
01/08/2015  21:44:00      -81.985      -49.200       -7.612       11.606       14.631       11.217      134.688      214.075      125.813        0.484        0.024       95.615        7.729        0.007      334.000        3.684      863.909
01/08/2015  21:45:00      -93.361      -34.990      -19.343       10.890        9.968        6.827      118.590       99.366       46.607        0.529        0.013       99.703        5.814        0.003      333.971        3.637      863.901
01/08/2015  21:46:00      -94.927      -28.105      -12.606       10.028        9.533        8.038      100.564       90.874       64.616        0.511        0.013       99.000        6.210        0.004      333.921        3.554      863.894
01/08/2015  21:47:00      -95.495      -43.780      -14.285        8.152       11.499        9.078       66.457      132.219       82.402        0.576        0.014      105.052        4.594        0.002      333.913        3.540      863.893
01/08/2015  21:48:00      -91.201      -50.318       -5.802       11.657       21.387        8.314      135.884      457.389       69.119        0.577        0.033      104.161        6.473        0.004      333.910        3.535      863.890
01/08/2015  21:49:00      -77.421      -51.009       -9.057       19.637       19.523       15.178      385.624      381.134      230.366        0.484        0.050       92.714       12.118        0.017      333.903        3.524      863.903
01/08/2015  21:50:00      -44.170      -26.487        7.314       30.259       24.886       18.061      915.610      619.296      326.216        0.228        0.093       51.503       18.168        0.124      333.833        3.408      863.912
01/08/2015  21:51:00      -61.667      -36.822       -3.376       35.839       23.272       16.289     1284.444      541.608      265.337        0.363        0.105       71.824       18.904        0.069      333.821        3.387      863.920
01/08/2015  21:52:00      -68.150      -12.556       -4.183       23.365       23.577       14.942      545.939      555.896      223.260        0.307        0.066       69.297       11.016        0.025      333.761        3.288      863.927
01/08/2015  21:53:00      -70.460        0.544       -9.114       25.877       26.565       16.045      669.622      705.691      257.442        0.334        0.082       70.462       13.960        0.039      333.855        3.444      863.926
01/08/2015  21:54:00      -57.552       21.708       -7.005       23.152       35.384       13.293      536.005     1251.999      176.696        0.290        0.098       61.510        7.303        0.014      334.119        3.881      863.923
01/08/2015  21:55:00      -56.173       20.418      -10.355       19.118       24.159       12.289      365.499      583.674      151.019        0.239        0.055       59.768        7.154        0.014      334.224        4.055      863.922
01/08/2015  21:56:00      -53.592      -13.045       -8.552       13.347       13.374       10.008      178.139      178.870      100.168        0.179        0.023       55.157        6.219        0.013      334.019        3.715      863.923
01/08/2015  21:57:00      -57.214      -20.569       -8.894       13.935       12.902        9.740      194.189      166.460       94.867        0.212        0.023       60.799        6.969        0.013      334.013        3.706      863.922
01/08/2015  21:58:00      -36.753      -30.724       -0.960       10.087        7.830        8.622      101.740       61.305       74.333        0.127        0.012       47.904        6.341        0.018      334.053        3.772      863.923
01/08/2015  21:59:00      -30.075      -25.108       -5.539       12.005       10.685        6.163      144.129      114.164       37.979        0.093        0.015       39.178        4.187        0.011      334.045        3.759      863.921
01/08/2015  22:00:00      -34.908      -30.859      -10.642       14.827       11.538        9.179      219.835      133.124       84.256        0.136        0.022       46.592        5.297        0.013      334.014        3.710      863.916
01/08/2015  22:01:00      -28.933      -25.965       -8.356       13.605        9.795       10.067      185.097       95.950      101.354        0.098        0.019       38.875        3.497        0.008      334.061        3.787      863.904
01/08/2015  22:02:00      -28.764      -33.726       -8.700       15.304       12.229        9.726      234.221      149.558       94.588        0.126        0.024       44.326        5.841        0.017      333.956        3.612      863.893
01/08/2015  22:03:00      -36.091      -30.837       -8.138       13.092        9.396        9.916      171.394       88.292       98.322        0.134        0.018       47.471        7.866        0.027      334.009        3.700      863.885
01/08/2015  22:04:00      -39.587      -15.831      -10.388       15.155       14.763        7.954      229.681      217.951       63.270        0.122        0.026       42.635        5.577        0.017      334.153        3.939      863.876
01/08/2015  22:05:00      -50.890      -25.284      -11.221        9.336       11.363        7.015       87.169      129.121       49.211        0.181        0.013       56.825        5.341        0.009      333.860        3.452      863.869
01/08/2015  22:06:00      -47.330      -28.139       -7.541       12.777        8.692        7.507      163.239       75.552       56.354        0.169        0.015       55.063        2.297        0.002      333.820        3.386      863.868
01/08/2015  22:07:00      -64.138      -16.978       -9.643        9.338       13.227        9.411       87.205      174.966       88.574        0.242        0.018       66.347        6.848        0.011      333.837        3.414      863.869
01/08/2015  22:08:00      -67.000      -23.032       -8.065        9.645        9.461        6.018       93.030       89.514       36.221        0.265        0.011       70.848        3.921        0.003      333.881        3.486      863.872
01/08/2015  22:09:00      -75.321      -21.196      -11.378        9.628       10.506        6.852       92.691      110.370       46.956        0.325        0.013       78.246        4.726        0.004      333.822        3.390      863.869
01/08/2015  22:10:00      -67.024      -23.354      -13.687       10.805        9.909        7.993      116.752       98.187       63.891        0.275        0.014       70.976        5.299        0.006      333.787        3.331      863.871
01/08/2015  22:11:00      -68.175      -32.482       -7.494       11.478       10.704       10.034      131.755      114.582      100.688        0.305        0.017       75.517        6.354        0.007      333.824        3.393      863.869
01/08/2015  22:12:00      -73.101      -17.226       -7.846       11.790       10.271        9.804      138.996      105.493       96.117        0.302        0.017       75.103        4.274        0.003      333.872        3.471      863.852
01/08/2015  22:13:00      -52.032      -24.351      -13.758        7.610        6.945        5.376       57.913       48.233       28.906        0.181        0.007       57.448        1.348        0.001      333.847        3.431      863.835
01/08/2015  22:14:00      -55.705      -16.564      -10.012       14.784        9.713        7.560      218.556       94.338       57.152        0.192        0.019       58.116        4.957        0.007      333.847        3.433      863.818
01/08/2015  22:15:00      -60.659      -27.186       -8.973        9.671        9.995        8.105       93.520       99.899       65.696        0.238        0.013       66.473        4.966        0.006      333.843        3.424      863.800
01/08/2015  22:16:00      -78.656      -33.112      -11.167        9.154        8.718        5.965       83.792       75.997       35.585        0.380        0.010       85.342        3.494        0.002      333.831        3.404      863.788
01/08/2015  22:17:00      -94.100      -22.244      -11.487       11.326       11.206       11.355      128.269      125.580      128.936        0.493        0.019       96.693        5.675        0.003      333.819        3.385      863.782
01/08/2015  22:18:00     -104.006      -27.825      -12.718       23.870       16.564       15.972      569.762      274.358      255.118        0.643        0.055      107.664        3.102        0.001      333.792        3.338      863.787
01/08/2015  22:19:00     -112.000      -26.244      -17.197       13.511       14.569       10.550      182.537      212.246      111.309        0.702        0.025      115.034        9.524        0.007      333.767        3.297      863.804
01/08/2015  22:20:00     -111.275      -38.251      -15.438       25.800       18.170       12.820      665.649      330.136      164.358        0.762        0.058      117.666       13.400        0.013      333.691        3.173      863.807
01/08/2015  22:21:00     -130.990      -35.008      -15.394       19.548       14.104       14.557      382.122      198.926      211.903        0.971        0.040      135.587        9.282        0.005      333.766        3.297      863.820
01/08/2015  22:22:00      -97.752      -50.236      -14.570       16.984       15.201       11.731      288.459      231.060      137.612        0.647        0.033      109.905        9.726        0.008      333.785        3.327      863.830
01/08/2015  22:23:00      -97.110      -48.619      -12.381       14.901       14.370       11.581      222.029      206.493      134.108        0.625        0.028      108.601        8.906        0.007      333.696        3.180      863.836
01/08/2015  22:24:00     -115.266      -31.387      -17.204       12.188       12.723       10.822      148.541      161.862      117.106        0.750        0.021      119.463        4.873        0.002      333.697        3.182      863.834
01/08/2015  22:25:00     -125.383      -38.093      -15.134       16.336       12.561       11.600      266.858      157.773      134.569        0.898        0.028      131.042        9.305        0.005      333.674        3.144      863.830
01/08/2015  22:26:00     -115.568      -48.480      -10.041       14.889       13.580       12.202      221.694      184.428      148.901        0.818        0.028      125.325        9.160        0.005      333.706        3.196      863.826
01/08/2015  22:27:00     -106.381      -41.914      -13.969       12.890       11.041        8.522      166.153      121.903       72.624        0.681        0.018      114.340        4.205        0.001      333.718        3.216      863.818
01/08/2015  22:28:00      -94.575      -35.564      -13.615       11.554       12.359        9.793      133.487      152.737       95.901        0.539        0.019      101.041        6.207        0.004      333.745        3.260      863.808
01/08/2015  22:29:00      -91.179      -38.789      -10.925        9.542       13.639        9.391       91.048      186.036       88.195        0.515        0.018       99.086        4.130        0.002      333.811        3.373      863.800
01/08/2015  22:30:00      -93.321      -47.136      -12.916        9.188        7.666        6.110       84.422       58.766       37.331        0.564        0.009      104.549        4.946        0.002      333.782        3.321      863.787
01/08/2015  22:31:00      -92.524      -40.736      -14.408        8.367       15.034        9.502       70.000      226.010       90.292        0.541        0.019      101.095        7.617        0.006      333.872        3.472      863.779
01/08/2015  22:32:00      -84.488      -28.903      -15.687        5.599        5.639        5.546       31.347       31.800       30.754        0.416        0.005       89.295        2.088        0.001      333.837        3.416      863.775
01/08/2015  22:33:00      -87.143      -34.176      -14.773        9.697        8.882        9.508       94.023       78.886       90.400        0.462        0.013       93.605        6.297        0.005      333.848        3.433      863.781
01/08/2015  22:34:00      -87.030      -36.625      -11.016        9.835       13.805        9.304       96.737      190.566       86.567        0.471        0.019       94.423        5.316        0.003      333.785        3.328      863.791
01/08/2015  22:35:00      -94.971      -47.498       -5.749       23.474       17.005       17.228      551.050      289.165      296.799        0.622        0.057      106.187       13.174        0.015      333.802        3.357      863.808
01/08/2015  22:36:00     -103.714      -54.106      -19.055       13.704       18.193       11.627      187.804      330.971      135.187        0.735        0.033      116.979        5.759        0.002      333.795        3.344      863.820
01/08/2015  22:37:00      -96.953      -52.557      -14.737       10.530       17.191       10.737      110.875      295.531      115.279        0.645        0.026      110.282        6.245        0.003      333.752        3.273      863.832
01/08/2015  22:38:00      -90.760      -48.382      -13.385       20.542       20.496       13.715      421.966      420.088      188.114        0.589        0.052      102.851        7.876        0.006      333.676        3.146      863.838
01/08/2015  22:39:00      -95.435      -37.694      -12.206       24.729       18.631       14.772      611.525      347.101      218.212        0.593        0.059      102.610       10.512        0.010      333.603        3.025      863.840
01/08/2015  22:40:00     -101.203      -33.409      -12.167       23.925       26.962       17.218      572.424      726.923      296.472        0.655        0.080      106.575       11.544        0.012      333.638        3.085      863.846
01/08/2015  22:41:00      -91.650       -7.926       -6.412       40.152       36.152       16.786     1612.182     1306.958      281.759        0.585        0.160       91.992       20.033        0.047      333.703        3.192      863.851
01/08/2015  22:42:00      -86.125      -21.752        2.280       43.537       45.025       23.611     1895.436     2027.230      557.501        0.619        0.224       88.830       23.307        0.069      333.746        3.263      863.850
01/08/2015  22:43:00      -82.988        6.451       -5.584       38.282       35.136       19.059     1465.482     1234.542      363.227        0.501        0.153       83.239       17.985        0.047      333.749        3.269      863.855
01/08/2015  22:44:00      -72.257       -5.861       -1.910       30.632       28.934       22.139      938.335      837.154      490.134        0.376        0.113       72.494       15.884        0.048      333.757        3.280      863.855
01/08/2015  22:45:00      -81.333        1.393       -9.949       27.123       25.533       16.752      735.678      651.932      280.613        0.419        0.083       81.345       13.238        0.026      333.738        3.249      863.858
01/08/2015  22:46:00      -80.526        2.345      -10.319       31.766       21.734       19.229     1009.082      472.354      369.755        0.422        0.093       80.560       13.730        0.029      333.730        3.237      863.856
01/08/2015  22:47:00      -74.983      -10.547      -12.442       14.629       16.614       13.181      214.014      276.038      173.742        0.328        0.033       75.721        9.337        0.015      333.716        3.214      863.857
01/08/2015  22:48:00     -101.276      -10.848      -18.684       27.030       25.030       18.671      730.622      626.483      348.617        0.621        0.085      101.855       14.324        0.020      333.789        3.332      863.860
01/08/2015  22:49:00     -113.440       -9.736      -12.095       31.504       22.175       16.726      992.473      491.710      279.766        0.744        0.088      113.857       12.159        0.011      333.732        3.238      863.871
01/08/2015  22:50:00     -126.105      -32.852       -8.628       40.467       23.604       20.669     1637.566      557.164      427.194        0.984        0.131      130.314       15.738        0.015      333.721        3.221      863.883
01/08/2015  22:51:00     -121.771      -36.324       -5.205       35.358       25.723       17.657     1250.171      661.663      311.784        0.920        0.111      127.073       10.161        0.006      333.702        3.190      863.902
01/08/2015  22:52:00     -126.183      -27.300       -6.042       35.253       30.663       19.973     1242.755      940.200      398.934        0.964        0.129      129.103       18.500        0.021      333.705        3.195      863.920
01/08/2015  22:53:00     -101.843      -18.024       -2.254       43.727       22.530       20.400     1912.083      507.591      416.169        0.677        0.142      103.426       22.491        0.047      333.685        3.162      863.923
01/08/2015  22:54:00      -86.347      -13.873       -4.913       32.752       23.836       15.856     1072.671      568.178      251.403        0.478        0.095       87.455       13.551        0.024      333.721        3.220      863.908
01/08/2015  22:55:00      -75.043      -10.503        2.496       28.041       22.828       17.833      786.274      521.136      318.023        0.369        0.081       75.774       15.280        0.041      333.751        3.272      863.896
01/08/2015  22:56:00     -125.887       31.448       -8.161       49.621       32.280       17.452     2462.201     1042.017      304.567        1.036        0.190      129.756       14.346        0.012      334.012        3.705      863.874
01/08/2015  22:57:00     -152.334       28.067      -16.328       44.013       30.070       18.907     1937.186      904.176      357.485        1.373        0.160      154.898       16.995        0.012      334.110        3.866      863.856
01/08/2015  22:58:00     -129.343       15.565      -11.007       52.172       39.851       19.867     2721.869     1588.082      394.711        1.090        0.235      130.276       16.934        0.017      334.054        3.773      863.852
01/08/2015  22:59:00     -114.709       -5.782       -7.994       36.178       34.437       22.173     1308.829     1185.931      491.624        0.812        0.149      114.854       19.151        0.028      333.962        3.620      863.835
01/08/2015  23:00:00     -102.280      -11.252       -2.973       43.075       27.401       25.051     1855.450      750.825      627.538        0.691        0.162      102.897       23.632        0.053      333.881        3.487      863.834
01/08/2015  23:01:00      -92.206      -14.876       -3.485       45.031       34.502       20.128     2027.753     1190.367      405.131        0.618        0.181       93.399       19.725        0.045      333.869        3.467      863.825
01/08/2015  23:02:00      -82.556      -33.136       -7.424       32.352       23.362       14.688     1046.654      545.769      215.729        0.489        0.090       88.958       15.416        0.030      333.880        3.485      863.817
01/08/2015  23:03:00      -80.394      -15.400       -3.012       31.144       19.856       19.973      969.929      394.253      398.908        0.424        0.088       81.856       18.740        0.052      333.831        3.403      863.814
01/08/2015  23:04:00      -63.320      -43.207       -8.413       28.779       25.597       19.087      828.248      655.184      364.297        0.390        0.092       76.657       12.649        0.027      333.787        3.331      863.810
01/08/2015  23:05:00      -57.029      -17.838      -15.412       14.805       15.680       12.409      219.175      245.860      153.979        0.221        0.031       59.754        5.882        0.010      333.823        3.391      863.804
01/08/2015  23:06:00      -78.920      -26.844      -10.171       13.676       14.641       10.343      187.027      214.355      106.972        0.378        0.025       83.361        3.351        0.002      333.763        3.290      863.806
01/08/2015  23:07:00      -98.194      -38.071      -14.164       21.201       17.389       14.926      449.474      302.382      222.789        0.613        0.049      105.316       11.340        0.012      333.795        3.343      863.815
01/08/2015  23:08:00      -90.554      -37.646      -17.409       14.815       13.144       10.942      219.481      172.773      119.727        0.522        0.026       98.067        4.952        0.003      333.745        3.261      863.834
01/08/2015  23:09:00      -83.974      -49.397      -13.233       26.573       17.942       12.212      706.117      321.906      149.125        0.542        0.059       97.426        5.603        0.003      333.748        3.267      863.848
01/08/2015  23:10:00      -89.250      -53.886      -14.240       14.956       20.271       13.848      223.669      410.919      191.776        0.595        0.041      104.256        9.341        0.008      333.670        3.138      863.863
01/08/2015  23:11:00     -136.373      -49.609      -12.580       26.992       21.611       16.176      728.587      467.036      261.655        1.134        0.073      145.115       11.825        0.007      333.664        3.127      863.864
01/08/2015  23:12:00     -116.645      -56.463      -11.716       18.690       19.099       15.649      349.307      364.776      244.898        0.895        0.048      129.592        7.173        0.003      333.650        3.103      863.857
01/08/2015  23:13:00      -85.184      -41.280       -6.454       17.944       16.985       12.873      321.999      288.495      165.711        0.489        0.039       94.659       10.678        0.013      333.637        3.083      863.846
01/08/2015  23:14:00      -84.978      -19.580       -2.798       12.197       16.325       10.820      148.767      266.503      117.070        0.407        0.027       87.205        6.237        0.005      333.611        3.040      863.836
01/08/2015  23:15:00      -86.723      -29.322       -5.730       13.703       14.958        9.703      187.781      223.744       94.154        0.446        0.025       91.547        6.617        0.005      333.650        3.105      863.829
01/08/2015  23:16:00      -96.383      -32.904      -10.676       18.034       17.139       13.803      325.218      293.735      190.512        0.565        0.040      101.844        7.524        0.005      333.704        3.192      863.830
01/08/2015  23:17:00      -76.223      -25.858      -11.585       18.915       17.724       12.597      357.765      314.132      158.677        0.372        0.042       80.490        7.933        0.010      333.695        3.178      863.831
01/08/2015  23:18:00      -86.454      -18.639      -13.080       15.130       22.514       12.667      228.918      506.874      160.447        0.444        0.045       88.440        7.819        0.008      333.680        3.153      863.840
01/08/2015  23:19:00      -89.526      -49.391       -3.983       19.865       24.641       17.863      394.632      607.183      319.099        0.590        0.066      102.246        9.515        0.009      333.677        3.149      863.845
01/08/2015  23:20:00     -108.821      -30.949        1.347       29.028       20.700       21.133      842.604      428.485      446.618        0.726        0.086      113.136       20.001        0.031      333.701        3.188      863.835
01/08/2015  23:21:00      -34.060      -22.338        0.063       23.146       15.575       11.946      535.737      242.590      142.706        0.129        0.046       40.731       10.886        0.071      333.664        3.127      863.819
01/08/2015  23:22:00      -73.098      -30.168      -11.967        7.428        6.602        5.386       55.172       43.585       29.007        0.326        0.006       79.078        2.652        0.001      333.660        3.120      863.800
01/08/2015  23:23:00      -80.390      -30.665      -11.963        8.791       13.320        7.686       77.286      177.416       59.068        0.393        0.016       86.040        1.819        0.000      333.686        3.162      863.784
01/08/2015  23:24:00     -103.262      -53.476       -7.756       16.594       14.633        9.166      275.356      214.125       84.016        0.708        0.029      116.287        6.908        0.004      333.697        3.182      863.775
01/08/2015  23:25:00     -104.250      -56.274       -3.460       22.092       17.680       16.385      488.074      312.590      268.484        0.756        0.053      118.469       11.984        0.010      333.647        3.098      863.774
01/08/2015  23:26:00     -100.494      -68.721        0.167       28.676       27.566       17.520      822.329      759.899      306.953        0.835        0.094      121.744       14.124        0.013      333.657        3.115      863.772
01/08/2015  23:27:00      -99.739      -49.904       -3.834       19.350       19.595       11.158      374.415      383.979      124.512        0.667        0.044      111.527        8.030        0.005      333.661        3.122      863.765
01/08/2015  23:28:00     -101.309      -38.522       -7.765       11.545       13.946        8.023      133.294      194.489       64.363        0.610        0.020      108.385        6.355        0.003      333.638        3.085      863.750
01/08/2015  23:29:00      -61.302      -42.339       -2.778       18.818       13.050       11.565      354.104      170.308      133.759        0.311        0.033       74.502        9.159        0.015      333.628        3.067      863.740
01/08/2015  23:30:00      -56.096      -29.739       -4.940       19.591       12.094        8.337      383.821      146.269       69.499        0.233        0.030       63.491        6.840        0.012      333.638        3.083      863.726
01/08/2015  23:31:00      -66.569      -18.756      -12.962       13.456       14.510       10.791      181.073      210.545      116.445        0.273        0.025       69.160        6.181        0.008      333.661        3.123      863.713
01/08/2015  23:32:00      -61.674      -27.901      -15.499       14.381       16.365       10.060      206.804      267.800      101.201        0.270        0.029       67.691        9.125        0.018      333.695        3.177      863.707
01/08/2015  23:33:00      -64.201      -36.399       -5.488       10.658       15.417        8.904      113.592      237.678       79.281        0.295        0.022       73.801        8.132        0.012      333.700        3.185      863.715
01/08/2015  23:34:00      -66.395      -24.900      -13.330       10.011       10.997        9.728      100.225      120.943       94.631        0.276        0.016       70.911        7.293        0.011      333.653        3.110      863.725
01/08/2015  23:35:00      -82.222      -17.855      -14.841       12.709       10.837        9.919      161.516      117.436       98.381        0.384        0.019       84.139        5.604        0.004      333.607        3.030      863.737
01/08/2015  23:36:00      -96.110      -14.980      -14.682       14.027       12.981       11.107      196.765      168.501      123.372        0.508        0.024       97.270        2.407        0.001      333.607        3.033      863.752
01/08/2015  23:37:00      -87.271      -21.664      -17.404       10.594       11.650        8.389      112.222      135.727       70.383        0.435        0.016       89.919        5.064        0.003      333.624        3.059      863.756
01/08/2015  23:38:00      -79.149      -12.720       -7.269       13.093       17.094        9.275      171.414      292.199       86.022        0.351        0.027       80.165        7.613        0.009      333.598        3.018      863.760
01/08/2015  23:39:00      -45.431      -11.036       -2.004       18.073       13.317       10.410      326.651      177.347      108.360        0.140        0.031       46.752        6.787        0.021      333.639        3.086      863.761
01/08/2015  23:40:00      -26.557      -25.155       -4.148       11.080       10.894       10.714      122.773      118.681      114.783        0.086        0.018       36.579        9.500        0.067      333.660        3.121      863.744
01/08/2015  23:41:00      -17.630      -22.816       -1.398       11.092        7.972       11.219      123.040       63.551      125.873        0.057        0.016       28.833        3.285        0.013      333.722        3.225      863.728
01/08/2015  23:42:00      -17.497      -13.725       -4.944       13.090        7.727        6.356      171.354       59.699       40.405        0.040        0.014       22.238        3.859        0.030      333.893        3.508      863.710
01/08/2015  23:43:00      -29.419      -13.153       -1.892        8.788        8.028        5.179       77.237       64.455       26.820        0.061        0.008       32.225        2.595        0.006      333.728        3.232      863.705
01/08/2015  23:44:00      -11.601      -12.210       -6.510       11.605       10.182        6.920      134.666      103.673       47.880        0.031        0.014       16.842        6.699        0.158      333.708        3.201      863.701
01/08/2015  23:45:00      -19.906      -11.227        7.982       17.204       11.472       10.054      295.963      131.616      101.087        0.056        0.026       22.854        8.442        0.136      333.652        3.107      863.698
01/08/2015  23:46:00      -49.091      -29.776       -9.167       10.504        6.509        6.437      110.328       42.372       41.441        0.179        0.010       57.415        2.758        0.002      333.649        3.102      863.710
01/08/2015  23:47:00      -46.894      -35.198       -5.152       17.233       17.844       13.507      296.968      318.400      182.447        0.213        0.040       58.634        6.329        0.012      333.548        2.934      863.720
01/08/2015  23:48:00      -76.615      -51.123       -2.938       15.992       11.328        8.471      255.737      128.330       71.755        0.447        0.023       92.105        3.044        0.001      333.550        2.939      863.728
01/08/2015  23:49:00      -40.059      -35.707       -1.507       16.323       14.553        9.955      266.427      211.801       99.102        0.173        0.029       53.663        6.551        0.015      333.643        3.093      863.736
01/08/2015  23:50:00      -31.131      -35.935        2.112       21.681       16.725       10.786      470.070      279.731      116.327        0.157        0.043       47.544        9.986        0.044      333.690        3.170      863.728
01/08/2015  23:51:00       -9.305      -17.576        0.318       14.681       16.719        8.652      215.544      279.525       74.859        0.048        0.028       19.887        9.393        0.223      333.748        3.267      863.712
01/08/2015  23:52:00      -13.772        1.049        5.727        7.399        3.336        5.734       54.747       11.128       32.880        0.016        0.005       13.812        5.092        0.136      333.712        3.205      863.699
01/08/2015  23:53:00        1.300        2.394        0.352        3.338        3.838        2.918       11.141       14.732        8.513        0.002        0.002        2.724        1.797        0.435      333.721        3.222      863.691
01/08/2015  23:54:00      -11.572       -4.462       -1.739       17.861        9.486        4.186      319.012       89.988       17.523        0.029        0.021       12.402        5.238        0.178      333.741        3.256      863.685
01/08/2015  23:55:00      -28.852      -12.624       -6.430        7.336        6.340        5.036       53.818       40.196       25.357        0.058        0.006       31.492        2.443        0.006      333.634        3.076      863.691
01/08/2015  23:56:00      -29.967       -9.653       -2.055        9.339        7.729        5.885       87.223       59.740       34.639        0.059        0.009       31.483        4.706        0.022      333.622        3.059      863.689
01/08/2015  23:57:00      -44.005      -18.565       -5.744        6.486        6.748        5.892       42.073       45.540       34.714        0.122        0.006       47.761        1.442        0.001      333.681        3.154      863.693
01/08/2015  23:58:00      -53.802      -17.413       -9.355        7.427        6.434        5.502       55.154       41.400       30.275        0.171        0.006       56.549        2.418        0.002      333.713        3.207      863.686
01/08/2015  23:59:00      -61.345      -24.073       -5.776       11.240        8.819        7.427      126.342       77.777       55.154        0.232        0.013       65.899        6.359        0.009      333.655        3.112      863.680
